<?xml version="1.0" encoding="UTF-8"?>
<gpx version="1.0" creator="GPSBabel - http://www.gpsbabel.org" xmlns="http://www.topografix.com/GPX/1/0">
  <time>2026-05-04T01:40:15.223Z</time>
  <bounds minlat="35.089601000" minlon="-106.399449000" maxlat="35.114050000" maxlon="-106.391519000"/>
  <trk>
    <name>South Crest-Faulty Trails Hike - 05/03/2026</name>
    <trkseg>
      <trkpt lat="35.089655000" lon="-106.391526000">
        <ele>1975.630000</ele>
        <time>2026-05-03T16:51:11Z</time>
      </trkpt>
      <trkpt lat="35.089653000" lon="-106.391519000">
        <ele>1995.400000</ele>
        <time>2026-05-03T16:51:21Z</time>
      </trkpt>
      <trkpt lat="35.089640000" lon="-106.391527000">
        <ele>1998.080000</ele>
        <time>2026-05-03T16:54:22Z</time>
      </trkpt>
      <trkpt lat="35.089606000" lon="-106.391633000">
        <ele>1999.750000</ele>
        <time>2026-05-03T16:54:34Z</time>
      </trkpt>
      <trkpt lat="35.089606000" lon="-106.391671000">
        <ele>2000.000000</ele>
        <time>2026-05-03T16:54:37Z</time>
      </trkpt>
      <trkpt lat="35.089607000" lon="-106.391684000">
        <ele>1999.800000</ele>
        <time>2026-05-03T16:54:38Z</time>
      </trkpt>
      <trkpt lat="35.089649000" lon="-106.391801000">
        <ele>1998.470000</ele>
        <time>2026-05-03T16:54:47Z</time>
      </trkpt>
      <trkpt lat="35.089693000" lon="-106.391843000">
        <ele>1998.200000</ele>
        <time>2026-05-03T16:54:52Z</time>
      </trkpt>
      <trkpt lat="35.089700000" lon="-106.391852000">
        <ele>1998.130000</ele>
        <time>2026-05-03T16:54:53Z</time>
      </trkpt>
      <trkpt lat="35.089744000" lon="-106.391951000">
        <ele>2001.770000</ele>
        <time>2026-05-03T16:55:03Z</time>
      </trkpt>
      <trkpt lat="35.089767000" lon="-106.392042000">
        <ele>2001.340000</ele>
        <time>2026-05-03T16:55:11Z</time>
      </trkpt>
      <trkpt lat="35.089773000" lon="-106.392050000">
        <ele>2001.280000</ele>
        <time>2026-05-03T16:55:12Z</time>
      </trkpt>
      <trkpt lat="35.089794000" lon="-106.392073000">
        <ele>2001.330000</ele>
        <time>2026-05-03T16:55:15Z</time>
      </trkpt>
      <trkpt lat="35.089816000" lon="-106.392123000">
        <ele>2000.110000</ele>
        <time>2026-05-03T16:55:19Z</time>
      </trkpt>
      <trkpt lat="35.089883000" lon="-106.392200000">
        <ele>2001.570000</ele>
        <time>2026-05-03T16:55:28Z</time>
      </trkpt>
      <trkpt lat="35.089891000" lon="-106.392209000">
        <ele>2001.470000</ele>
        <time>2026-05-03T16:55:29Z</time>
      </trkpt>
      <trkpt lat="35.089953000" lon="-106.392338000">
        <ele>2001.090000</ele>
        <time>2026-05-03T16:55:40Z</time>
      </trkpt>
      <trkpt lat="35.089958000" lon="-106.392355000">
        <ele>2000.110000</ele>
        <time>2026-05-03T16:55:41Z</time>
      </trkpt>
      <trkpt lat="35.089949000" lon="-106.392387000">
        <ele>1998.810000</ele>
        <time>2026-05-03T16:56:08Z</time>
      </trkpt>
      <trkpt lat="35.089954000" lon="-106.392385000">
        <ele>1999.410000</ele>
        <time>2026-05-03T16:56:09Z</time>
      </trkpt>
      <trkpt lat="35.090062000" lon="-106.392432000">
        <ele>2001.110000</ele>
        <time>2026-05-03T16:56:50Z</time>
      </trkpt>
      <trkpt lat="35.090115000" lon="-106.392466000">
        <ele>2000.600000</ele>
        <time>2026-05-03T16:56:57Z</time>
      </trkpt>
      <trkpt lat="35.090123000" lon="-106.392471000">
        <ele>2000.580000</ele>
        <time>2026-05-03T16:56:58Z</time>
      </trkpt>
      <trkpt lat="35.090248000" lon="-106.392500000">
        <ele>2000.390000</ele>
        <time>2026-05-03T16:57:13Z</time>
      </trkpt>
      <trkpt lat="35.090294000" lon="-106.392488000">
        <ele>2001.220000</ele>
        <time>2026-05-03T16:57:18Z</time>
      </trkpt>
      <trkpt lat="35.090303000" lon="-106.392486000">
        <ele>2001.170000</ele>
        <time>2026-05-03T16:57:19Z</time>
      </trkpt>
      <trkpt lat="35.090353000" lon="-106.392467000">
        <ele>2002.350000</ele>
        <time>2026-05-03T16:57:27Z</time>
      </trkpt>
      <trkpt lat="35.090422000" lon="-106.392467000">
        <ele>2002.510000</ele>
        <time>2026-05-03T16:57:34Z</time>
      </trkpt>
      <trkpt lat="35.090474000" lon="-106.392448000">
        <ele>2002.310000</ele>
        <time>2026-05-03T16:57:41Z</time>
      </trkpt>
      <trkpt lat="35.090475000" lon="-106.392446000">
        <ele>2002.290000</ele>
        <time>2026-05-03T16:57:42Z</time>
      </trkpt>
      <trkpt lat="35.090497000" lon="-106.392457000">
        <ele>2003.000000</ele>
        <time>2026-05-03T16:57:47Z</time>
      </trkpt>
      <trkpt lat="35.090523000" lon="-106.392455000">
        <ele>2001.810000</ele>
        <time>2026-05-03T16:57:50Z</time>
      </trkpt>
      <trkpt lat="35.090564000" lon="-106.392437000">
        <ele>2004.290000</ele>
        <time>2026-05-03T16:58:00Z</time>
      </trkpt>
      <trkpt lat="35.090629000" lon="-106.392464000">
        <ele>2005.600000</ele>
        <time>2026-05-03T16:58:08Z</time>
      </trkpt>
      <trkpt lat="35.090639000" lon="-106.392469000">
        <ele>2005.910000</ele>
        <time>2026-05-03T16:58:09Z</time>
      </trkpt>
      <trkpt lat="35.090673000" lon="-106.392473000">
        <ele>2005.160000</ele>
        <time>2026-05-03T16:58:12Z</time>
      </trkpt>
      <trkpt lat="35.090756000" lon="-106.392517000">
        <ele>2006.280000</ele>
        <time>2026-05-03T16:58:23Z</time>
      </trkpt>
      <trkpt lat="35.090810000" lon="-106.392525000">
        <ele>2008.780000</ele>
        <time>2026-05-03T16:59:01Z</time>
      </trkpt>
      <trkpt lat="35.090817000" lon="-106.392527000">
        <ele>2008.940000</ele>
        <time>2026-05-03T16:59:02Z</time>
      </trkpt>
      <trkpt lat="35.090841000" lon="-106.392529000">
        <ele>2009.210000</ele>
        <time>2026-05-03T16:59:05Z</time>
      </trkpt>
      <trkpt lat="35.090858000" lon="-106.392514000">
        <ele>2009.580000</ele>
        <time>2026-05-03T16:59:07Z</time>
      </trkpt>
      <trkpt lat="35.090884000" lon="-106.392513000">
        <ele>2010.420000</ele>
        <time>2026-05-03T16:59:10Z</time>
      </trkpt>
      <trkpt lat="35.090965000" lon="-106.392457000">
        <ele>2011.730000</ele>
        <time>2026-05-03T16:59:19Z</time>
      </trkpt>
      <trkpt lat="35.090971000" lon="-106.392453000">
        <ele>2013.070000</ele>
        <time>2026-05-03T16:59:20Z</time>
      </trkpt>
      <trkpt lat="35.090996000" lon="-106.392452000">
        <ele>2015.540000</ele>
        <time>2026-05-03T16:59:24Z</time>
      </trkpt>
      <trkpt lat="35.091060000" lon="-106.392423000">
        <ele>2016.580000</ele>
        <time>2026-05-03T16:59:31Z</time>
      </trkpt>
      <trkpt lat="35.091089000" lon="-106.392394000">
        <ele>2017.300000</ele>
        <time>2026-05-03T16:59:35Z</time>
      </trkpt>
      <trkpt lat="35.091122000" lon="-106.392378000">
        <ele>2017.180000</ele>
        <time>2026-05-03T16:59:39Z</time>
      </trkpt>
      <trkpt lat="35.091132000" lon="-106.392376000">
        <ele>2017.760000</ele>
        <time>2026-05-03T16:59:40Z</time>
      </trkpt>
      <trkpt lat="35.091208000" lon="-106.392354000">
        <ele>2020.790000</ele>
        <time>2026-05-03T16:59:48Z</time>
      </trkpt>
      <trkpt lat="35.091291000" lon="-106.392301000">
        <ele>2022.480000</ele>
        <time>2026-05-03T16:59:58Z</time>
      </trkpt>
      <trkpt lat="35.091298000" lon="-106.392292000">
        <ele>2022.700000</ele>
        <time>2026-05-03T16:59:59Z</time>
      </trkpt>
      <trkpt lat="35.091391000" lon="-106.392271000">
        <ele>2023.400000</ele>
        <time>2026-05-03T17:00:08Z</time>
      </trkpt>
      <trkpt lat="35.091464000" lon="-106.392269000">
        <ele>2022.530000</ele>
        <time>2026-05-03T17:00:15Z</time>
      </trkpt>
      <trkpt lat="35.091471000" lon="-106.392271000">
        <ele>2023.150000</ele>
        <time>2026-05-03T17:00:16Z</time>
      </trkpt>
      <trkpt lat="35.091648000" lon="-106.392245000">
        <ele>2019.840000</ele>
        <time>2026-05-03T17:01:05Z</time>
      </trkpt>
      <trkpt lat="35.091657000" lon="-106.392245000">
        <ele>2019.980000</ele>
        <time>2026-05-03T17:01:06Z</time>
      </trkpt>
      <trkpt lat="35.091777000" lon="-106.392212000">
        <ele>2020.260000</ele>
        <time>2026-05-03T17:01:22Z</time>
      </trkpt>
      <trkpt lat="35.091826000" lon="-106.392187000">
        <ele>2020.450000</ele>
        <time>2026-05-03T17:01:29Z</time>
      </trkpt>
      <trkpt lat="35.091832000" lon="-106.392181000">
        <ele>2020.560000</ele>
        <time>2026-05-03T17:01:30Z</time>
      </trkpt>
      <trkpt lat="35.091990000" lon="-106.392111000">
        <ele>2024.650000</ele>
        <time>2026-05-03T17:01:52Z</time>
      </trkpt>
      <trkpt lat="35.091999000" lon="-106.392107000">
        <ele>2024.770000</ele>
        <time>2026-05-03T17:01:53Z</time>
      </trkpt>
      <trkpt lat="35.092045000" lon="-106.392071000">
        <ele>2024.920000</ele>
        <time>2026-05-03T17:02:00Z</time>
      </trkpt>
      <trkpt lat="35.092171000" lon="-106.392013000">
        <ele>2026.320000</ele>
        <time>2026-05-03T17:02:16Z</time>
      </trkpt>
      <trkpt lat="35.092178000" lon="-106.392008000">
        <ele>2026.500000</ele>
        <time>2026-05-03T17:02:17Z</time>
      </trkpt>
      <trkpt lat="35.092207000" lon="-106.391992000">
        <ele>2026.580000</ele>
        <time>2026-05-03T17:02:21Z</time>
      </trkpt>
      <trkpt lat="35.092279000" lon="-106.391980000">
        <ele>2026.990000</ele>
        <time>2026-05-03T17:02:33Z</time>
      </trkpt>
      <trkpt lat="35.092354000" lon="-106.391997000">
        <ele>2026.730000</ele>
        <time>2026-05-03T17:03:02Z</time>
      </trkpt>
      <trkpt lat="35.092358000" lon="-106.391996000">
        <ele>2026.560000</ele>
        <time>2026-05-03T17:03:03Z</time>
      </trkpt>
      <trkpt lat="35.092424000" lon="-106.391952000">
        <ele>2030.450000</ele>
        <time>2026-05-03T17:03:17Z</time>
      </trkpt>
      <trkpt lat="35.092446000" lon="-106.391964000">
        <ele>2031.990000</ele>
        <time>2026-05-03T17:03:20Z</time>
      </trkpt>
      <trkpt lat="35.092497000" lon="-106.391965000">
        <ele>2035.920000</ele>
        <time>2026-05-03T17:03:26Z</time>
      </trkpt>
      <trkpt lat="35.092524000" lon="-106.391977000">
        <ele>2037.860000</ele>
        <time>2026-05-03T17:03:29Z</time>
      </trkpt>
      <trkpt lat="35.092534000" lon="-106.391979000">
        <ele>2037.980000</ele>
        <time>2026-05-03T17:03:30Z</time>
      </trkpt>
      <trkpt lat="35.092627000" lon="-106.392016000">
        <ele>2035.990000</ele>
        <time>2026-05-03T17:03:40Z</time>
      </trkpt>
      <trkpt lat="35.092705000" lon="-106.392022000">
        <ele>2039.430000</ele>
        <time>2026-05-03T17:03:49Z</time>
      </trkpt>
      <trkpt lat="35.092713000" lon="-106.392023000">
        <ele>2039.650000</ele>
        <time>2026-05-03T17:03:50Z</time>
      </trkpt>
      <trkpt lat="35.092788000" lon="-106.392021000">
        <ele>2037.940000</ele>
        <time>2026-05-03T17:03:57Z</time>
      </trkpt>
      <trkpt lat="35.092893000" lon="-106.392038000">
        <ele>2038.260000</ele>
        <time>2026-05-03T17:04:08Z</time>
      </trkpt>
      <trkpt lat="35.092904000" lon="-106.392038000">
        <ele>2038.730000</ele>
        <time>2026-05-03T17:04:09Z</time>
      </trkpt>
      <trkpt lat="35.092935000" lon="-106.392043000">
        <ele>2039.010000</ele>
        <time>2026-05-03T17:04:12Z</time>
      </trkpt>
      <trkpt lat="35.093006000" lon="-106.392077000">
        <ele>2041.530000</ele>
        <time>2026-05-03T17:04:20Z</time>
      </trkpt>
      <trkpt lat="35.093051000" lon="-106.392111000">
        <ele>2041.460000</ele>
        <time>2026-05-03T17:04:25Z</time>
      </trkpt>
      <trkpt lat="35.093058000" lon="-106.392119000">
        <ele>2041.660000</ele>
        <time>2026-05-03T17:04:26Z</time>
      </trkpt>
      <trkpt lat="35.093135000" lon="-106.392181000">
        <ele>2043.880000</ele>
        <time>2026-05-03T17:04:36Z</time>
      </trkpt>
      <trkpt lat="35.093202000" lon="-106.392197000">
        <ele>2045.110000</ele>
        <time>2026-05-03T17:04:43Z</time>
      </trkpt>
      <trkpt lat="35.093210000" lon="-106.392197000">
        <ele>2045.360000</ele>
        <time>2026-05-03T17:04:44Z</time>
      </trkpt>
      <trkpt lat="35.093294000" lon="-106.392212000">
        <ele>2045.450000</ele>
        <time>2026-05-03T17:04:54Z</time>
      </trkpt>
      <trkpt lat="35.093392000" lon="-106.392196000">
        <ele>2046.850000</ele>
        <time>2026-05-03T17:05:06Z</time>
      </trkpt>
      <trkpt lat="35.093400000" lon="-106.392197000">
        <ele>2047.090000</ele>
        <time>2026-05-03T17:05:07Z</time>
      </trkpt>
      <trkpt lat="35.093450000" lon="-106.392181000">
        <ele>2048.490000</ele>
        <time>2026-05-03T17:05:13Z</time>
      </trkpt>
      <trkpt lat="35.093572000" lon="-106.392164000">
        <ele>2049.670000</ele>
        <time>2026-05-03T17:05:27Z</time>
      </trkpt>
      <trkpt lat="35.093582000" lon="-106.392162000">
        <ele>2050.020000</ele>
        <time>2026-05-03T17:05:28Z</time>
      </trkpt>
      <trkpt lat="35.093681000" lon="-106.392100000">
        <ele>2049.410000</ele>
        <time>2026-05-03T17:05:44Z</time>
      </trkpt>
      <trkpt lat="35.093721000" lon="-106.392018000">
        <ele>2045.770000</ele>
        <time>2026-05-03T17:05:55Z</time>
      </trkpt>
      <trkpt lat="35.093727000" lon="-106.392010000">
        <ele>2044.840000</ele>
        <time>2026-05-03T17:05:56Z</time>
      </trkpt>
      <trkpt lat="35.093761000" lon="-106.392017000">
        <ele>2044.680000</ele>
        <time>2026-05-03T17:06:00Z</time>
      </trkpt>
      <trkpt lat="35.093782000" lon="-106.392035000">
        <ele>2043.360000</ele>
        <time>2026-05-03T17:06:04Z</time>
      </trkpt>
      <trkpt lat="35.093803000" lon="-106.392016000">
        <ele>2041.820000</ele>
        <time>2026-05-03T17:06:54Z</time>
      </trkpt>
      <trkpt lat="35.093846000" lon="-106.392081000">
        <ele>2041.640000</ele>
        <time>2026-05-03T17:07:06Z</time>
      </trkpt>
      <trkpt lat="35.093820000" lon="-106.392103000">
        <ele>2039.910000</ele>
        <time>2026-05-03T17:07:08Z</time>
      </trkpt>
      <trkpt lat="35.093807000" lon="-106.392104000">
        <ele>2039.320000</ele>
        <time>2026-05-03T17:07:09Z</time>
      </trkpt>
      <trkpt lat="35.093776000" lon="-106.392117000">
        <ele>2038.230000</ele>
        <time>2026-05-03T17:07:13Z</time>
      </trkpt>
      <trkpt lat="35.093704000" lon="-106.392119000">
        <ele>2041.060000</ele>
        <time>2026-05-03T17:07:50Z</time>
      </trkpt>
      <trkpt lat="35.093729000" lon="-106.392122000">
        <ele>2041.100000</ele>
        <time>2026-05-03T17:08:30Z</time>
      </trkpt>
      <trkpt lat="35.093756000" lon="-106.392081000">
        <ele>2042.500000</ele>
        <time>2026-05-03T17:08:33Z</time>
      </trkpt>
      <trkpt lat="35.093760000" lon="-106.392076000">
        <ele>2043.160000</ele>
        <time>2026-05-03T17:08:34Z</time>
      </trkpt>
      <trkpt lat="35.093800000" lon="-106.392041000">
        <ele>2047.580000</ele>
        <time>2026-05-03T17:08:40Z</time>
      </trkpt>
      <trkpt lat="35.093867000" lon="-106.392079000">
        <ele>2047.900000</ele>
        <time>2026-05-03T17:08:52Z</time>
      </trkpt>
      <trkpt lat="35.093927000" lon="-106.392077000">
        <ele>2044.070000</ele>
        <time>2026-05-03T17:09:31Z</time>
      </trkpt>
      <trkpt lat="35.093941000" lon="-106.392075000">
        <ele>2043.660000</ele>
        <time>2026-05-03T17:09:32Z</time>
      </trkpt>
      <trkpt lat="35.093996000" lon="-106.392081000">
        <ele>2047.380000</ele>
        <time>2026-05-03T17:09:43Z</time>
      </trkpt>
      <trkpt lat="35.094020000" lon="-106.392093000">
        <ele>2047.430000</ele>
        <time>2026-05-03T17:09:55Z</time>
      </trkpt>
      <trkpt lat="35.094066000" lon="-106.392028000">
        <ele>2051.550000</ele>
        <time>2026-05-03T17:10:20Z</time>
      </trkpt>
      <trkpt lat="35.094096000" lon="-106.392018000">
        <ele>2053.630000</ele>
        <time>2026-05-03T17:10:24Z</time>
      </trkpt>
      <trkpt lat="35.094106000" lon="-106.392018000">
        <ele>2053.500000</ele>
        <time>2026-05-03T17:10:25Z</time>
      </trkpt>
      <trkpt lat="35.094116000" lon="-106.392014000">
        <ele>2053.520000</ele>
        <time>2026-05-03T17:10:26Z</time>
      </trkpt>
      <trkpt lat="35.094130000" lon="-106.392078000">
        <ele>2050.900000</ele>
        <time>2026-05-03T17:10:35Z</time>
      </trkpt>
      <trkpt lat="35.094173000" lon="-106.392106000">
        <ele>2043.690000</ele>
        <time>2026-05-03T17:11:13Z</time>
      </trkpt>
      <trkpt lat="35.094199000" lon="-106.392054000">
        <ele>2046.460000</ele>
        <time>2026-05-03T17:11:57Z</time>
      </trkpt>
      <trkpt lat="35.094222000" lon="-106.392082000">
        <ele>2046.810000</ele>
        <time>2026-05-03T17:12:00Z</time>
      </trkpt>
      <trkpt lat="35.094227000" lon="-106.392093000">
        <ele>2047.500000</ele>
        <time>2026-05-03T17:12:01Z</time>
      </trkpt>
      <trkpt lat="35.094264000" lon="-106.392165000">
        <ele>2051.500000</ele>
        <time>2026-05-03T17:12:10Z</time>
      </trkpt>
      <trkpt lat="35.094320000" lon="-106.392204000">
        <ele>2055.740000</ele>
        <time>2026-05-03T17:12:16Z</time>
      </trkpt>
      <trkpt lat="35.094331000" lon="-106.392237000">
        <ele>2057.770000</ele>
        <time>2026-05-03T17:12:20Z</time>
      </trkpt>
      <trkpt lat="35.094337000" lon="-106.392246000">
        <ele>2057.830000</ele>
        <time>2026-05-03T17:12:21Z</time>
      </trkpt>
      <trkpt lat="35.094353000" lon="-106.392280000">
        <ele>2059.120000</ele>
        <time>2026-05-03T17:12:25Z</time>
      </trkpt>
      <trkpt lat="35.094487000" lon="-106.392297000">
        <ele>2059.940000</ele>
        <time>2026-05-03T17:12:39Z</time>
      </trkpt>
      <trkpt lat="35.094492000" lon="-106.392302000">
        <ele>2059.750000</ele>
        <time>2026-05-03T17:12:40Z</time>
      </trkpt>
      <trkpt lat="35.094516000" lon="-106.392321000">
        <ele>2058.420000</ele>
        <time>2026-05-03T17:12:44Z</time>
      </trkpt>
      <trkpt lat="35.094567000" lon="-106.392331000">
        <ele>2059.650000</ele>
        <time>2026-05-03T17:12:52Z</time>
      </trkpt>
      <trkpt lat="35.094627000" lon="-106.392378000">
        <ele>2063.130000</ele>
        <time>2026-05-03T17:13:04Z</time>
      </trkpt>
      <trkpt lat="35.094650000" lon="-106.392410000">
        <ele>2063.160000</ele>
        <time>2026-05-03T17:13:08Z</time>
      </trkpt>
      <trkpt lat="35.094651000" lon="-106.392415000">
        <ele>2063.000000</ele>
        <time>2026-05-03T17:13:09Z</time>
      </trkpt>
      <trkpt lat="35.094684000" lon="-106.392425000">
        <ele>2062.360000</ele>
        <time>2026-05-03T17:13:34Z</time>
      </trkpt>
      <trkpt lat="35.094700000" lon="-106.392515000">
        <ele>2057.800000</ele>
        <time>2026-05-03T17:14:16Z</time>
      </trkpt>
      <trkpt lat="35.094737000" lon="-106.392561000">
        <ele>2056.350000</ele>
        <time>2026-05-03T17:14:21Z</time>
      </trkpt>
      <trkpt lat="35.094742000" lon="-106.392572000">
        <ele>2056.960000</ele>
        <time>2026-05-03T17:14:22Z</time>
      </trkpt>
      <trkpt lat="35.094761000" lon="-106.392629000">
        <ele>2057.280000</ele>
        <time>2026-05-03T17:14:27Z</time>
      </trkpt>
      <trkpt lat="35.094789000" lon="-106.392673000">
        <ele>2057.420000</ele>
        <time>2026-05-03T17:14:32Z</time>
      </trkpt>
      <trkpt lat="35.094824000" lon="-106.392697000">
        <ele>2057.690000</ele>
        <time>2026-05-03T17:14:36Z</time>
      </trkpt>
      <trkpt lat="35.094844000" lon="-106.392739000">
        <ele>2056.860000</ele>
        <time>2026-05-03T17:14:39Z</time>
      </trkpt>
      <trkpt lat="35.094850000" lon="-106.392752000">
        <ele>2056.450000</ele>
        <time>2026-05-03T17:14:40Z</time>
      </trkpt>
      <trkpt lat="35.094932000" lon="-106.392853000">
        <ele>2059.010000</ele>
        <time>2026-05-03T17:14:51Z</time>
      </trkpt>
      <trkpt lat="35.094958000" lon="-106.392911000">
        <ele>2058.350000</ele>
        <time>2026-05-03T17:14:56Z</time>
      </trkpt>
      <trkpt lat="35.094965000" lon="-106.392920000">
        <ele>2058.610000</ele>
        <time>2026-05-03T17:14:57Z</time>
      </trkpt>
      <trkpt lat="35.094977000" lon="-106.392955000">
        <ele>2057.040000</ele>
        <time>2026-05-03T17:15:00Z</time>
      </trkpt>
      <trkpt lat="35.095026000" lon="-106.392972000">
        <ele>2052.720000</ele>
        <time>2026-05-03T17:15:06Z</time>
      </trkpt>
      <trkpt lat="35.095031000" lon="-106.393000000">
        <ele>2053.150000</ele>
        <time>2026-05-03T17:15:09Z</time>
      </trkpt>
      <trkpt lat="35.095051000" lon="-106.393006000">
        <ele>2052.440000</ele>
        <time>2026-05-03T17:15:10Z</time>
      </trkpt>
      <trkpt lat="35.095064000" lon="-106.392981000">
        <ele>2052.910000</ele>
        <time>2026-05-03T17:15:11Z</time>
      </trkpt>
      <trkpt lat="35.095067000" lon="-106.392937000">
        <ele>2055.570000</ele>
        <time>2026-05-03T17:15:13Z</time>
      </trkpt>
      <trkpt lat="35.095065000" lon="-106.392909000">
        <ele>2056.400000</ele>
        <time>2026-05-03T17:15:14Z</time>
      </trkpt>
      <trkpt lat="35.095063000" lon="-106.392823000">
        <ele>2058.840000</ele>
        <time>2026-05-03T17:15:19Z</time>
      </trkpt>
      <trkpt lat="35.095000000" lon="-106.392703000">
        <ele>2062.010000</ele>
        <time>2026-05-03T17:15:32Z</time>
      </trkpt>
      <trkpt lat="35.094994000" lon="-106.392693000">
        <ele>2062.250000</ele>
        <time>2026-05-03T17:15:33Z</time>
      </trkpt>
      <trkpt lat="35.094975000" lon="-106.392632000">
        <ele>2064.060000</ele>
        <time>2026-05-03T17:15:39Z</time>
      </trkpt>
      <trkpt lat="35.094984000" lon="-106.392575000">
        <ele>2065.290000</ele>
        <time>2026-05-03T17:15:44Z</time>
      </trkpt>
      <trkpt lat="35.094962000" lon="-106.392487000">
        <ele>2066.710000</ele>
        <time>2026-05-03T17:15:52Z</time>
      </trkpt>
      <trkpt lat="35.094959000" lon="-106.392474000">
        <ele>2065.820000</ele>
        <time>2026-05-03T17:15:53Z</time>
      </trkpt>
      <trkpt lat="35.094932000" lon="-106.392426000">
        <ele>2064.530000</ele>
        <time>2026-05-03T17:15:58Z</time>
      </trkpt>
      <trkpt lat="35.094910000" lon="-106.392425000">
        <ele>2064.750000</ele>
        <time>2026-05-03T17:16:14Z</time>
      </trkpt>
      <trkpt lat="35.094893000" lon="-106.392328000">
        <ele>2064.860000</ele>
        <time>2026-05-03T17:16:19Z</time>
      </trkpt>
      <trkpt lat="35.094891000" lon="-106.392311000">
        <ele>2064.680000</ele>
        <time>2026-05-03T17:16:20Z</time>
      </trkpt>
      <trkpt lat="35.094896000" lon="-106.392218000">
        <ele>2064.160000</ele>
        <time>2026-05-03T17:16:26Z</time>
      </trkpt>
      <trkpt lat="35.094929000" lon="-106.392134000">
        <ele>2064.150000</ele>
        <time>2026-05-03T17:16:31Z</time>
      </trkpt>
      <trkpt lat="35.094935000" lon="-106.392120000">
        <ele>2063.820000</ele>
        <time>2026-05-03T17:16:32Z</time>
      </trkpt>
      <trkpt lat="35.094946000" lon="-106.392077000">
        <ele>2063.280000</ele>
        <time>2026-05-03T17:16:35Z</time>
      </trkpt>
      <trkpt lat="35.094973000" lon="-106.392030000">
        <ele>2062.160000</ele>
        <time>2026-05-03T17:16:39Z</time>
      </trkpt>
      <trkpt lat="35.094983000" lon="-106.391952000">
        <ele>2068.760000</ele>
        <time>2026-05-03T17:16:56Z</time>
      </trkpt>
      <trkpt lat="35.095006000" lon="-106.391923000">
        <ele>2068.360000</ele>
        <time>2026-05-03T17:16:59Z</time>
      </trkpt>
      <trkpt lat="35.095014000" lon="-106.391917000">
        <ele>2067.890000</ele>
        <time>2026-05-03T17:17:00Z</time>
      </trkpt>
      <trkpt lat="35.095046000" lon="-106.391772000">
        <ele>2070.080000</ele>
        <time>2026-05-03T17:18:13Z</time>
      </trkpt>
      <trkpt lat="35.095001000" lon="-106.391755000">
        <ele>2069.730000</ele>
        <time>2026-05-03T17:18:21Z</time>
      </trkpt>
      <trkpt lat="35.095000000" lon="-106.391756000">
        <ele>2069.740000</ele>
        <time>2026-05-03T17:18:22Z</time>
      </trkpt>
      <trkpt lat="35.095045000" lon="-106.391765000">
        <ele>2072.270000</ele>
        <time>2026-05-03T17:21:46Z</time>
      </trkpt>
      <trkpt lat="35.095060000" lon="-106.391798000">
        <ele>2072.780000</ele>
        <time>2026-05-03T17:21:47Z</time>
      </trkpt>
      <trkpt lat="35.095081000" lon="-106.391918000">
        <ele>2071.050000</ele>
        <time>2026-05-03T17:21:55Z</time>
      </trkpt>
      <trkpt lat="35.095082000" lon="-106.391931000">
        <ele>2071.400000</ele>
        <time>2026-05-03T17:21:56Z</time>
      </trkpt>
      <trkpt lat="35.095093000" lon="-106.391984000">
        <ele>2075.350000</ele>
        <time>2026-05-03T17:22:01Z</time>
      </trkpt>
      <trkpt lat="35.095070000" lon="-106.392131000">
        <ele>2074.840000</ele>
        <time>2026-05-03T17:22:11Z</time>
      </trkpt>
      <trkpt lat="35.095071000" lon="-106.392145000">
        <ele>2074.870000</ele>
        <time>2026-05-03T17:22:12Z</time>
      </trkpt>
      <trkpt lat="35.095061000" lon="-106.392292000">
        <ele>2075.350000</ele>
        <time>2026-05-03T17:22:23Z</time>
      </trkpt>
      <trkpt lat="35.095073000" lon="-106.392353000">
        <ele>2076.170000</ele>
        <time>2026-05-03T17:22:28Z</time>
      </trkpt>
      <trkpt lat="35.095076000" lon="-106.392363000">
        <ele>2075.860000</ele>
        <time>2026-05-03T17:22:29Z</time>
      </trkpt>
      <trkpt lat="35.095118000" lon="-106.392467000">
        <ele>2076.530000</ele>
        <time>2026-05-03T17:22:39Z</time>
      </trkpt>
      <trkpt lat="35.095135000" lon="-106.392551000">
        <ele>2076.110000</ele>
        <time>2026-05-03T17:22:44Z</time>
      </trkpt>
      <trkpt lat="35.095136000" lon="-106.392570000">
        <ele>2075.790000</ele>
        <time>2026-05-03T17:22:45Z</time>
      </trkpt>
      <trkpt lat="35.095140000" lon="-106.392582000">
        <ele>2075.850000</ele>
        <time>2026-05-03T17:22:46Z</time>
      </trkpt>
      <trkpt lat="35.095121000" lon="-106.392605000">
        <ele>2077.300000</ele>
        <time>2026-05-03T17:22:49Z</time>
      </trkpt>
      <trkpt lat="35.095100000" lon="-106.392613000">
        <ele>2081.070000</ele>
        <time>2026-05-03T17:22:52Z</time>
      </trkpt>
      <trkpt lat="35.095104000" lon="-106.392586000">
        <ele>2079.740000</ele>
        <time>2026-05-03T17:23:13Z</time>
      </trkpt>
      <trkpt lat="35.095132000" lon="-106.392598000">
        <ele>2079.590000</ele>
        <time>2026-05-03T17:23:14Z</time>
      </trkpt>
      <trkpt lat="35.095167000" lon="-106.392692000">
        <ele>2078.520000</ele>
        <time>2026-05-03T17:23:25Z</time>
      </trkpt>
      <trkpt lat="35.095172000" lon="-106.392700000">
        <ele>2077.830000</ele>
        <time>2026-05-03T17:23:26Z</time>
      </trkpt>
      <trkpt lat="35.095205000" lon="-106.392777000">
        <ele>2077.810000</ele>
        <time>2026-05-03T17:23:33Z</time>
      </trkpt>
      <trkpt lat="35.095196000" lon="-106.392798000">
        <ele>2083.190000</ele>
        <time>2026-05-03T17:23:37Z</time>
      </trkpt>
      <trkpt lat="35.095230000" lon="-106.392840000">
        <ele>2077.010000</ele>
        <time>2026-05-03T17:23:58Z</time>
      </trkpt>
      <trkpt lat="35.095255000" lon="-106.392854000">
        <ele>2071.700000</ele>
        <time>2026-05-03T17:24:05Z</time>
      </trkpt>
      <trkpt lat="35.095255000" lon="-106.392855000">
        <ele>2071.700000</ele>
        <time>2026-05-03T17:24:06Z</time>
      </trkpt>
      <trkpt lat="35.095275000" lon="-106.392865000">
        <ele>2071.250000</ele>
        <time>2026-05-03T17:24:40Z</time>
      </trkpt>
      <trkpt lat="35.095287000" lon="-106.392892000">
        <ele>2072.750000</ele>
        <time>2026-05-03T17:24:59Z</time>
      </trkpt>
      <trkpt lat="35.095287000" lon="-106.392922000">
        <ele>2073.500000</ele>
        <time>2026-05-03T17:25:01Z</time>
      </trkpt>
      <trkpt lat="35.095316000" lon="-106.392970000">
        <ele>2081.140000</ele>
        <time>2026-05-03T17:25:08Z</time>
      </trkpt>
      <trkpt lat="35.095326000" lon="-106.393034000">
        <ele>2081.970000</ele>
        <time>2026-05-03T17:25:12Z</time>
      </trkpt>
      <trkpt lat="35.095327000" lon="-106.393052000">
        <ele>2082.430000</ele>
        <time>2026-05-03T17:25:13Z</time>
      </trkpt>
      <trkpt lat="35.095311000" lon="-106.393182000">
        <ele>2084.480000</ele>
        <time>2026-05-03T17:25:27Z</time>
      </trkpt>
      <trkpt lat="35.095313000" lon="-106.393281000">
        <ele>2081.910000</ele>
        <time>2026-05-03T17:25:35Z</time>
      </trkpt>
      <trkpt lat="35.095314000" lon="-106.393299000">
        <ele>2080.920000</ele>
        <time>2026-05-03T17:25:36Z</time>
      </trkpt>
      <trkpt lat="35.095313000" lon="-106.393513000">
        <ele>2087.640000</ele>
        <time>2026-05-03T17:25:55Z</time>
      </trkpt>
      <trkpt lat="35.095314000" lon="-106.393524000">
        <ele>2087.770000</ele>
        <time>2026-05-03T17:25:56Z</time>
      </trkpt>
      <trkpt lat="35.095321000" lon="-106.393674000">
        <ele>2090.800000</ele>
        <time>2026-05-03T17:26:12Z</time>
      </trkpt>
      <trkpt lat="35.095293000" lon="-106.393730000">
        <ele>2094.380000</ele>
        <time>2026-05-03T17:26:17Z</time>
      </trkpt>
      <trkpt lat="35.095289000" lon="-106.393738000">
        <ele>2091.820000</ele>
        <time>2026-05-03T17:26:18Z</time>
      </trkpt>
      <trkpt lat="35.095238000" lon="-106.393829000">
        <ele>2087.690000</ele>
        <time>2026-05-03T17:26:28Z</time>
      </trkpt>
      <trkpt lat="35.095220000" lon="-106.393907000">
        <ele>2087.370000</ele>
        <time>2026-05-03T17:26:35Z</time>
      </trkpt>
      <trkpt lat="35.095216000" lon="-106.393915000">
        <ele>2087.470000</ele>
        <time>2026-05-03T17:26:36Z</time>
      </trkpt>
      <trkpt lat="35.095192000" lon="-106.393978000">
        <ele>2089.240000</ele>
        <time>2026-05-03T17:26:43Z</time>
      </trkpt>
      <trkpt lat="35.095201000" lon="-106.394064000">
        <ele>2088.540000</ele>
        <time>2026-05-03T17:26:52Z</time>
      </trkpt>
      <trkpt lat="35.095190000" lon="-106.394133000">
        <ele>2090.170000</ele>
        <time>2026-05-03T17:26:59Z</time>
      </trkpt>
      <trkpt lat="35.095191000" lon="-106.394142000">
        <ele>2090.520000</ele>
        <time>2026-05-03T17:27:00Z</time>
      </trkpt>
      <trkpt lat="35.095217000" lon="-106.394199000">
        <ele>2092.390000</ele>
        <time>2026-05-03T17:27:07Z</time>
      </trkpt>
      <trkpt lat="35.095268000" lon="-106.394255000">
        <ele>2094.760000</ele>
        <time>2026-05-03T17:27:33Z</time>
      </trkpt>
      <trkpt lat="35.095291000" lon="-106.394314000">
        <ele>2096.980000</ele>
        <time>2026-05-03T17:27:41Z</time>
      </trkpt>
      <trkpt lat="35.095296000" lon="-106.394318000">
        <ele>2096.480000</ele>
        <time>2026-05-03T17:27:42Z</time>
      </trkpt>
      <trkpt lat="35.095358000" lon="-106.394398000">
        <ele>2101.510000</ele>
        <time>2026-05-03T17:27:54Z</time>
      </trkpt>
      <trkpt lat="35.095423000" lon="-106.394447000">
        <ele>2103.750000</ele>
        <time>2026-05-03T17:28:04Z</time>
      </trkpt>
      <trkpt lat="35.095428000" lon="-106.394453000">
        <ele>2103.200000</ele>
        <time>2026-05-03T17:28:05Z</time>
      </trkpt>
      <trkpt lat="35.095525000" lon="-106.394535000">
        <ele>2105.560000</ele>
        <time>2026-05-03T17:28:17Z</time>
      </trkpt>
      <trkpt lat="35.095549000" lon="-106.394591000">
        <ele>2105.480000</ele>
        <time>2026-05-03T17:28:23Z</time>
      </trkpt>
      <trkpt lat="35.095552000" lon="-106.394605000">
        <ele>2105.860000</ele>
        <time>2026-05-03T17:28:24Z</time>
      </trkpt>
      <trkpt lat="35.095575000" lon="-106.394672000">
        <ele>2105.960000</ele>
        <time>2026-05-03T17:28:29Z</time>
      </trkpt>
      <trkpt lat="35.095610000" lon="-106.394713000">
        <ele>2104.890000</ele>
        <time>2026-05-03T17:28:35Z</time>
      </trkpt>
      <trkpt lat="35.095652000" lon="-106.394784000">
        <ele>2104.360000</ele>
        <time>2026-05-03T17:28:42Z</time>
      </trkpt>
      <trkpt lat="35.095656000" lon="-106.394794000">
        <ele>2104.190000</ele>
        <time>2026-05-03T17:28:43Z</time>
      </trkpt>
      <trkpt lat="35.095698000" lon="-106.394875000">
        <ele>2101.270000</ele>
        <time>2026-05-03T17:28:50Z</time>
      </trkpt>
      <trkpt lat="35.095724000" lon="-106.394876000">
        <ele>2100.060000</ele>
        <time>2026-05-03T17:29:01Z</time>
      </trkpt>
      <trkpt lat="35.095752000" lon="-106.394940000">
        <ele>2095.690000</ele>
        <time>2026-05-03T17:31:46Z</time>
      </trkpt>
      <trkpt lat="35.095755000" lon="-106.394950000">
        <ele>2094.970000</ele>
        <time>2026-05-03T17:31:47Z</time>
      </trkpt>
      <trkpt lat="35.095786000" lon="-106.395027000">
        <ele>2098.080000</ele>
        <time>2026-05-03T17:32:06Z</time>
      </trkpt>
      <trkpt lat="35.095834000" lon="-106.395050000">
        <ele>2098.270000</ele>
        <time>2026-05-03T17:32:26Z</time>
      </trkpt>
      <trkpt lat="35.095850000" lon="-106.395036000">
        <ele>2098.970000</ele>
        <time>2026-05-03T17:32:41Z</time>
      </trkpt>
      <trkpt lat="35.095878000" lon="-106.395035000">
        <ele>2098.550000</ele>
        <time>2026-05-03T17:32:45Z</time>
      </trkpt>
      <trkpt lat="35.095880000" lon="-106.395035000">
        <ele>2099.160000</ele>
        <time>2026-05-03T17:32:46Z</time>
      </trkpt>
      <trkpt lat="35.095897000" lon="-106.395055000">
        <ele>2099.990000</ele>
        <time>2026-05-03T17:32:50Z</time>
      </trkpt>
      <trkpt lat="35.095891000" lon="-106.395111000">
        <ele>2105.180000</ele>
        <time>2026-05-03T17:32:55Z</time>
      </trkpt>
      <trkpt lat="35.095899000" lon="-106.395137000">
        <ele>2107.540000</ele>
        <time>2026-05-03T17:32:59Z</time>
      </trkpt>
      <trkpt lat="35.095862000" lon="-106.395214000">
        <ele>2110.290000</ele>
        <time>2026-05-03T17:33:03Z</time>
      </trkpt>
      <trkpt lat="35.095859000" lon="-106.395230000">
        <ele>2110.100000</ele>
        <time>2026-05-03T17:33:04Z</time>
      </trkpt>
      <trkpt lat="35.095860000" lon="-106.395293000">
        <ele>2112.850000</ele>
        <time>2026-05-03T17:33:09Z</time>
      </trkpt>
      <trkpt lat="35.095900000" lon="-106.395332000">
        <ele>2115.090000</ele>
        <time>2026-05-03T17:33:13Z</time>
      </trkpt>
      <trkpt lat="35.095900000" lon="-106.395363000">
        <ele>2115.980000</ele>
        <time>2026-05-03T17:33:16Z</time>
      </trkpt>
      <trkpt lat="35.095949000" lon="-106.395391000">
        <ele>2119.350000</ele>
        <time>2026-05-03T17:33:27Z</time>
      </trkpt>
      <trkpt lat="35.095955000" lon="-106.395394000">
        <ele>2118.420000</ele>
        <time>2026-05-03T17:33:28Z</time>
      </trkpt>
      <trkpt lat="35.095984000" lon="-106.395412000">
        <ele>2117.530000</ele>
        <time>2026-05-03T17:33:32Z</time>
      </trkpt>
      <trkpt lat="35.095994000" lon="-106.395452000">
        <ele>2117.220000</ele>
        <time>2026-05-03T17:33:36Z</time>
      </trkpt>
      <trkpt lat="35.096025000" lon="-106.395485000">
        <ele>2115.940000</ele>
        <time>2026-05-03T17:33:40Z</time>
      </trkpt>
      <trkpt lat="35.096042000" lon="-106.395559000">
        <ele>2117.350000</ele>
        <time>2026-05-03T17:33:46Z</time>
      </trkpt>
      <trkpt lat="35.096042000" lon="-106.395578000">
        <ele>2118.530000</ele>
        <time>2026-05-03T17:33:47Z</time>
      </trkpt>
      <trkpt lat="35.096046000" lon="-106.395623000">
        <ele>2118.010000</ele>
        <time>2026-05-03T17:33:50Z</time>
      </trkpt>
      <trkpt lat="35.096132000" lon="-106.395725000">
        <ele>2113.420000</ele>
        <time>2026-05-03T17:33:59Z</time>
      </trkpt>
      <trkpt lat="35.096137000" lon="-106.395731000">
        <ele>2112.190000</ele>
        <time>2026-05-03T17:34:00Z</time>
      </trkpt>
      <trkpt lat="35.096195000" lon="-106.395779000">
        <ele>2112.810000</ele>
        <time>2026-05-03T17:34:13Z</time>
      </trkpt>
      <trkpt lat="35.096199000" lon="-106.395892000">
        <ele>2116.040000</ele>
        <time>2026-05-03T17:34:24Z</time>
      </trkpt>
      <trkpt lat="35.096203000" lon="-106.395899000">
        <ele>2116.590000</ele>
        <time>2026-05-03T17:34:25Z</time>
      </trkpt>
      <trkpt lat="35.096246000" lon="-106.395974000">
        <ele>2115.870000</ele>
        <time>2026-05-03T17:34:32Z</time>
      </trkpt>
      <trkpt lat="35.096309000" lon="-106.396024000">
        <ele>2114.390000</ele>
        <time>2026-05-03T17:35:05Z</time>
      </trkpt>
      <trkpt lat="35.096343000" lon="-106.396023000">
        <ele>2114.880000</ele>
        <time>2026-05-03T17:35:11Z</time>
      </trkpt>
      <trkpt lat="35.096357000" lon="-106.396021000">
        <ele>2115.230000</ele>
        <time>2026-05-03T17:35:12Z</time>
      </trkpt>
      <trkpt lat="35.096366000" lon="-106.396031000">
        <ele>2115.590000</ele>
        <time>2026-05-03T17:35:13Z</time>
      </trkpt>
      <trkpt lat="35.096389000" lon="-106.396177000">
        <ele>2114.990000</ele>
        <time>2026-05-03T17:35:22Z</time>
      </trkpt>
      <trkpt lat="35.096419000" lon="-106.396191000">
        <ele>2118.140000</ele>
        <time>2026-05-03T17:35:26Z</time>
      </trkpt>
      <trkpt lat="35.096430000" lon="-106.396195000">
        <ele>2118.450000</ele>
        <time>2026-05-03T17:35:27Z</time>
      </trkpt>
      <trkpt lat="35.096453000" lon="-106.396164000">
        <ele>2118.430000</ele>
        <time>2026-05-03T17:35:30Z</time>
      </trkpt>
      <trkpt lat="35.096479000" lon="-106.396164000">
        <ele>2118.280000</ele>
        <time>2026-05-03T17:35:33Z</time>
      </trkpt>
      <trkpt lat="35.096521000" lon="-106.396142000">
        <ele>2118.680000</ele>
        <time>2026-05-03T17:35:38Z</time>
      </trkpt>
      <trkpt lat="35.096545000" lon="-106.396150000">
        <ele>2120.530000</ele>
        <time>2026-05-03T17:35:40Z</time>
      </trkpt>
      <trkpt lat="35.096575000" lon="-106.396181000">
        <ele>2119.340000</ele>
        <time>2026-05-03T17:35:42Z</time>
      </trkpt>
      <trkpt lat="35.096597000" lon="-106.396187000">
        <ele>2119.350000</ele>
        <time>2026-05-03T17:35:43Z</time>
      </trkpt>
      <trkpt lat="35.096609000" lon="-106.396190000">
        <ele>2120.320000</ele>
        <time>2026-05-03T17:35:44Z</time>
      </trkpt>
      <trkpt lat="35.096618000" lon="-106.396191000">
        <ele>2120.200000</ele>
        <time>2026-05-03T17:35:45Z</time>
      </trkpt>
      <trkpt lat="35.096633000" lon="-106.396241000">
        <ele>2120.500000</ele>
        <time>2026-05-03T17:35:50Z</time>
      </trkpt>
      <trkpt lat="35.096669000" lon="-106.396282000">
        <ele>2123.970000</ele>
        <time>2026-05-03T17:35:59Z</time>
      </trkpt>
      <trkpt lat="35.096739000" lon="-106.396327000">
        <ele>2131.570000</ele>
        <time>2026-05-03T17:36:15Z</time>
      </trkpt>
      <trkpt lat="35.096743000" lon="-106.396334000">
        <ele>2131.420000</ele>
        <time>2026-05-03T17:36:16Z</time>
      </trkpt>
      <trkpt lat="35.096790000" lon="-106.396368000">
        <ele>2132.990000</ele>
        <time>2026-05-03T17:36:24Z</time>
      </trkpt>
      <trkpt lat="35.096913000" lon="-106.396382000">
        <ele>2133.830000</ele>
        <time>2026-05-03T17:36:37Z</time>
      </trkpt>
      <trkpt lat="35.096920000" lon="-106.396385000">
        <ele>2134.750000</ele>
        <time>2026-05-03T17:36:38Z</time>
      </trkpt>
      <trkpt lat="35.096994000" lon="-106.396417000">
        <ele>2133.890000</ele>
        <time>2026-05-03T17:36:48Z</time>
      </trkpt>
      <trkpt lat="35.097045000" lon="-106.396469000">
        <ele>2133.400000</ele>
        <time>2026-05-03T17:36:54Z</time>
      </trkpt>
      <trkpt lat="35.097064000" lon="-106.396510000">
        <ele>2135.540000</ele>
        <time>2026-05-03T17:36:58Z</time>
      </trkpt>
      <trkpt lat="35.097069000" lon="-106.396521000">
        <ele>2136.150000</ele>
        <time>2026-05-03T17:36:59Z</time>
      </trkpt>
      <trkpt lat="35.097101000" lon="-106.396563000">
        <ele>2133.650000</ele>
        <time>2026-05-03T17:37:03Z</time>
      </trkpt>
      <trkpt lat="35.097140000" lon="-106.396577000">
        <ele>2131.850000</ele>
        <time>2026-05-03T17:37:06Z</time>
      </trkpt>
      <trkpt lat="35.097171000" lon="-106.396536000">
        <ele>2128.540000</ele>
        <time>2026-05-03T17:37:37Z</time>
      </trkpt>
      <trkpt lat="35.097194000" lon="-106.396549000">
        <ele>2127.110000</ele>
        <time>2026-05-03T17:38:08Z</time>
      </trkpt>
      <trkpt lat="35.097204000" lon="-106.396534000">
        <ele>2127.770000</ele>
        <time>2026-05-03T17:38:09Z</time>
      </trkpt>
      <trkpt lat="35.097208000" lon="-106.396519000">
        <ele>2127.610000</ele>
        <time>2026-05-03T17:38:10Z</time>
      </trkpt>
      <trkpt lat="35.097218000" lon="-106.396476000">
        <ele>2129.180000</ele>
        <time>2026-05-03T17:38:14Z</time>
      </trkpt>
      <trkpt lat="35.097256000" lon="-106.396444000">
        <ele>2130.520000</ele>
        <time>2026-05-03T17:38:20Z</time>
      </trkpt>
      <trkpt lat="35.097261000" lon="-106.396388000">
        <ele>2129.590000</ele>
        <time>2026-05-03T17:38:25Z</time>
      </trkpt>
      <trkpt lat="35.097252000" lon="-106.396321000">
        <ele>2129.190000</ele>
        <time>2026-05-03T17:38:30Z</time>
      </trkpt>
      <trkpt lat="35.097256000" lon="-106.396310000">
        <ele>2130.380000</ele>
        <time>2026-05-03T17:38:31Z</time>
      </trkpt>
      <trkpt lat="35.097275000" lon="-106.396298000">
        <ele>2131.780000</ele>
        <time>2026-05-03T17:38:34Z</time>
      </trkpt>
      <trkpt lat="35.097301000" lon="-106.396305000">
        <ele>2131.200000</ele>
        <time>2026-05-03T17:38:37Z</time>
      </trkpt>
      <trkpt lat="35.097290000" lon="-106.396461000">
        <ele>2135.880000</ele>
        <time>2026-05-03T17:38:50Z</time>
      </trkpt>
      <trkpt lat="35.097292000" lon="-106.396475000">
        <ele>2135.170000</ele>
        <time>2026-05-03T17:38:51Z</time>
      </trkpt>
      <trkpt lat="35.097291000" lon="-106.396568000">
        <ele>2133.520000</ele>
        <time>2026-05-03T17:38:57Z</time>
      </trkpt>
      <trkpt lat="35.097307000" lon="-106.396672000">
        <ele>2139.160000</ele>
        <time>2026-05-03T17:39:07Z</time>
      </trkpt>
      <trkpt lat="35.097307000" lon="-106.396680000">
        <ele>2140.540000</ele>
        <time>2026-05-03T17:39:08Z</time>
      </trkpt>
      <trkpt lat="35.097332000" lon="-106.396832000">
        <ele>2144.140000</ele>
        <time>2026-05-03T17:39:21Z</time>
      </trkpt>
      <trkpt lat="35.097352000" lon="-106.396861000">
        <ele>2142.980000</ele>
        <time>2026-05-03T17:39:24Z</time>
      </trkpt>
      <trkpt lat="35.097359000" lon="-106.396867000">
        <ele>2141.620000</ele>
        <time>2026-05-03T17:39:25Z</time>
      </trkpt>
      <trkpt lat="35.097372000" lon="-106.396934000">
        <ele>2140.190000</ele>
        <time>2026-05-03T17:39:31Z</time>
      </trkpt>
      <trkpt lat="35.097436000" lon="-106.397075000">
        <ele>2145.350000</ele>
        <time>2026-05-03T17:39:45Z</time>
      </trkpt>
      <trkpt lat="35.097444000" lon="-106.397085000">
        <ele>2145.990000</ele>
        <time>2026-05-03T17:39:46Z</time>
      </trkpt>
      <trkpt lat="35.097494000" lon="-106.397189000">
        <ele>2149.740000</ele>
        <time>2026-05-03T17:39:57Z</time>
      </trkpt>
      <trkpt lat="35.097516000" lon="-106.397204000">
        <ele>2147.360000</ele>
        <time>2026-05-03T17:40:08Z</time>
      </trkpt>
      <trkpt lat="35.097538000" lon="-106.397263000">
        <ele>2138.560000</ele>
        <time>2026-05-03T17:41:50Z</time>
      </trkpt>
      <trkpt lat="35.097538000" lon="-106.397263000">
        <ele>2138.300000</ele>
        <time>2026-05-03T17:41:51Z</time>
      </trkpt>
      <trkpt lat="35.097528000" lon="-106.397197000">
        <ele>2136.590000</ele>
        <time>2026-05-03T17:41:59Z</time>
      </trkpt>
      <trkpt lat="35.097548000" lon="-106.397145000">
        <ele>2138.510000</ele>
        <time>2026-05-03T17:42:06Z</time>
      </trkpt>
      <trkpt lat="35.097535000" lon="-106.397086000">
        <ele>2138.510000</ele>
        <time>2026-05-03T17:42:15Z</time>
      </trkpt>
      <trkpt lat="35.097547000" lon="-106.397052000">
        <ele>2139.270000</ele>
        <time>2026-05-03T17:42:18Z</time>
      </trkpt>
      <trkpt lat="35.097553000" lon="-106.397043000">
        <ele>2139.480000</ele>
        <time>2026-05-03T17:42:19Z</time>
      </trkpt>
      <trkpt lat="35.097580000" lon="-106.397022000">
        <ele>2140.310000</ele>
        <time>2026-05-03T17:42:22Z</time>
      </trkpt>
      <trkpt lat="35.097594000" lon="-106.396995000">
        <ele>2141.540000</ele>
        <time>2026-05-03T17:42:29Z</time>
      </trkpt>
      <trkpt lat="35.097588000" lon="-106.396980000">
        <ele>2142.410000</ele>
        <time>2026-05-03T17:42:31Z</time>
      </trkpt>
      <trkpt lat="35.097630000" lon="-106.396911000">
        <ele>2142.890000</ele>
        <time>2026-05-03T17:42:42Z</time>
      </trkpt>
      <trkpt lat="35.097623000" lon="-106.396947000">
        <ele>2144.360000</ele>
        <time>2026-05-03T17:43:55Z</time>
      </trkpt>
      <trkpt lat="35.097615000" lon="-106.396953000">
        <ele>2143.430000</ele>
        <time>2026-05-03T17:43:56Z</time>
      </trkpt>
      <trkpt lat="35.097613000" lon="-106.396918000">
        <ele>2143.490000</ele>
        <time>2026-05-03T17:44:04Z</time>
      </trkpt>
      <trkpt lat="35.097635000" lon="-106.396905000">
        <ele>2144.380000</ele>
        <time>2026-05-03T17:45:21Z</time>
      </trkpt>
      <trkpt lat="35.097622000" lon="-106.396881000">
        <ele>2146.120000</ele>
        <time>2026-05-03T17:46:11Z</time>
      </trkpt>
      <trkpt lat="35.097638000" lon="-106.396855000">
        <ele>2145.100000</ele>
        <time>2026-05-03T17:46:16Z</time>
      </trkpt>
      <trkpt lat="35.097660000" lon="-106.396867000">
        <ele>2144.900000</ele>
        <time>2026-05-03T17:48:55Z</time>
      </trkpt>
      <trkpt lat="35.097690000" lon="-106.396809000">
        <ele>2144.440000</ele>
        <time>2026-05-03T17:49:11Z</time>
      </trkpt>
      <trkpt lat="35.097692000" lon="-106.396808000">
        <ele>2145.060000</ele>
        <time>2026-05-03T17:49:12Z</time>
      </trkpt>
      <trkpt lat="35.097732000" lon="-106.396763000">
        <ele>2144.460000</ele>
        <time>2026-05-03T17:49:19Z</time>
      </trkpt>
      <trkpt lat="35.097747000" lon="-106.396712000">
        <ele>2150.840000</ele>
        <time>2026-05-03T17:49:31Z</time>
      </trkpt>
      <trkpt lat="35.097769000" lon="-106.396698000">
        <ele>2150.490000</ele>
        <time>2026-05-03T17:49:37Z</time>
      </trkpt>
      <trkpt lat="35.097747000" lon="-106.396690000">
        <ele>2152.770000</ele>
        <time>2026-05-03T17:49:49Z</time>
      </trkpt>
      <trkpt lat="35.097716000" lon="-106.396718000">
        <ele>2154.970000</ele>
        <time>2026-05-03T17:49:52Z</time>
      </trkpt>
      <trkpt lat="35.097719000" lon="-106.396711000">
        <ele>2155.750000</ele>
        <time>2026-05-03T17:49:53Z</time>
      </trkpt>
      <trkpt lat="35.097738000" lon="-106.396674000">
        <ele>2156.290000</ele>
        <time>2026-05-03T17:50:03Z</time>
      </trkpt>
      <trkpt lat="35.097760000" lon="-106.396564000">
        <ele>2156.050000</ele>
        <time>2026-05-03T17:50:24Z</time>
      </trkpt>
      <trkpt lat="35.097789000" lon="-106.396510000">
        <ele>2156.470000</ele>
        <time>2026-05-03T17:50:30Z</time>
      </trkpt>
      <trkpt lat="35.097786000" lon="-106.396512000">
        <ele>2156.480000</ele>
        <time>2026-05-03T17:50:31Z</time>
      </trkpt>
      <trkpt lat="35.097766000" lon="-106.396485000">
        <ele>2158.500000</ele>
        <time>2026-05-03T17:51:07Z</time>
      </trkpt>
      <trkpt lat="35.097824000" lon="-106.396352000">
        <ele>2159.250000</ele>
        <time>2026-05-03T17:51:49Z</time>
      </trkpt>
      <trkpt lat="35.097818000" lon="-106.396357000">
        <ele>2159.010000</ele>
        <time>2026-05-03T17:51:50Z</time>
      </trkpt>
      <trkpt lat="35.097839000" lon="-106.396336000">
        <ele>2162.810000</ele>
        <time>2026-05-03T17:51:55Z</time>
      </trkpt>
      <trkpt lat="35.097914000" lon="-106.396338000">
        <ele>2165.280000</ele>
        <time>2026-05-03T17:52:08Z</time>
      </trkpt>
      <trkpt lat="35.097938000" lon="-106.396353000">
        <ele>2165.630000</ele>
        <time>2026-05-03T17:52:12Z</time>
      </trkpt>
      <trkpt lat="35.097930000" lon="-106.396381000">
        <ele>2165.840000</ele>
        <time>2026-05-03T17:52:21Z</time>
      </trkpt>
      <trkpt lat="35.097938000" lon="-106.396414000">
        <ele>2164.080000</ele>
        <time>2026-05-03T18:02:11Z</time>
      </trkpt>
      <trkpt lat="35.097937000" lon="-106.396413000">
        <ele>2164.730000</ele>
        <time>2026-05-03T18:02:12Z</time>
      </trkpt>
      <trkpt lat="35.097934000" lon="-106.396379000">
        <ele>2164.580000</ele>
        <time>2026-05-03T18:02:31Z</time>
      </trkpt>
      <trkpt lat="35.097973000" lon="-106.396345000">
        <ele>2168.090000</ele>
        <time>2026-05-03T18:02:38Z</time>
      </trkpt>
      <trkpt lat="35.098069000" lon="-106.396376000">
        <ele>2167.480000</ele>
        <time>2026-05-03T18:02:49Z</time>
      </trkpt>
      <trkpt lat="35.098079000" lon="-106.396380000">
        <ele>2168.110000</ele>
        <time>2026-05-03T18:02:50Z</time>
      </trkpt>
      <trkpt lat="35.098138000" lon="-106.396409000">
        <ele>2169.100000</ele>
        <time>2026-05-03T18:02:58Z</time>
      </trkpt>
      <trkpt lat="35.098183000" lon="-106.396419000">
        <ele>2168.970000</ele>
        <time>2026-05-03T18:03:04Z</time>
      </trkpt>
      <trkpt lat="35.098219000" lon="-106.396456000">
        <ele>2171.120000</ele>
        <time>2026-05-03T18:03:10Z</time>
      </trkpt>
      <trkpt lat="35.098226000" lon="-106.396471000">
        <ele>2171.350000</ele>
        <time>2026-05-03T18:03:12Z</time>
      </trkpt>
      <trkpt lat="35.098272000" lon="-106.396471000">
        <ele>2173.850000</ele>
        <time>2026-05-03T18:03:21Z</time>
      </trkpt>
      <trkpt lat="35.098337000" lon="-106.396525000">
        <ele>2175.070000</ele>
        <time>2026-05-03T18:03:36Z</time>
      </trkpt>
      <trkpt lat="35.098384000" lon="-106.396547000">
        <ele>2176.570000</ele>
        <time>2026-05-03T18:03:42Z</time>
      </trkpt>
      <trkpt lat="35.098391000" lon="-106.396552000">
        <ele>2177.020000</ele>
        <time>2026-05-03T18:03:43Z</time>
      </trkpt>
      <trkpt lat="35.098440000" lon="-106.396562000">
        <ele>2177.310000</ele>
        <time>2026-05-03T18:03:49Z</time>
      </trkpt>
      <trkpt lat="35.098519000" lon="-106.396601000">
        <ele>2178.310000</ele>
        <time>2026-05-03T18:03:57Z</time>
      </trkpt>
      <trkpt lat="35.098555000" lon="-106.396604000">
        <ele>2179.700000</ele>
        <time>2026-05-03T18:04:01Z</time>
      </trkpt>
      <trkpt lat="35.098563000" lon="-106.396604000">
        <ele>2179.830000</ele>
        <time>2026-05-03T18:04:02Z</time>
      </trkpt>
      <trkpt lat="35.098589000" lon="-106.396595000">
        <ele>2181.310000</ele>
        <time>2026-05-03T18:04:05Z</time>
      </trkpt>
      <trkpt lat="35.098722000" lon="-106.396619000">
        <ele>2180.860000</ele>
        <time>2026-05-03T18:04:19Z</time>
      </trkpt>
      <trkpt lat="35.098732000" lon="-106.396614000">
        <ele>2180.710000</ele>
        <time>2026-05-03T18:04:20Z</time>
      </trkpt>
      <trkpt lat="35.098760000" lon="-106.396601000">
        <ele>2180.700000</ele>
        <time>2026-05-03T18:04:23Z</time>
      </trkpt>
      <trkpt lat="35.098812000" lon="-106.396597000">
        <ele>2182.720000</ele>
        <time>2026-05-03T18:04:29Z</time>
      </trkpt>
      <trkpt lat="35.098833000" lon="-106.396580000">
        <ele>2181.530000</ele>
        <time>2026-05-03T18:04:32Z</time>
      </trkpt>
      <trkpt lat="35.098881000" lon="-106.396564000">
        <ele>2182.440000</ele>
        <time>2026-05-03T18:04:38Z</time>
      </trkpt>
      <trkpt lat="35.098913000" lon="-106.396563000">
        <ele>2183.150000</ele>
        <time>2026-05-03T18:04:42Z</time>
      </trkpt>
      <trkpt lat="35.098921000" lon="-106.396564000">
        <ele>2184.470000</ele>
        <time>2026-05-03T18:04:43Z</time>
      </trkpt>
      <trkpt lat="35.098999000" lon="-106.396565000">
        <ele>2186.050000</ele>
        <time>2026-05-03T18:04:54Z</time>
      </trkpt>
      <trkpt lat="35.099044000" lon="-106.396575000">
        <ele>2186.040000</ele>
        <time>2026-05-03T18:05:00Z</time>
      </trkpt>
      <trkpt lat="35.099094000" lon="-106.396566000">
        <ele>2185.230000</ele>
        <time>2026-05-03T18:05:06Z</time>
      </trkpt>
      <trkpt lat="35.099102000" lon="-106.396561000">
        <ele>2184.720000</ele>
        <time>2026-05-03T18:05:07Z</time>
      </trkpt>
      <trkpt lat="35.099274000" lon="-106.396502000">
        <ele>2182.430000</ele>
        <time>2026-05-03T18:05:25Z</time>
      </trkpt>
      <trkpt lat="35.099284000" lon="-106.396498000">
        <ele>2182.630000</ele>
        <time>2026-05-03T18:05:26Z</time>
      </trkpt>
      <trkpt lat="35.099364000" lon="-106.396441000">
        <ele>2185.920000</ele>
        <time>2026-05-03T18:05:38Z</time>
      </trkpt>
      <trkpt lat="35.099439000" lon="-106.396405000">
        <ele>2184.750000</ele>
        <time>2026-05-03T18:05:48Z</time>
      </trkpt>
      <trkpt lat="35.099450000" lon="-106.396399000">
        <ele>2184.020000</ele>
        <time>2026-05-03T18:05:49Z</time>
      </trkpt>
      <trkpt lat="35.099523000" lon="-106.396356000">
        <ele>2184.150000</ele>
        <time>2026-05-03T18:05:58Z</time>
      </trkpt>
      <trkpt lat="35.099620000" lon="-106.396327000">
        <ele>2185.890000</ele>
        <time>2026-05-03T18:06:10Z</time>
      </trkpt>
      <trkpt lat="35.099628000" lon="-106.396326000">
        <ele>2186.090000</ele>
        <time>2026-05-03T18:06:11Z</time>
      </trkpt>
      <trkpt lat="35.099735000" lon="-106.396294000">
        <ele>2187.450000</ele>
        <time>2026-05-03T18:06:24Z</time>
      </trkpt>
      <trkpt lat="35.099784000" lon="-106.396309000">
        <ele>2188.630000</ele>
        <time>2026-05-03T18:06:31Z</time>
      </trkpt>
      <trkpt lat="35.099789000" lon="-106.396312000">
        <ele>2189.410000</ele>
        <time>2026-05-03T18:06:32Z</time>
      </trkpt>
      <trkpt lat="35.099869000" lon="-106.396379000">
        <ele>2189.390000</ele>
        <time>2026-05-03T18:06:49Z</time>
      </trkpt>
      <trkpt lat="35.099939000" lon="-106.396412000">
        <ele>2190.930000</ele>
        <time>2026-05-03T18:07:00Z</time>
      </trkpt>
      <trkpt lat="35.099948000" lon="-106.396417000">
        <ele>2191.430000</ele>
        <time>2026-05-03T18:07:01Z</time>
      </trkpt>
      <trkpt lat="35.100008000" lon="-106.396452000">
        <ele>2192.820000</ele>
        <time>2026-05-03T18:07:08Z</time>
      </trkpt>
      <trkpt lat="35.100106000" lon="-106.396488000">
        <ele>2193.880000</ele>
        <time>2026-05-03T18:07:22Z</time>
      </trkpt>
      <trkpt lat="35.100116000" lon="-106.396490000">
        <ele>2194.210000</ele>
        <time>2026-05-03T18:07:23Z</time>
      </trkpt>
      <trkpt lat="35.100292000" lon="-106.396547000">
        <ele>2196.140000</ele>
        <time>2026-05-03T18:07:53Z</time>
      </trkpt>
      <trkpt lat="35.100302000" lon="-106.396544000">
        <ele>2196.040000</ele>
        <time>2026-05-03T18:07:54Z</time>
      </trkpt>
      <trkpt lat="35.100378000" lon="-106.396533000">
        <ele>2201.650000</ele>
        <time>2026-05-03T18:08:49Z</time>
      </trkpt>
      <trkpt lat="35.100385000" lon="-106.396548000">
        <ele>2201.830000</ele>
        <time>2026-05-03T18:12:21Z</time>
      </trkpt>
      <trkpt lat="35.100908000" lon="-106.396709000">
        <ele>2209.200000</ele>
        <time>2026-05-03T18:18:44Z</time>
      </trkpt>
      <trkpt lat="35.100949000" lon="-106.396749000">
        <ele>2211.210000</ele>
        <time>2026-05-03T18:18:54Z</time>
      </trkpt>
      <trkpt lat="35.100955000" lon="-106.396757000">
        <ele>2210.690000</ele>
        <time>2026-05-03T18:18:55Z</time>
      </trkpt>
      <trkpt lat="35.101010000" lon="-106.396852000">
        <ele>2208.810000</ele>
        <time>2026-05-03T18:19:08Z</time>
      </trkpt>
      <trkpt lat="35.101035000" lon="-106.396943000">
        <ele>2207.220000</ele>
        <time>2026-05-03T18:19:19Z</time>
      </trkpt>
      <trkpt lat="35.101039000" lon="-106.396949000">
        <ele>2207.600000</ele>
        <time>2026-05-03T18:19:20Z</time>
      </trkpt>
      <trkpt lat="35.101090000" lon="-106.397011000">
        <ele>2209.250000</ele>
        <time>2026-05-03T18:19:31Z</time>
      </trkpt>
      <trkpt lat="35.101136000" lon="-106.397116000">
        <ele>2207.570000</ele>
        <time>2026-05-03T18:21:27Z</time>
      </trkpt>
      <trkpt lat="35.101143000" lon="-106.397123000">
        <ele>2208.050000</ele>
        <time>2026-05-03T18:21:28Z</time>
      </trkpt>
      <trkpt lat="35.101136000" lon="-106.397134000">
        <ele>2208.090000</ele>
        <time>2026-05-03T18:23:41Z</time>
      </trkpt>
      <trkpt lat="35.103768000" lon="-106.397654000">
        <ele>2230.180000</ele>
        <time>2026-05-03T18:47:58Z</time>
      </trkpt>
      <trkpt lat="35.103755000" lon="-106.397664000">
        <ele>2227.460000</ele>
        <time>2026-05-03T18:51:19Z</time>
      </trkpt>
      <trkpt lat="35.103661000" lon="-106.397651000">
        <ele>2224.420000</ele>
        <time>2026-05-03T18:51:29Z</time>
      </trkpt>
      <trkpt lat="35.103648000" lon="-106.397645000">
        <ele>2224.460000</ele>
        <time>2026-05-03T18:51:30Z</time>
      </trkpt>
      <trkpt lat="35.103635000" lon="-106.397640000">
        <ele>2224.710000</ele>
        <time>2026-05-03T18:51:31Z</time>
      </trkpt>
      <trkpt lat="35.103658000" lon="-106.397634000">
        <ele>2222.500000</ele>
        <time>2026-05-03T18:52:04Z</time>
      </trkpt>
      <trkpt lat="35.103668000" lon="-106.397661000">
        <ele>2220.890000</ele>
        <time>2026-05-03T18:52:07Z</time>
      </trkpt>
      <trkpt lat="35.103731000" lon="-106.397631000">
        <ele>2227.200000</ele>
        <time>2026-05-03T18:52:18Z</time>
      </trkpt>
      <trkpt lat="35.103772000" lon="-106.397641000">
        <ele>2228.220000</ele>
        <time>2026-05-03T18:52:24Z</time>
      </trkpt>
      <trkpt lat="35.103778000" lon="-106.397651000">
        <ele>2228.200000</ele>
        <time>2026-05-03T18:52:25Z</time>
      </trkpt>
      <trkpt lat="35.103781000" lon="-106.397662000">
        <ele>2228.180000</ele>
        <time>2026-05-03T18:52:26Z</time>
      </trkpt>
      <trkpt lat="35.103791000" lon="-106.397744000">
        <ele>2228.430000</ele>
        <time>2026-05-03T18:52:34Z</time>
      </trkpt>
      <trkpt lat="35.103837000" lon="-106.397813000">
        <ele>2226.030000</ele>
        <time>2026-05-03T18:52:42Z</time>
      </trkpt>
      <trkpt lat="35.103856000" lon="-106.397829000">
        <ele>2228.390000</ele>
        <time>2026-05-03T18:52:46Z</time>
      </trkpt>
      <trkpt lat="35.103862000" lon="-106.397870000">
        <ele>2228.460000</ele>
        <time>2026-05-03T18:52:50Z</time>
      </trkpt>
      <trkpt lat="35.103868000" lon="-106.397879000">
        <ele>2228.170000</ele>
        <time>2026-05-03T18:52:51Z</time>
      </trkpt>
      <trkpt lat="35.103866000" lon="-106.397979000">
        <ele>2229.200000</ele>
        <time>2026-05-03T18:53:00Z</time>
      </trkpt>
      <trkpt lat="35.103892000" lon="-106.398030000">
        <ele>2230.390000</ele>
        <time>2026-05-03T18:53:07Z</time>
      </trkpt>
      <trkpt lat="35.103885000" lon="-106.398069000">
        <ele>2231.610000</ele>
        <time>2026-05-03T18:53:12Z</time>
      </trkpt>
      <trkpt lat="35.103881000" lon="-106.398077000">
        <ele>2231.370000</ele>
        <time>2026-05-03T18:53:13Z</time>
      </trkpt>
      <trkpt lat="35.103871000" lon="-106.398162000">
        <ele>2228.450000</ele>
        <time>2026-05-03T18:53:20Z</time>
      </trkpt>
      <trkpt lat="35.103891000" lon="-106.398208000">
        <ele>2233.140000</ele>
        <time>2026-05-03T18:53:26Z</time>
      </trkpt>
      <trkpt lat="35.103892000" lon="-106.398271000">
        <ele>2231.390000</ele>
        <time>2026-05-03T18:53:32Z</time>
      </trkpt>
      <trkpt lat="35.103892000" lon="-106.398283000">
        <ele>2231.210000</ele>
        <time>2026-05-03T18:53:33Z</time>
      </trkpt>
      <trkpt lat="35.103914000" lon="-106.398369000">
        <ele>2232.840000</ele>
        <time>2026-05-03T18:53:46Z</time>
      </trkpt>
      <trkpt lat="35.103912000" lon="-106.398400000">
        <ele>2232.550000</ele>
        <time>2026-05-03T18:53:49Z</time>
      </trkpt>
      <trkpt lat="35.103940000" lon="-106.398488000">
        <ele>2235.300000</ele>
        <time>2026-05-03T18:54:04Z</time>
      </trkpt>
      <trkpt lat="35.103946000" lon="-106.398495000">
        <ele>2235.290000</ele>
        <time>2026-05-03T18:54:05Z</time>
      </trkpt>
      <trkpt lat="35.104015000" lon="-106.398623000">
        <ele>2243.530000</ele>
        <time>2026-05-03T18:54:23Z</time>
      </trkpt>
      <trkpt lat="35.104060000" lon="-106.398656000">
        <ele>2244.900000</ele>
        <time>2026-05-03T18:54:30Z</time>
      </trkpt>
      <trkpt lat="35.104067000" lon="-106.398661000">
        <ele>2245.010000</ele>
        <time>2026-05-03T18:54:31Z</time>
      </trkpt>
      <trkpt lat="35.104122000" lon="-106.398735000">
        <ele>2243.230000</ele>
        <time>2026-05-03T18:54:40Z</time>
      </trkpt>
      <trkpt lat="35.104202000" lon="-106.398816000">
        <ele>2244.510000</ele>
        <time>2026-05-03T18:54:53Z</time>
      </trkpt>
      <trkpt lat="35.104210000" lon="-106.398830000">
        <ele>2244.400000</ele>
        <time>2026-05-03T18:54:54Z</time>
      </trkpt>
      <trkpt lat="35.104319000" lon="-106.399001000">
        <ele>2245.680000</ele>
        <time>2026-05-03T18:55:14Z</time>
      </trkpt>
      <trkpt lat="35.104326000" lon="-106.399012000">
        <ele>2244.840000</ele>
        <time>2026-05-03T18:55:15Z</time>
      </trkpt>
      <trkpt lat="35.104366000" lon="-106.399055000">
        <ele>2245.640000</ele>
        <time>2026-05-03T18:55:21Z</time>
      </trkpt>
      <trkpt lat="35.104372000" lon="-106.399086000">
        <ele>2246.100000</ele>
        <time>2026-05-03T18:55:25Z</time>
      </trkpt>
      <trkpt lat="35.104394000" lon="-106.399096000">
        <ele>2246.250000</ele>
        <time>2026-05-03T18:55:38Z</time>
      </trkpt>
      <trkpt lat="35.104428000" lon="-106.399137000">
        <ele>2246.230000</ele>
        <time>2026-05-03T18:55:44Z</time>
      </trkpt>
      <trkpt lat="35.104452000" lon="-106.399150000">
        <ele>2245.420000</ele>
        <time>2026-05-03T18:55:48Z</time>
      </trkpt>
      <trkpt lat="35.104464000" lon="-106.399143000">
        <ele>2245.640000</ele>
        <time>2026-05-03T18:55:50Z</time>
      </trkpt>
      <trkpt lat="35.104492000" lon="-106.399134000">
        <ele>2247.260000</ele>
        <time>2026-05-03T18:55:54Z</time>
      </trkpt>
      <trkpt lat="35.104565000" lon="-106.399211000">
        <ele>2247.840000</ele>
        <time>2026-05-03T18:56:06Z</time>
      </trkpt>
      <trkpt lat="35.104610000" lon="-106.399242000">
        <ele>2250.420000</ele>
        <time>2026-05-03T18:56:12Z</time>
      </trkpt>
      <trkpt lat="35.104619000" lon="-106.399245000">
        <ele>2251.580000</ele>
        <time>2026-05-03T18:56:13Z</time>
      </trkpt>
      <trkpt lat="35.104644000" lon="-106.399266000">
        <ele>2252.000000</ele>
        <time>2026-05-03T18:56:16Z</time>
      </trkpt>
      <trkpt lat="35.104706000" lon="-106.399293000">
        <ele>2253.650000</ele>
        <time>2026-05-03T18:56:24Z</time>
      </trkpt>
      <trkpt lat="35.104759000" lon="-106.399350000">
        <ele>2255.130000</ele>
        <time>2026-05-03T18:56:32Z</time>
      </trkpt>
      <trkpt lat="35.104765000" lon="-106.399356000">
        <ele>2255.040000</ele>
        <time>2026-05-03T18:56:33Z</time>
      </trkpt>
      <trkpt lat="35.104823000" lon="-106.399361000">
        <ele>2253.400000</ele>
        <time>2026-05-03T18:56:40Z</time>
      </trkpt>
      <trkpt lat="35.104861000" lon="-106.399319000">
        <ele>2250.460000</ele>
        <time>2026-05-03T18:57:02Z</time>
      </trkpt>
      <trkpt lat="35.104861000" lon="-106.399226000">
        <ele>2251.050000</ele>
        <time>2026-05-03T18:57:15Z</time>
      </trkpt>
      <trkpt lat="35.104868000" lon="-106.399216000">
        <ele>2250.380000</ele>
        <time>2026-05-03T18:57:17Z</time>
      </trkpt>
      <trkpt lat="35.104850000" lon="-106.399201000">
        <ele>2252.560000</ele>
        <time>2026-05-03T19:06:52Z</time>
      </trkpt>
      <trkpt lat="35.104849000" lon="-106.399148000">
        <ele>2254.130000</ele>
        <time>2026-05-03T19:13:53Z</time>
      </trkpt>
      <trkpt lat="35.104868000" lon="-106.399033000">
        <ele>2252.300000</ele>
        <time>2026-05-03T19:14:04Z</time>
      </trkpt>
      <trkpt lat="35.104866000" lon="-106.399024000">
        <ele>2251.780000</ele>
        <time>2026-05-03T19:14:05Z</time>
      </trkpt>
      <trkpt lat="35.104855000" lon="-106.398966000">
        <ele>2251.320000</ele>
        <time>2026-05-03T19:14:10Z</time>
      </trkpt>
      <trkpt lat="35.104885000" lon="-106.398894000">
        <ele>2250.340000</ele>
        <time>2026-05-03T19:14:17Z</time>
      </trkpt>
      <trkpt lat="35.104923000" lon="-106.398849000">
        <ele>2250.740000</ele>
        <time>2026-05-03T19:14:22Z</time>
      </trkpt>
      <trkpt lat="35.104930000" lon="-106.398841000">
        <ele>2251.260000</ele>
        <time>2026-05-03T19:14:23Z</time>
      </trkpt>
      <trkpt lat="35.105039000" lon="-106.398682000">
        <ele>2251.400000</ele>
        <time>2026-05-03T19:14:39Z</time>
      </trkpt>
      <trkpt lat="35.105044000" lon="-106.398674000">
        <ele>2251.210000</ele>
        <time>2026-05-03T19:14:40Z</time>
      </trkpt>
      <trkpt lat="35.105090000" lon="-106.398650000">
        <ele>2250.450000</ele>
        <time>2026-05-03T19:14:45Z</time>
      </trkpt>
      <trkpt lat="35.105201000" lon="-106.398644000">
        <ele>2251.040000</ele>
        <time>2026-05-03T19:14:56Z</time>
      </trkpt>
      <trkpt lat="35.105210000" lon="-106.398643000">
        <ele>2251.020000</ele>
        <time>2026-05-03T19:14:57Z</time>
      </trkpt>
      <trkpt lat="35.105264000" lon="-106.398648000">
        <ele>2250.630000</ele>
        <time>2026-05-03T19:15:03Z</time>
      </trkpt>
      <trkpt lat="35.105363000" lon="-106.398639000">
        <ele>2251.600000</ele>
        <time>2026-05-03T19:15:15Z</time>
      </trkpt>
      <trkpt lat="35.105387000" lon="-106.398656000">
        <ele>2250.920000</ele>
        <time>2026-05-03T19:15:18Z</time>
      </trkpt>
      <trkpt lat="35.105395000" lon="-106.398663000">
        <ele>2251.320000</ele>
        <time>2026-05-03T19:15:19Z</time>
      </trkpt>
      <trkpt lat="35.105440000" lon="-106.398673000">
        <ele>2250.800000</ele>
        <time>2026-05-03T19:15:24Z</time>
      </trkpt>
      <trkpt lat="35.105484000" lon="-106.398657000">
        <ele>2250.180000</ele>
        <time>2026-05-03T19:15:29Z</time>
      </trkpt>
      <trkpt lat="35.105526000" lon="-106.398599000">
        <ele>2251.130000</ele>
        <time>2026-05-03T19:15:36Z</time>
      </trkpt>
      <trkpt lat="35.105533000" lon="-106.398590000">
        <ele>2251.720000</ele>
        <time>2026-05-03T19:15:37Z</time>
      </trkpt>
      <trkpt lat="35.105624000" lon="-106.398453000">
        <ele>2253.230000</ele>
        <time>2026-05-03T19:15:51Z</time>
      </trkpt>
      <trkpt lat="35.105653000" lon="-106.398432000">
        <ele>2253.010000</ele>
        <time>2026-05-03T19:15:55Z</time>
      </trkpt>
      <trkpt lat="35.105660000" lon="-106.398425000">
        <ele>2253.050000</ele>
        <time>2026-05-03T19:15:56Z</time>
      </trkpt>
      <trkpt lat="35.105695000" lon="-106.398379000">
        <ele>2255.250000</ele>
        <time>2026-05-03T19:16:01Z</time>
      </trkpt>
      <trkpt lat="35.105716000" lon="-106.398366000">
        <ele>2255.290000</ele>
        <time>2026-05-03T19:16:03Z</time>
      </trkpt>
      <trkpt lat="35.105771000" lon="-106.398336000">
        <ele>2253.870000</ele>
        <time>2026-05-03T19:16:09Z</time>
      </trkpt>
      <trkpt lat="35.105800000" lon="-106.398341000">
        <ele>2253.280000</ele>
        <time>2026-05-03T19:16:12Z</time>
      </trkpt>
      <trkpt lat="35.105811000" lon="-106.398338000">
        <ele>2252.530000</ele>
        <time>2026-05-03T19:16:13Z</time>
      </trkpt>
      <trkpt lat="35.105809000" lon="-106.398311000">
        <ele>2253.900000</ele>
        <time>2026-05-03T19:16:20Z</time>
      </trkpt>
      <trkpt lat="35.105918000" lon="-106.398221000">
        <ele>2256.810000</ele>
        <time>2026-05-03T19:16:33Z</time>
      </trkpt>
      <trkpt lat="35.105926000" lon="-106.398213000">
        <ele>2256.810000</ele>
        <time>2026-05-03T19:16:34Z</time>
      </trkpt>
      <trkpt lat="35.106045000" lon="-106.398091000">
        <ele>2258.920000</ele>
        <time>2026-05-03T19:16:50Z</time>
      </trkpt>
      <trkpt lat="35.106050000" lon="-106.398083000">
        <ele>2259.960000</ele>
        <time>2026-05-03T19:16:51Z</time>
      </trkpt>
      <trkpt lat="35.106085000" lon="-106.398013000">
        <ele>2261.180000</ele>
        <time>2026-05-03T19:16:58Z</time>
      </trkpt>
      <trkpt lat="35.106113000" lon="-106.397888000">
        <ele>2261.420000</ele>
        <time>2026-05-03T19:17:09Z</time>
      </trkpt>
      <trkpt lat="35.106117000" lon="-106.397876000">
        <ele>2260.680000</ele>
        <time>2026-05-03T19:17:10Z</time>
      </trkpt>
      <trkpt lat="35.106123000" lon="-106.397804000">
        <ele>2259.620000</ele>
        <time>2026-05-03T19:17:17Z</time>
      </trkpt>
      <trkpt lat="35.106094000" lon="-106.397734000">
        <ele>2259.130000</ele>
        <time>2026-05-03T19:17:24Z</time>
      </trkpt>
      <trkpt lat="35.106080000" lon="-106.397665000">
        <ele>2256.220000</ele>
        <time>2026-05-03T19:17:30Z</time>
      </trkpt>
      <trkpt lat="35.106077000" lon="-106.397650000">
        <ele>2255.270000</ele>
        <time>2026-05-03T19:17:31Z</time>
      </trkpt>
      <trkpt lat="35.106070000" lon="-106.397536000">
        <ele>2253.960000</ele>
        <time>2026-05-03T19:17:40Z</time>
      </trkpt>
      <trkpt lat="35.106083000" lon="-106.397477000">
        <ele>2253.600000</ele>
        <time>2026-05-03T19:17:44Z</time>
      </trkpt>
      <trkpt lat="35.106109000" lon="-106.397442000">
        <ele>2252.860000</ele>
        <time>2026-05-03T19:17:47Z</time>
      </trkpt>
      <trkpt lat="35.106118000" lon="-106.397434000">
        <ele>2252.780000</ele>
        <time>2026-05-03T19:17:48Z</time>
      </trkpt>
      <trkpt lat="35.106251000" lon="-106.397336000">
        <ele>2252.080000</ele>
        <time>2026-05-03T19:18:08Z</time>
      </trkpt>
      <trkpt lat="35.106258000" lon="-106.397330000">
        <ele>2252.210000</ele>
        <time>2026-05-03T19:18:09Z</time>
      </trkpt>
      <trkpt lat="35.106322000" lon="-106.397285000">
        <ele>2254.930000</ele>
        <time>2026-05-03T19:18:20Z</time>
      </trkpt>
      <trkpt lat="35.106424000" lon="-106.397270000">
        <ele>2258.970000</ele>
        <time>2026-05-03T19:18:34Z</time>
      </trkpt>
      <trkpt lat="35.106434000" lon="-106.397267000">
        <ele>2258.990000</ele>
        <time>2026-05-03T19:18:35Z</time>
      </trkpt>
      <trkpt lat="35.106466000" lon="-106.397267000">
        <ele>2260.010000</ele>
        <time>2026-05-03T19:18:39Z</time>
      </trkpt>
      <trkpt lat="35.106588000" lon="-106.397298000">
        <ele>2263.080000</ele>
        <time>2026-05-03T19:18:53Z</time>
      </trkpt>
      <trkpt lat="35.106597000" lon="-106.397299000">
        <ele>2263.250000</ele>
        <time>2026-05-03T19:18:54Z</time>
      </trkpt>
      <trkpt lat="35.106773000" lon="-106.397336000">
        <ele>2267.900000</ele>
        <time>2026-05-03T19:19:14Z</time>
      </trkpt>
      <trkpt lat="35.106782000" lon="-106.397341000">
        <ele>2268.710000</ele>
        <time>2026-05-03T19:19:15Z</time>
      </trkpt>
      <trkpt lat="35.106809000" lon="-106.397353000">
        <ele>2269.320000</ele>
        <time>2026-05-03T19:19:18Z</time>
      </trkpt>
      <trkpt lat="35.106850000" lon="-106.397348000">
        <ele>2270.340000</ele>
        <time>2026-05-03T19:19:23Z</time>
      </trkpt>
      <trkpt lat="35.106872000" lon="-106.397362000">
        <ele>2268.160000</ele>
        <time>2026-05-03T19:19:26Z</time>
      </trkpt>
      <trkpt lat="35.106948000" lon="-106.397362000">
        <ele>2268.470000</ele>
        <time>2026-05-03T19:19:35Z</time>
      </trkpt>
      <trkpt lat="35.106956000" lon="-106.397364000">
        <ele>2268.500000</ele>
        <time>2026-05-03T19:19:36Z</time>
      </trkpt>
      <trkpt lat="35.106984000" lon="-106.397370000">
        <ele>2268.920000</ele>
        <time>2026-05-03T19:19:40Z</time>
      </trkpt>
      <trkpt lat="35.107047000" lon="-106.397355000">
        <ele>2269.380000</ele>
        <time>2026-05-03T19:19:48Z</time>
      </trkpt>
      <trkpt lat="35.107068000" lon="-106.397371000">
        <ele>2268.720000</ele>
        <time>2026-05-03T19:19:53Z</time>
      </trkpt>
      <trkpt lat="35.107093000" lon="-106.397366000">
        <ele>2268.140000</ele>
        <time>2026-05-03T19:19:56Z</time>
      </trkpt>
      <trkpt lat="35.107104000" lon="-106.397346000">
        <ele>2269.680000</ele>
        <time>2026-05-03T19:20:00Z</time>
      </trkpt>
      <trkpt lat="35.107115000" lon="-106.397345000">
        <ele>2269.670000</ele>
        <time>2026-05-03T19:20:01Z</time>
      </trkpt>
      <trkpt lat="35.107122000" lon="-106.397349000">
        <ele>2269.500000</ele>
        <time>2026-05-03T19:20:02Z</time>
      </trkpt>
      <trkpt lat="35.107142000" lon="-106.397374000">
        <ele>2271.850000</ele>
        <time>2026-05-03T19:20:07Z</time>
      </trkpt>
      <trkpt lat="35.107166000" lon="-106.397385000">
        <ele>2273.200000</ele>
        <time>2026-05-03T19:20:11Z</time>
      </trkpt>
      <trkpt lat="35.107208000" lon="-106.397382000">
        <ele>2274.940000</ele>
        <time>2026-05-03T19:20:18Z</time>
      </trkpt>
      <trkpt lat="35.107286000" lon="-106.397408000">
        <ele>2276.510000</ele>
        <time>2026-05-03T19:20:27Z</time>
      </trkpt>
      <trkpt lat="35.107297000" lon="-106.397410000">
        <ele>2276.330000</ele>
        <time>2026-05-03T19:20:28Z</time>
      </trkpt>
      <trkpt lat="35.107327000" lon="-106.397412000">
        <ele>2271.440000</ele>
        <time>2026-05-03T19:20:55Z</time>
      </trkpt>
      <trkpt lat="35.107345000" lon="-106.397390000">
        <ele>2267.920000</ele>
        <time>2026-05-03T19:23:04Z</time>
      </trkpt>
      <trkpt lat="35.107393000" lon="-106.397379000">
        <ele>2268.480000</ele>
        <time>2026-05-03T19:23:10Z</time>
      </trkpt>
      <trkpt lat="35.107413000" lon="-106.397362000">
        <ele>2268.650000</ele>
        <time>2026-05-03T19:23:12Z</time>
      </trkpt>
      <trkpt lat="35.107426000" lon="-106.397387000">
        <ele>2270.380000</ele>
        <time>2026-05-03T19:23:21Z</time>
      </trkpt>
      <trkpt lat="35.107461000" lon="-106.397391000">
        <ele>2270.770000</ele>
        <time>2026-05-03T19:23:25Z</time>
      </trkpt>
      <trkpt lat="35.107469000" lon="-106.397382000">
        <ele>2270.970000</ele>
        <time>2026-05-03T19:23:26Z</time>
      </trkpt>
      <trkpt lat="35.107492000" lon="-106.397350000">
        <ele>2273.030000</ele>
        <time>2026-05-03T19:23:31Z</time>
      </trkpt>
      <trkpt lat="35.107623000" lon="-106.397281000">
        <ele>2278.260000</ele>
        <time>2026-05-03T19:23:48Z</time>
      </trkpt>
      <trkpt lat="35.107631000" lon="-106.397278000">
        <ele>2278.310000</ele>
        <time>2026-05-03T19:23:49Z</time>
      </trkpt>
      <trkpt lat="35.107729000" lon="-106.397263000">
        <ele>2276.290000</ele>
        <time>2026-05-03T19:23:58Z</time>
      </trkpt>
      <trkpt lat="35.107792000" lon="-106.397295000">
        <ele>2276.530000</ele>
        <time>2026-05-03T19:24:04Z</time>
      </trkpt>
      <trkpt lat="35.107803000" lon="-106.397295000">
        <ele>2277.150000</ele>
        <time>2026-05-03T19:24:05Z</time>
      </trkpt>
      <trkpt lat="35.107833000" lon="-106.397283000">
        <ele>2277.520000</ele>
        <time>2026-05-03T19:24:08Z</time>
      </trkpt>
      <trkpt lat="35.107859000" lon="-106.397290000">
        <ele>2277.460000</ele>
        <time>2026-05-03T19:24:11Z</time>
      </trkpt>
      <trkpt lat="35.107918000" lon="-106.397262000">
        <ele>2277.460000</ele>
        <time>2026-05-03T19:24:18Z</time>
      </trkpt>
      <trkpt lat="35.107968000" lon="-106.397257000">
        <ele>2277.030000</ele>
        <time>2026-05-03T19:24:23Z</time>
      </trkpt>
      <trkpt lat="35.107978000" lon="-106.397253000">
        <ele>2276.370000</ele>
        <time>2026-05-03T19:24:24Z</time>
      </trkpt>
      <trkpt lat="35.108066000" lon="-106.397237000">
        <ele>2276.030000</ele>
        <time>2026-05-03T19:24:33Z</time>
      </trkpt>
      <trkpt lat="35.108135000" lon="-106.397244000">
        <ele>2274.890000</ele>
        <time>2026-05-03T19:24:40Z</time>
      </trkpt>
      <trkpt lat="35.108144000" lon="-106.397242000">
        <ele>2275.560000</ele>
        <time>2026-05-03T19:24:41Z</time>
      </trkpt>
      <trkpt lat="35.108174000" lon="-106.397237000">
        <ele>2274.280000</ele>
        <time>2026-05-03T19:24:44Z</time>
      </trkpt>
      <trkpt lat="35.108267000" lon="-106.397253000">
        <ele>2275.320000</ele>
        <time>2026-05-03T19:24:55Z</time>
      </trkpt>
      <trkpt lat="35.108290000" lon="-106.397240000">
        <ele>2273.810000</ele>
        <time>2026-05-03T19:24:58Z</time>
      </trkpt>
      <trkpt lat="35.108324000" lon="-106.397238000">
        <ele>2273.610000</ele>
        <time>2026-05-03T19:25:02Z</time>
      </trkpt>
      <trkpt lat="35.108331000" lon="-106.397239000">
        <ele>2273.970000</ele>
        <time>2026-05-03T19:25:03Z</time>
      </trkpt>
      <trkpt lat="35.108365000" lon="-106.397240000">
        <ele>2273.800000</ele>
        <time>2026-05-03T19:25:11Z</time>
      </trkpt>
      <trkpt lat="35.108381000" lon="-106.397255000">
        <ele>2274.150000</ele>
        <time>2026-05-03T19:25:13Z</time>
      </trkpt>
      <trkpt lat="35.108425000" lon="-106.397252000">
        <ele>2276.760000</ele>
        <time>2026-05-03T19:25:18Z</time>
      </trkpt>
      <trkpt lat="35.108442000" lon="-106.397266000">
        <ele>2275.890000</ele>
        <time>2026-05-03T19:25:21Z</time>
      </trkpt>
      <trkpt lat="35.108493000" lon="-106.397247000">
        <ele>2272.180000</ele>
        <time>2026-05-03T19:25:28Z</time>
      </trkpt>
      <trkpt lat="35.108498000" lon="-106.397250000">
        <ele>2272.020000</ele>
        <time>2026-05-03T19:25:29Z</time>
      </trkpt>
      <trkpt lat="35.108546000" lon="-106.397228000">
        <ele>2272.620000</ele>
        <time>2026-05-03T19:25:37Z</time>
      </trkpt>
      <trkpt lat="35.108583000" lon="-106.397194000">
        <ele>2272.590000</ele>
        <time>2026-05-03T19:25:45Z</time>
      </trkpt>
      <trkpt lat="35.108634000" lon="-106.397182000">
        <ele>2267.410000</ele>
        <time>2026-05-03T19:25:54Z</time>
      </trkpt>
      <trkpt lat="35.108662000" lon="-106.397189000">
        <ele>2267.040000</ele>
        <time>2026-05-03T19:25:59Z</time>
      </trkpt>
      <trkpt lat="35.108671000" lon="-106.397188000">
        <ele>2265.900000</ele>
        <time>2026-05-03T19:26:00Z</time>
      </trkpt>
      <trkpt lat="35.108702000" lon="-106.397194000">
        <ele>2268.990000</ele>
        <time>2026-05-03T19:26:06Z</time>
      </trkpt>
      <trkpt lat="35.108737000" lon="-106.397232000">
        <ele>2270.120000</ele>
        <time>2026-05-03T19:26:12Z</time>
      </trkpt>
      <trkpt lat="35.108757000" lon="-106.397311000">
        <ele>2266.280000</ele>
        <time>2026-05-03T19:26:19Z</time>
      </trkpt>
      <trkpt lat="35.108776000" lon="-106.397343000">
        <ele>2267.310000</ele>
        <time>2026-05-03T19:26:23Z</time>
      </trkpt>
      <trkpt lat="35.108781000" lon="-106.397349000">
        <ele>2267.180000</ele>
        <time>2026-05-03T19:26:24Z</time>
      </trkpt>
      <trkpt lat="35.108814000" lon="-106.397399000">
        <ele>2267.110000</ele>
        <time>2026-05-03T19:26:30Z</time>
      </trkpt>
      <trkpt lat="35.108841000" lon="-106.397477000">
        <ele>2269.510000</ele>
        <time>2026-05-03T19:26:38Z</time>
      </trkpt>
      <trkpt lat="35.108842000" lon="-106.397547000">
        <ele>2266.940000</ele>
        <time>2026-05-03T19:26:46Z</time>
      </trkpt>
      <trkpt lat="35.108846000" lon="-106.397561000">
        <ele>2265.250000</ele>
        <time>2026-05-03T19:26:48Z</time>
      </trkpt>
      <trkpt lat="35.108867000" lon="-106.397550000">
        <ele>2265.090000</ele>
        <time>2026-05-03T19:26:50Z</time>
      </trkpt>
      <trkpt lat="35.108909000" lon="-106.397476000">
        <ele>2268.320000</ele>
        <time>2026-05-03T19:27:03Z</time>
      </trkpt>
      <trkpt lat="35.108962000" lon="-106.397415000">
        <ele>2272.160000</ele>
        <time>2026-05-03T19:27:13Z</time>
      </trkpt>
      <trkpt lat="35.108966000" lon="-106.397412000">
        <ele>2272.150000</ele>
        <time>2026-05-03T19:27:14Z</time>
      </trkpt>
      <trkpt lat="35.109010000" lon="-106.397375000">
        <ele>2277.230000</ele>
        <time>2026-05-03T19:27:26Z</time>
      </trkpt>
      <trkpt lat="35.109041000" lon="-106.397300000">
        <ele>2279.800000</ele>
        <time>2026-05-03T19:27:49Z</time>
      </trkpt>
      <trkpt lat="35.109063000" lon="-106.397283000">
        <ele>2280.660000</ele>
        <time>2026-05-03T19:27:53Z</time>
      </trkpt>
      <trkpt lat="35.109097000" lon="-106.397288000">
        <ele>2280.430000</ele>
        <time>2026-05-03T19:28:01Z</time>
      </trkpt>
      <trkpt lat="35.109102000" lon="-106.397290000">
        <ele>2280.220000</ele>
        <time>2026-05-03T19:28:02Z</time>
      </trkpt>
      <trkpt lat="35.109154000" lon="-106.397281000">
        <ele>2279.920000</ele>
        <time>2026-05-03T19:28:11Z</time>
      </trkpt>
      <trkpt lat="35.109200000" lon="-106.397259000">
        <ele>2280.950000</ele>
        <time>2026-05-03T19:28:42Z</time>
      </trkpt>
      <trkpt lat="35.109274000" lon="-106.397249000">
        <ele>2281.210000</ele>
        <time>2026-05-03T19:29:02Z</time>
      </trkpt>
      <trkpt lat="35.109280000" lon="-106.397256000">
        <ele>2281.270000</ele>
        <time>2026-05-03T19:29:04Z</time>
      </trkpt>
      <trkpt lat="35.109341000" lon="-106.397294000">
        <ele>2280.730000</ele>
        <time>2026-05-03T19:29:17Z</time>
      </trkpt>
      <trkpt lat="35.109363000" lon="-106.397288000">
        <ele>2282.030000</ele>
        <time>2026-05-03T19:29:23Z</time>
      </trkpt>
      <trkpt lat="35.109431000" lon="-106.397311000">
        <ele>2283.120000</ele>
        <time>2026-05-03T19:29:34Z</time>
      </trkpt>
      <trkpt lat="35.109440000" lon="-106.397313000">
        <ele>2283.890000</ele>
        <time>2026-05-03T19:29:35Z</time>
      </trkpt>
      <trkpt lat="35.109574000" lon="-106.397356000">
        <ele>2285.630000</ele>
        <time>2026-05-03T19:29:51Z</time>
      </trkpt>
      <trkpt lat="35.109603000" lon="-106.397384000">
        <ele>2285.730000</ele>
        <time>2026-05-03T19:29:55Z</time>
      </trkpt>
      <trkpt lat="35.109609000" lon="-106.397394000">
        <ele>2286.030000</ele>
        <time>2026-05-03T19:29:56Z</time>
      </trkpt>
      <trkpt lat="35.109665000" lon="-106.397454000">
        <ele>2285.610000</ele>
        <time>2026-05-03T19:30:03Z</time>
      </trkpt>
      <trkpt lat="35.109715000" lon="-106.397459000">
        <ele>2285.960000</ele>
        <time>2026-05-03T19:30:08Z</time>
      </trkpt>
      <trkpt lat="35.109762000" lon="-106.397487000">
        <ele>2286.300000</ele>
        <time>2026-05-03T19:30:14Z</time>
      </trkpt>
      <trkpt lat="35.109770000" lon="-106.397487000">
        <ele>2286.430000</ele>
        <time>2026-05-03T19:30:15Z</time>
      </trkpt>
      <trkpt lat="35.109821000" lon="-106.397486000">
        <ele>2288.240000</ele>
        <time>2026-05-03T19:30:22Z</time>
      </trkpt>
      <trkpt lat="35.109904000" lon="-106.397534000">
        <ele>2287.360000</ele>
        <time>2026-05-03T19:30:33Z</time>
      </trkpt>
      <trkpt lat="35.109930000" lon="-106.397520000">
        <ele>2289.690000</ele>
        <time>2026-05-03T19:30:37Z</time>
      </trkpt>
      <trkpt lat="35.109937000" lon="-106.397518000">
        <ele>2290.790000</ele>
        <time>2026-05-03T19:30:38Z</time>
      </trkpt>
      <trkpt lat="35.109983000" lon="-106.397522000">
        <ele>2292.990000</ele>
        <time>2026-05-03T19:30:45Z</time>
      </trkpt>
      <trkpt lat="35.110006000" lon="-106.397538000">
        <ele>2297.150000</ele>
        <time>2026-05-03T19:30:48Z</time>
      </trkpt>
      <trkpt lat="35.110112000" lon="-106.397542000">
        <ele>2296.270000</ele>
        <time>2026-05-03T19:31:00Z</time>
      </trkpt>
      <trkpt lat="35.110122000" lon="-106.397541000">
        <ele>2296.570000</ele>
        <time>2026-05-03T19:31:01Z</time>
      </trkpt>
      <trkpt lat="35.110302000" lon="-106.397547000">
        <ele>2294.990000</ele>
        <time>2026-05-03T19:31:20Z</time>
      </trkpt>
      <trkpt lat="35.110313000" lon="-106.397546000">
        <ele>2295.920000</ele>
        <time>2026-05-03T19:31:21Z</time>
      </trkpt>
      <trkpt lat="35.110346000" lon="-106.397553000">
        <ele>2296.790000</ele>
        <time>2026-05-03T19:31:24Z</time>
      </trkpt>
      <trkpt lat="35.110384000" lon="-106.397537000">
        <ele>2299.290000</ele>
        <time>2026-05-03T19:31:28Z</time>
      </trkpt>
      <trkpt lat="35.110477000" lon="-106.397545000">
        <ele>2299.480000</ele>
        <time>2026-05-03T19:31:37Z</time>
      </trkpt>
      <trkpt lat="35.110486000" lon="-106.397541000">
        <ele>2299.690000</ele>
        <time>2026-05-03T19:31:38Z</time>
      </trkpt>
      <trkpt lat="35.110555000" lon="-106.397531000">
        <ele>2302.700000</ele>
        <time>2026-05-03T19:31:45Z</time>
      </trkpt>
      <trkpt lat="35.110643000" lon="-106.397541000">
        <ele>2303.890000</ele>
        <time>2026-05-03T19:31:54Z</time>
      </trkpt>
      <trkpt lat="35.110652000" lon="-106.397541000">
        <ele>2304.510000</ele>
        <time>2026-05-03T19:31:55Z</time>
      </trkpt>
      <trkpt lat="35.110747000" lon="-106.397558000">
        <ele>2303.650000</ele>
        <time>2026-05-03T19:32:04Z</time>
      </trkpt>
      <trkpt lat="35.110822000" lon="-106.397606000">
        <ele>2303.380000</ele>
        <time>2026-05-03T19:32:11Z</time>
      </trkpt>
      <trkpt lat="35.110833000" lon="-106.397615000">
        <ele>2302.940000</ele>
        <time>2026-05-03T19:32:12Z</time>
      </trkpt>
      <trkpt lat="35.110984000" lon="-106.397729000">
        <ele>2302.870000</ele>
        <time>2026-05-03T19:32:28Z</time>
      </trkpt>
      <trkpt lat="35.110991000" lon="-106.397734000">
        <ele>2302.660000</ele>
        <time>2026-05-03T19:32:29Z</time>
      </trkpt>
      <trkpt lat="35.111036000" lon="-106.397763000">
        <ele>2303.020000</ele>
        <time>2026-05-03T19:32:35Z</time>
      </trkpt>
      <trkpt lat="35.111075000" lon="-106.397875000">
        <ele>2293.800000</ele>
        <time>2026-05-03T19:36:07Z</time>
      </trkpt>
      <trkpt lat="35.111110000" lon="-106.397851000">
        <ele>2300.740000</ele>
        <time>2026-05-03T19:36:57Z</time>
      </trkpt>
      <trkpt lat="35.111123000" lon="-106.397849000">
        <ele>2300.740000</ele>
        <time>2026-05-03T19:36:58Z</time>
      </trkpt>
      <trkpt lat="35.111151000" lon="-106.397852000">
        <ele>2306.570000</ele>
        <time>2026-05-03T19:37:02Z</time>
      </trkpt>
      <trkpt lat="35.111173000" lon="-106.397834000">
        <ele>2306.970000</ele>
        <time>2026-05-03T19:37:04Z</time>
      </trkpt>
      <trkpt lat="35.111206000" lon="-106.397802000">
        <ele>2309.900000</ele>
        <time>2026-05-03T19:37:07Z</time>
      </trkpt>
      <trkpt lat="35.111215000" lon="-106.397775000">
        <ele>2311.290000</ele>
        <time>2026-05-03T19:37:09Z</time>
      </trkpt>
      <trkpt lat="35.111249000" lon="-106.397781000">
        <ele>2311.760000</ele>
        <time>2026-05-03T19:37:14Z</time>
      </trkpt>
      <trkpt lat="35.111255000" lon="-106.397787000">
        <ele>2313.160000</ele>
        <time>2026-05-03T19:37:15Z</time>
      </trkpt>
      <trkpt lat="35.111303000" lon="-106.397801000">
        <ele>2312.020000</ele>
        <time>2026-05-03T19:37:20Z</time>
      </trkpt>
      <trkpt lat="35.111352000" lon="-106.397787000">
        <ele>2312.610000</ele>
        <time>2026-05-03T19:37:26Z</time>
      </trkpt>
      <trkpt lat="35.111374000" lon="-106.397793000">
        <ele>2311.450000</ele>
        <time>2026-05-03T19:37:28Z</time>
      </trkpt>
      <trkpt lat="35.111427000" lon="-106.397784000">
        <ele>2313.440000</ele>
        <time>2026-05-03T19:37:33Z</time>
      </trkpt>
      <trkpt lat="35.111439000" lon="-106.397783000">
        <ele>2313.300000</ele>
        <time>2026-05-03T19:37:34Z</time>
      </trkpt>
      <trkpt lat="35.111475000" lon="-106.397775000">
        <ele>2315.960000</ele>
        <time>2026-05-03T19:37:38Z</time>
      </trkpt>
      <trkpt lat="35.111497000" lon="-106.397784000">
        <ele>2313.630000</ele>
        <time>2026-05-03T19:37:40Z</time>
      </trkpt>
      <trkpt lat="35.111614000" lon="-106.397779000">
        <ele>2319.780000</ele>
        <time>2026-05-03T19:37:51Z</time>
      </trkpt>
      <trkpt lat="35.111625000" lon="-106.397777000">
        <ele>2320.320000</ele>
        <time>2026-05-03T19:37:52Z</time>
      </trkpt>
      <trkpt lat="35.111660000" lon="-106.397775000">
        <ele>2320.150000</ele>
        <time>2026-05-03T19:37:55Z</time>
      </trkpt>
      <trkpt lat="35.111693000" lon="-106.397759000">
        <ele>2321.430000</ele>
        <time>2026-05-03T19:37:58Z</time>
      </trkpt>
      <trkpt lat="35.111780000" lon="-106.397764000">
        <ele>2322.770000</ele>
        <time>2026-05-03T19:38:06Z</time>
      </trkpt>
      <trkpt lat="35.111791000" lon="-106.397761000">
        <ele>2322.980000</ele>
        <time>2026-05-03T19:38:07Z</time>
      </trkpt>
      <trkpt lat="35.111849000" lon="-106.397753000">
        <ele>2326.600000</ele>
        <time>2026-05-03T19:38:12Z</time>
      </trkpt>
      <trkpt lat="35.111880000" lon="-106.397763000">
        <ele>2324.520000</ele>
        <time>2026-05-03T19:38:14Z</time>
      </trkpt>
      <trkpt lat="35.111905000" lon="-106.397759000">
        <ele>2323.680000</ele>
        <time>2026-05-03T19:38:16Z</time>
      </trkpt>
      <trkpt lat="35.111938000" lon="-106.397809000">
        <ele>2314.680000</ele>
        <time>2026-05-03T19:38:25Z</time>
      </trkpt>
      <trkpt lat="35.111940000" lon="-106.397810000">
        <ele>2314.670000</ele>
        <time>2026-05-03T19:38:26Z</time>
      </trkpt>
      <trkpt lat="35.111959000" lon="-106.397832000">
        <ele>2309.620000</ele>
        <time>2026-05-03T19:38:37Z</time>
      </trkpt>
      <trkpt lat="35.112002000" lon="-106.397846000">
        <ele>2298.170000</ele>
        <time>2026-05-03T19:39:10Z</time>
      </trkpt>
      <trkpt lat="35.112015000" lon="-106.397819000">
        <ele>2299.930000</ele>
        <time>2026-05-03T19:39:16Z</time>
      </trkpt>
      <trkpt lat="35.112035000" lon="-106.397811000">
        <ele>2301.120000</ele>
        <time>2026-05-03T19:39:19Z</time>
      </trkpt>
      <trkpt lat="35.112089000" lon="-106.397817000">
        <ele>2302.160000</ele>
        <time>2026-05-03T19:39:26Z</time>
      </trkpt>
      <trkpt lat="35.112098000" lon="-106.397819000">
        <ele>2302.890000</ele>
        <time>2026-05-03T19:39:27Z</time>
      </trkpt>
      <trkpt lat="35.112170000" lon="-106.397863000">
        <ele>2305.050000</ele>
        <time>2026-05-03T19:39:39Z</time>
      </trkpt>
      <trkpt lat="35.112222000" lon="-106.397973000">
        <ele>2303.100000</ele>
        <time>2026-05-03T19:39:50Z</time>
      </trkpt>
      <trkpt lat="35.112227000" lon="-106.397991000">
        <ele>2302.800000</ele>
        <time>2026-05-03T19:39:51Z</time>
      </trkpt>
      <trkpt lat="35.112281000" lon="-106.398067000">
        <ele>2302.350000</ele>
        <time>2026-05-03T19:39:58Z</time>
      </trkpt>
      <trkpt lat="35.112323000" lon="-106.398103000">
        <ele>2305.550000</ele>
        <time>2026-05-03T19:40:05Z</time>
      </trkpt>
      <trkpt lat="35.112353000" lon="-106.398157000">
        <ele>2303.860000</ele>
        <time>2026-05-03T19:40:11Z</time>
      </trkpt>
      <trkpt lat="35.112360000" lon="-106.398166000">
        <ele>2303.130000</ele>
        <time>2026-05-03T19:40:12Z</time>
      </trkpt>
      <trkpt lat="35.112410000" lon="-106.398227000">
        <ele>2306.420000</ele>
        <time>2026-05-03T19:40:21Z</time>
      </trkpt>
      <trkpt lat="35.112502000" lon="-106.398288000">
        <ele>2307.050000</ele>
        <time>2026-05-03T19:40:38Z</time>
      </trkpt>
      <trkpt lat="35.112510000" lon="-106.398291000">
        <ele>2307.030000</ele>
        <time>2026-05-03T19:40:39Z</time>
      </trkpt>
      <trkpt lat="35.112538000" lon="-106.398311000">
        <ele>2310.090000</ele>
        <time>2026-05-03T19:40:46Z</time>
      </trkpt>
      <trkpt lat="35.112546000" lon="-106.398332000">
        <ele>2313.860000</ele>
        <time>2026-05-03T19:40:49Z</time>
      </trkpt>
      <trkpt lat="35.112592000" lon="-106.398354000">
        <ele>2314.460000</ele>
        <time>2026-05-03T19:40:54Z</time>
      </trkpt>
      <trkpt lat="35.112616000" lon="-106.398361000">
        <ele>2312.620000</ele>
        <time>2026-05-03T19:40:57Z</time>
      </trkpt>
      <trkpt lat="35.112675000" lon="-106.398348000">
        <ele>2312.600000</ele>
        <time>2026-05-03T19:41:04Z</time>
      </trkpt>
      <trkpt lat="35.112690000" lon="-106.398342000">
        <ele>2311.370000</ele>
        <time>2026-05-03T19:41:05Z</time>
      </trkpt>
      <trkpt lat="35.112793000" lon="-106.398346000">
        <ele>2311.990000</ele>
        <time>2026-05-03T19:41:12Z</time>
      </trkpt>
      <trkpt lat="35.112834000" lon="-106.398362000">
        <ele>2310.910000</ele>
        <time>2026-05-03T19:41:17Z</time>
      </trkpt>
      <trkpt lat="35.112839000" lon="-106.398375000">
        <ele>2311.830000</ele>
        <time>2026-05-03T19:41:18Z</time>
      </trkpt>
      <trkpt lat="35.112846000" lon="-106.398384000">
        <ele>2312.130000</ele>
        <time>2026-05-03T19:41:19Z</time>
      </trkpt>
      <trkpt lat="35.112867000" lon="-106.398412000">
        <ele>2303.000000</ele>
        <time>2026-05-03T19:41:32Z</time>
      </trkpt>
      <trkpt lat="35.112884000" lon="-106.398462000">
        <ele>2302.140000</ele>
        <time>2026-05-03T19:42:11Z</time>
      </trkpt>
      <trkpt lat="35.112890000" lon="-106.398485000">
        <ele>2299.530000</ele>
        <time>2026-05-03T19:42:15Z</time>
      </trkpt>
      <trkpt lat="35.112882000" lon="-106.398514000">
        <ele>2298.160000</ele>
        <time>2026-05-03T19:42:44Z</time>
      </trkpt>
      <trkpt lat="35.112885000" lon="-106.398490000">
        <ele>2301.300000</ele>
        <time>2026-05-03T19:43:15Z</time>
      </trkpt>
      <trkpt lat="35.112916000" lon="-106.398479000">
        <ele>2301.570000</ele>
        <time>2026-05-03T19:43:19Z</time>
      </trkpt>
      <trkpt lat="35.112926000" lon="-106.398481000">
        <ele>2301.460000</ele>
        <time>2026-05-03T19:43:20Z</time>
      </trkpt>
      <trkpt lat="35.112969000" lon="-106.398504000">
        <ele>2300.930000</ele>
        <time>2026-05-03T19:43:26Z</time>
      </trkpt>
      <trkpt lat="35.112996000" lon="-106.398507000">
        <ele>2303.280000</ele>
        <time>2026-05-03T19:43:31Z</time>
      </trkpt>
      <trkpt lat="35.113016000" lon="-106.398554000">
        <ele>2303.880000</ele>
        <time>2026-05-03T19:43:35Z</time>
      </trkpt>
      <trkpt lat="35.113038000" lon="-106.398553000">
        <ele>2304.890000</ele>
        <time>2026-05-03T19:43:37Z</time>
      </trkpt>
      <trkpt lat="35.113062000" lon="-106.398571000">
        <ele>2304.320000</ele>
        <time>2026-05-03T19:43:42Z</time>
      </trkpt>
      <trkpt lat="35.113070000" lon="-106.398573000">
        <ele>2304.260000</ele>
        <time>2026-05-03T19:43:43Z</time>
      </trkpt>
      <trkpt lat="35.113215000" lon="-106.398605000">
        <ele>2305.020000</ele>
        <time>2026-05-03T19:43:59Z</time>
      </trkpt>
      <trkpt lat="35.113241000" lon="-106.398624000">
        <ele>2305.020000</ele>
        <time>2026-05-03T19:44:03Z</time>
      </trkpt>
      <trkpt lat="35.113248000" lon="-106.398629000">
        <ele>2305.480000</ele>
        <time>2026-05-03T19:44:04Z</time>
      </trkpt>
      <trkpt lat="35.113288000" lon="-106.398654000">
        <ele>2306.850000</ele>
        <time>2026-05-03T19:44:09Z</time>
      </trkpt>
      <trkpt lat="35.113332000" lon="-106.398761000">
        <ele>2303.430000</ele>
        <time>2026-05-03T19:44:15Z</time>
      </trkpt>
      <trkpt lat="35.113343000" lon="-106.398776000">
        <ele>2303.600000</ele>
        <time>2026-05-03T19:44:16Z</time>
      </trkpt>
      <trkpt lat="35.113404000" lon="-106.398841000">
        <ele>2305.170000</ele>
        <time>2026-05-03T19:44:25Z</time>
      </trkpt>
      <trkpt lat="35.113448000" lon="-106.398864000">
        <ele>2305.810000</ele>
        <time>2026-05-03T19:44:31Z</time>
      </trkpt>
      <trkpt lat="35.113481000" lon="-106.398916000">
        <ele>2305.340000</ele>
        <time>2026-05-03T19:44:38Z</time>
      </trkpt>
      <trkpt lat="35.113485000" lon="-106.398924000">
        <ele>2304.770000</ele>
        <time>2026-05-03T19:44:39Z</time>
      </trkpt>
      <trkpt lat="35.113459000" lon="-106.398974000">
        <ele>2306.750000</ele>
        <time>2026-05-03T19:45:18Z</time>
      </trkpt>
      <trkpt lat="35.113457000" lon="-106.399003000">
        <ele>2305.790000</ele>
        <time>2026-05-03T19:45:29Z</time>
      </trkpt>
      <trkpt lat="35.113471000" lon="-106.399031000">
        <ele>2304.620000</ele>
        <time>2026-05-03T19:45:32Z</time>
      </trkpt>
      <trkpt lat="35.113472000" lon="-106.399059000">
        <ele>2304.360000</ele>
        <time>2026-05-03T19:45:34Z</time>
      </trkpt>
      <trkpt lat="35.113496000" lon="-106.399066000">
        <ele>2301.490000</ele>
        <time>2026-05-03T19:45:42Z</time>
      </trkpt>
      <trkpt lat="35.113518000" lon="-106.399042000">
        <ele>2302.110000</ele>
        <time>2026-05-03T19:45:45Z</time>
      </trkpt>
      <trkpt lat="35.113528000" lon="-106.399038000">
        <ele>2300.760000</ele>
        <time>2026-05-03T19:45:46Z</time>
      </trkpt>
      <trkpt lat="35.113604000" lon="-106.398963000">
        <ele>2302.770000</ele>
        <time>2026-05-03T19:46:03Z</time>
      </trkpt>
      <trkpt lat="35.113667000" lon="-106.398928000">
        <ele>2304.980000</ele>
        <time>2026-05-03T19:46:10Z</time>
      </trkpt>
      <trkpt lat="35.113677000" lon="-106.398919000">
        <ele>2306.420000</ele>
        <time>2026-05-03T19:46:11Z</time>
      </trkpt>
      <trkpt lat="35.113784000" lon="-106.398882000">
        <ele>2309.730000</ele>
        <time>2026-05-03T19:46:27Z</time>
      </trkpt>
      <trkpt lat="35.113827000" lon="-106.398891000">
        <ele>2308.330000</ele>
        <time>2026-05-03T19:46:31Z</time>
      </trkpt>
      <trkpt lat="35.113845000" lon="-106.398881000">
        <ele>2302.620000</ele>
        <time>2026-05-03T19:46:37Z</time>
      </trkpt>
      <trkpt lat="35.113850000" lon="-106.398862000">
        <ele>2302.290000</ele>
        <time>2026-05-03T19:46:38Z</time>
      </trkpt>
      <trkpt lat="35.113852000" lon="-106.398860000">
        <ele>2302.280000</ele>
        <time>2026-05-03T19:46:39Z</time>
      </trkpt>
      <trkpt lat="35.113829000" lon="-106.398860000">
        <ele>2299.890000</ele>
        <time>2026-05-03T19:47:23Z</time>
      </trkpt>
      <trkpt lat="35.113853000" lon="-106.398905000">
        <ele>2296.240000</ele>
        <time>2026-05-03T19:47:32Z</time>
      </trkpt>
      <trkpt lat="35.113876000" lon="-106.398909000">
        <ele>2297.390000</ele>
        <time>2026-05-03T19:47:35Z</time>
      </trkpt>
      <trkpt lat="35.113922000" lon="-106.398895000">
        <ele>2299.950000</ele>
        <time>2026-05-03T19:47:45Z</time>
      </trkpt>
      <trkpt lat="35.113929000" lon="-106.398862000">
        <ele>2301.720000</ele>
        <time>2026-05-03T19:47:49Z</time>
      </trkpt>
      <trkpt lat="35.113925000" lon="-106.398871000">
        <ele>2301.650000</ele>
        <time>2026-05-03T19:47:50Z</time>
      </trkpt>
      <trkpt lat="35.113967000" lon="-106.398894000">
        <ele>2299.580000</ele>
        <time>2026-05-03T19:48:13Z</time>
      </trkpt>
      <trkpt lat="35.113967000" lon="-106.398864000">
        <ele>2299.770000</ele>
        <time>2026-05-03T19:48:35Z</time>
      </trkpt>
      <trkpt lat="35.114006000" lon="-106.398840000">
        <ele>2293.450000</ele>
        <time>2026-05-03T19:48:51Z</time>
      </trkpt>
      <trkpt lat="35.113986000" lon="-106.398836000">
        <ele>2290.460000</ele>
        <time>2026-05-03T19:48:56Z</time>
      </trkpt>
      <trkpt lat="35.114022000" lon="-106.398839000">
        <ele>2294.090000</ele>
        <time>2026-05-03T19:49:06Z</time>
      </trkpt>
      <trkpt lat="35.114025000" lon="-106.398838000">
        <ele>2294.140000</ele>
        <time>2026-05-03T19:49:07Z</time>
      </trkpt>
      <trkpt lat="35.114050000" lon="-106.398865000">
        <ele>2292.220000</ele>
        <time>2026-05-03T19:49:11Z</time>
      </trkpt>
      <trkpt lat="35.114032000" lon="-106.398884000">
        <ele>2290.100000</ele>
        <time>2026-05-03T19:49:19Z</time>
      </trkpt>
      <trkpt lat="35.114018000" lon="-106.398866000">
        <ele>2291.190000</ele>
        <time>2026-05-03T19:49:26Z</time>
      </trkpt>
      <trkpt lat="35.113994000" lon="-106.398882000">
        <ele>2289.170000</ele>
        <time>2026-05-03T19:50:45Z</time>
      </trkpt>
      <trkpt lat="35.114007000" lon="-106.398906000">
        <ele>2287.660000</ele>
        <time>2026-05-03T19:50:48Z</time>
      </trkpt>
      <trkpt lat="35.113978000" lon="-106.398899000">
        <ele>2287.840000</ele>
        <time>2026-05-03T19:50:49Z</time>
      </trkpt>
      <trkpt lat="35.113946000" lon="-106.398922000">
        <ele>2286.870000</ele>
        <time>2026-05-03T19:50:52Z</time>
      </trkpt>
      <trkpt lat="35.113941000" lon="-106.398933000">
        <ele>2286.060000</ele>
        <time>2026-05-03T19:50:53Z</time>
      </trkpt>
      <trkpt lat="35.113917000" lon="-106.398952000">
        <ele>2286.860000</ele>
        <time>2026-05-03T19:50:57Z</time>
      </trkpt>
      <trkpt lat="35.113894000" lon="-106.398952000">
        <ele>2287.860000</ele>
        <time>2026-05-03T19:50:59Z</time>
      </trkpt>
      <trkpt lat="35.113878000" lon="-106.398928000">
        <ele>2289.500000</ele>
        <time>2026-05-03T19:51:20Z</time>
      </trkpt>
      <trkpt lat="35.113831000" lon="-106.398919000">
        <ele>2290.220000</ele>
        <time>2026-05-03T19:52:55Z</time>
      </trkpt>
      <trkpt lat="35.113808000" lon="-106.398931000">
        <ele>2291.330000</ele>
        <time>2026-05-03T19:53:06Z</time>
      </trkpt>
      <trkpt lat="35.113806000" lon="-106.398894000">
        <ele>2292.210000</ele>
        <time>2026-05-03T19:53:13Z</time>
      </trkpt>
      <trkpt lat="35.113805000" lon="-106.398888000">
        <ele>2292.160000</ele>
        <time>2026-05-03T19:53:14Z</time>
      </trkpt>
      <trkpt lat="35.113790000" lon="-106.398935000">
        <ele>2292.920000</ele>
        <time>2026-05-03T19:58:03Z</time>
      </trkpt>
      <trkpt lat="35.113814000" lon="-106.398926000">
        <ele>2292.480000</ele>
        <time>2026-05-03T19:58:21Z</time>
      </trkpt>
      <trkpt lat="35.113902000" lon="-106.398951000">
        <ele>2292.570000</ele>
        <time>2026-05-03T19:58:35Z</time>
      </trkpt>
      <trkpt lat="35.113914000" lon="-106.398960000">
        <ele>2292.630000</ele>
        <time>2026-05-03T19:58:37Z</time>
      </trkpt>
      <trkpt lat="35.113902000" lon="-106.398986000">
        <ele>2288.130000</ele>
        <time>2026-05-03T19:58:42Z</time>
      </trkpt>
      <trkpt lat="35.113830000" lon="-106.398997000">
        <ele>2286.690000</ele>
        <time>2026-05-03T19:58:48Z</time>
      </trkpt>
      <trkpt lat="35.113757000" lon="-106.399040000">
        <ele>2284.950000</ele>
        <time>2026-05-03T19:58:53Z</time>
      </trkpt>
      <trkpt lat="35.113742000" lon="-106.399045000">
        <ele>2284.140000</ele>
        <time>2026-05-03T19:58:54Z</time>
      </trkpt>
      <trkpt lat="35.113700000" lon="-106.399031000">
        <ele>2287.970000</ele>
        <time>2026-05-03T19:58:58Z</time>
      </trkpt>
      <trkpt lat="35.113604000" lon="-106.399055000">
        <ele>2291.000000</ele>
        <time>2026-05-03T19:59:10Z</time>
      </trkpt>
      <trkpt lat="35.113589000" lon="-106.399068000">
        <ele>2290.590000</ele>
        <time>2026-05-03T19:59:12Z</time>
      </trkpt>
      <trkpt lat="35.113545000" lon="-106.399059000">
        <ele>2291.330000</ele>
        <time>2026-05-03T19:59:15Z</time>
      </trkpt>
      <trkpt lat="35.113537000" lon="-106.399049000">
        <ele>2291.230000</ele>
        <time>2026-05-03T19:59:16Z</time>
      </trkpt>
      <trkpt lat="35.113515000" lon="-106.399032000">
        <ele>2290.930000</ele>
        <time>2026-05-03T19:59:19Z</time>
      </trkpt>
      <trkpt lat="35.113446000" lon="-106.399012000">
        <ele>2295.440000</ele>
        <time>2026-05-03T19:59:30Z</time>
      </trkpt>
      <trkpt lat="35.113383000" lon="-106.398940000">
        <ele>2295.050000</ele>
        <time>2026-05-03T19:59:38Z</time>
      </trkpt>
      <trkpt lat="35.113375000" lon="-106.398920000">
        <ele>2295.500000</ele>
        <time>2026-05-03T19:59:39Z</time>
      </trkpt>
      <trkpt lat="35.113370000" lon="-106.398903000">
        <ele>2295.840000</ele>
        <time>2026-05-03T19:59:40Z</time>
      </trkpt>
      <trkpt lat="35.113353000" lon="-106.398895000">
        <ele>2297.160000</ele>
        <time>2026-05-03T19:59:43Z</time>
      </trkpt>
      <trkpt lat="35.113317000" lon="-106.398850000">
        <ele>2297.320000</ele>
        <time>2026-05-03T19:59:47Z</time>
      </trkpt>
      <trkpt lat="35.113238000" lon="-106.398783000">
        <ele>2299.100000</ele>
        <time>2026-05-03T19:59:58Z</time>
      </trkpt>
      <trkpt lat="35.113229000" lon="-106.398781000">
        <ele>2299.600000</ele>
        <time>2026-05-03T19:59:59Z</time>
      </trkpt>
      <trkpt lat="35.113165000" lon="-106.398740000">
        <ele>2296.930000</ele>
        <time>2026-05-03T20:00:07Z</time>
      </trkpt>
      <trkpt lat="35.113135000" lon="-106.398695000">
        <ele>2291.930000</ele>
        <time>2026-05-03T20:00:16Z</time>
      </trkpt>
      <trkpt lat="35.113079000" lon="-106.398669000">
        <ele>2291.170000</ele>
        <time>2026-05-03T20:00:21Z</time>
      </trkpt>
      <trkpt lat="35.113065000" lon="-106.398656000">
        <ele>2291.590000</ele>
        <time>2026-05-03T20:00:22Z</time>
      </trkpt>
      <trkpt lat="35.113028000" lon="-106.398617000">
        <ele>2294.520000</ele>
        <time>2026-05-03T20:00:30Z</time>
      </trkpt>
      <trkpt lat="35.112930000" lon="-106.398567000">
        <ele>2298.150000</ele>
        <time>2026-05-03T20:00:41Z</time>
      </trkpt>
      <trkpt lat="35.112921000" lon="-106.398559000">
        <ele>2298.800000</ele>
        <time>2026-05-03T20:00:42Z</time>
      </trkpt>
      <trkpt lat="35.112892000" lon="-106.398532000">
        <ele>2295.060000</ele>
        <time>2026-05-03T20:00:46Z</time>
      </trkpt>
      <trkpt lat="35.112802000" lon="-106.398481000">
        <ele>2292.860000</ele>
        <time>2026-05-03T20:00:57Z</time>
      </trkpt>
      <trkpt lat="35.112754000" lon="-106.398473000">
        <ele>2293.740000</ele>
        <time>2026-05-03T20:01:04Z</time>
      </trkpt>
      <trkpt lat="35.112744000" lon="-106.398477000">
        <ele>2293.650000</ele>
        <time>2026-05-03T20:01:05Z</time>
      </trkpt>
      <trkpt lat="35.112710000" lon="-106.398485000">
        <ele>2293.820000</ele>
        <time>2026-05-03T20:01:09Z</time>
      </trkpt>
      <trkpt lat="35.112644000" lon="-106.398476000">
        <ele>2292.000000</ele>
        <time>2026-05-03T20:01:17Z</time>
      </trkpt>
      <trkpt lat="35.112565000" lon="-106.398449000">
        <ele>2291.110000</ele>
        <time>2026-05-03T20:01:28Z</time>
      </trkpt>
      <trkpt lat="35.112558000" lon="-106.398445000">
        <ele>2290.840000</ele>
        <time>2026-05-03T20:01:29Z</time>
      </trkpt>
      <trkpt lat="35.112527000" lon="-106.398436000">
        <ele>2295.930000</ele>
        <time>2026-05-03T20:01:41Z</time>
      </trkpt>
      <trkpt lat="35.112505000" lon="-106.398408000">
        <ele>2295.880000</ele>
        <time>2026-05-03T20:01:43Z</time>
      </trkpt>
      <trkpt lat="35.112462000" lon="-106.398392000">
        <ele>2296.060000</ele>
        <time>2026-05-03T20:01:47Z</time>
      </trkpt>
      <trkpt lat="35.112416000" lon="-106.398357000">
        <ele>2295.030000</ele>
        <time>2026-05-03T20:01:54Z</time>
      </trkpt>
      <trkpt lat="35.112406000" lon="-106.398350000">
        <ele>2297.030000</ele>
        <time>2026-05-03T20:01:55Z</time>
      </trkpt>
      <trkpt lat="35.112380000" lon="-106.398328000">
        <ele>2298.810000</ele>
        <time>2026-05-03T20:01:58Z</time>
      </trkpt>
      <trkpt lat="35.112286000" lon="-106.398185000">
        <ele>2299.570000</ele>
        <time>2026-05-03T20:02:14Z</time>
      </trkpt>
      <trkpt lat="35.112279000" lon="-106.398176000">
        <ele>2299.920000</ele>
        <time>2026-05-03T20:02:15Z</time>
      </trkpt>
      <trkpt lat="35.112210000" lon="-106.398063000">
        <ele>2299.680000</ele>
        <time>2026-05-03T20:02:25Z</time>
      </trkpt>
      <trkpt lat="35.112171000" lon="-106.398016000">
        <ele>2300.580000</ele>
        <time>2026-05-03T20:02:31Z</time>
      </trkpt>
      <trkpt lat="35.112166000" lon="-106.398004000">
        <ele>2299.510000</ele>
        <time>2026-05-03T20:02:32Z</time>
      </trkpt>
      <trkpt lat="35.112121000" lon="-106.397939000">
        <ele>2295.300000</ele>
        <time>2026-05-03T20:02:40Z</time>
      </trkpt>
      <trkpt lat="35.112099000" lon="-106.397928000">
        <ele>2294.190000</ele>
        <time>2026-05-03T20:02:42Z</time>
      </trkpt>
      <trkpt lat="35.112075000" lon="-106.397930000">
        <ele>2293.220000</ele>
        <time>2026-05-03T20:02:44Z</time>
      </trkpt>
      <trkpt lat="35.112028000" lon="-106.397900000">
        <ele>2288.120000</ele>
        <time>2026-05-03T20:02:53Z</time>
      </trkpt>
      <trkpt lat="35.112022000" lon="-106.397897000">
        <ele>2287.860000</ele>
        <time>2026-05-03T20:02:54Z</time>
      </trkpt>
      <trkpt lat="35.111935000" lon="-106.397889000">
        <ele>2286.520000</ele>
        <time>2026-05-03T20:03:02Z</time>
      </trkpt>
      <trkpt lat="35.111854000" lon="-106.397863000">
        <ele>2287.760000</ele>
        <time>2026-05-03T20:03:12Z</time>
      </trkpt>
      <trkpt lat="35.111846000" lon="-106.397864000">
        <ele>2287.610000</ele>
        <time>2026-05-03T20:03:13Z</time>
      </trkpt>
      <trkpt lat="35.111745000" lon="-106.397892000">
        <ele>2286.460000</ele>
        <time>2026-05-03T20:03:25Z</time>
      </trkpt>
      <trkpt lat="35.111720000" lon="-106.397893000">
        <ele>2286.270000</ele>
        <time>2026-05-03T20:03:27Z</time>
      </trkpt>
      <trkpt lat="35.111675000" lon="-106.397872000">
        <ele>2289.590000</ele>
        <time>2026-05-03T20:03:32Z</time>
      </trkpt>
      <trkpt lat="35.111662000" lon="-106.397865000">
        <ele>2289.170000</ele>
        <time>2026-05-03T20:03:33Z</time>
      </trkpt>
      <trkpt lat="35.111651000" lon="-106.397862000">
        <ele>2288.610000</ele>
        <time>2026-05-03T20:03:34Z</time>
      </trkpt>
      <trkpt lat="35.111590000" lon="-106.397891000">
        <ele>2287.990000</ele>
        <time>2026-05-03T20:03:42Z</time>
      </trkpt>
      <trkpt lat="35.111491000" lon="-106.397888000">
        <ele>2285.520000</ele>
        <time>2026-05-03T20:03:52Z</time>
      </trkpt>
      <trkpt lat="35.111484000" lon="-106.397893000">
        <ele>2285.540000</ele>
        <time>2026-05-03T20:03:53Z</time>
      </trkpt>
      <trkpt lat="35.111365000" lon="-106.397933000">
        <ele>2281.380000</ele>
        <time>2026-05-03T20:04:08Z</time>
      </trkpt>
      <trkpt lat="35.111309000" lon="-106.397923000">
        <ele>2288.180000</ele>
        <time>2026-05-03T20:04:15Z</time>
      </trkpt>
      <trkpt lat="35.111296000" lon="-106.397922000">
        <ele>2288.950000</ele>
        <time>2026-05-03T20:04:16Z</time>
      </trkpt>
      <trkpt lat="35.111267000" lon="-106.397915000">
        <ele>2288.520000</ele>
        <time>2026-05-03T20:04:19Z</time>
      </trkpt>
      <trkpt lat="35.111184000" lon="-106.397931000">
        <ele>2284.550000</ele>
        <time>2026-05-03T20:04:26Z</time>
      </trkpt>
      <trkpt lat="35.111135000" lon="-106.397910000">
        <ele>2282.380000</ele>
        <time>2026-05-03T20:04:30Z</time>
      </trkpt>
      <trkpt lat="35.111124000" lon="-106.397901000">
        <ele>2282.020000</ele>
        <time>2026-05-03T20:04:31Z</time>
      </trkpt>
      <trkpt lat="35.111033000" lon="-106.397839000">
        <ele>2280.030000</ele>
        <time>2026-05-03T20:04:42Z</time>
      </trkpt>
      <trkpt lat="35.110961000" lon="-106.397809000">
        <ele>2286.380000</ele>
        <time>2026-05-03T20:04:48Z</time>
      </trkpt>
      <trkpt lat="35.110950000" lon="-106.397808000">
        <ele>2285.430000</ele>
        <time>2026-05-03T20:04:49Z</time>
      </trkpt>
      <trkpt lat="35.110876000" lon="-106.397773000">
        <ele>2285.300000</ele>
        <time>2026-05-03T20:04:58Z</time>
      </trkpt>
      <trkpt lat="35.110868000" lon="-106.397745000">
        <ele>2282.470000</ele>
        <time>2026-05-03T20:05:08Z</time>
      </trkpt>
      <trkpt lat="35.110836000" lon="-106.397711000">
        <ele>2282.790000</ele>
        <time>2026-05-03T20:05:10Z</time>
      </trkpt>
      <trkpt lat="35.110801000" lon="-106.397699000">
        <ele>2283.160000</ele>
        <time>2026-05-03T20:05:13Z</time>
      </trkpt>
      <trkpt lat="35.110793000" lon="-106.397695000">
        <ele>2283.850000</ele>
        <time>2026-05-03T20:05:14Z</time>
      </trkpt>
      <trkpt lat="35.110764000" lon="-106.397678000">
        <ele>2284.250000</ele>
        <time>2026-05-03T20:05:20Z</time>
      </trkpt>
      <trkpt lat="35.110754000" lon="-106.397725000">
        <ele>2283.080000</ele>
        <time>2026-05-03T20:05:22Z</time>
      </trkpt>
      <trkpt lat="35.110660000" lon="-106.397723000">
        <ele>2281.340000</ele>
        <time>2026-05-03T20:05:35Z</time>
      </trkpt>
      <trkpt lat="35.110653000" lon="-106.397714000">
        <ele>2281.400000</ele>
        <time>2026-05-03T20:05:36Z</time>
      </trkpt>
      <trkpt lat="35.110592000" lon="-106.397714000">
        <ele>2281.700000</ele>
        <time>2026-05-03T20:05:39Z</time>
      </trkpt>
      <trkpt lat="35.110566000" lon="-106.397702000">
        <ele>2282.700000</ele>
        <time>2026-05-03T20:05:40Z</time>
      </trkpt>
      <trkpt lat="35.110532000" lon="-106.397733000">
        <ele>2274.710000</ele>
        <time>2026-05-03T20:05:45Z</time>
      </trkpt>
      <trkpt lat="35.110490000" lon="-106.397722000">
        <ele>2275.740000</ele>
        <time>2026-05-03T20:05:48Z</time>
      </trkpt>
      <trkpt lat="35.110479000" lon="-106.397720000">
        <ele>2275.140000</ele>
        <time>2026-05-03T20:05:49Z</time>
      </trkpt>
      <trkpt lat="35.110440000" lon="-106.397714000">
        <ele>2277.970000</ele>
        <time>2026-05-03T20:05:54Z</time>
      </trkpt>
      <trkpt lat="35.110422000" lon="-106.397701000">
        <ele>2276.170000</ele>
        <time>2026-05-03T20:05:58Z</time>
      </trkpt>
      <trkpt lat="35.110380000" lon="-106.397715000">
        <ele>2277.340000</ele>
        <time>2026-05-03T20:06:03Z</time>
      </trkpt>
      <trkpt lat="35.110321000" lon="-106.397686000">
        <ele>2278.210000</ele>
        <time>2026-05-03T20:06:07Z</time>
      </trkpt>
      <trkpt lat="35.110311000" lon="-106.397691000">
        <ele>2277.190000</ele>
        <time>2026-05-03T20:06:08Z</time>
      </trkpt>
      <trkpt lat="35.110182000" lon="-106.397711000">
        <ele>2268.870000</ele>
        <time>2026-05-03T20:06:23Z</time>
      </trkpt>
      <trkpt lat="35.110142000" lon="-106.397704000">
        <ele>2270.360000</ele>
        <time>2026-05-03T20:06:26Z</time>
      </trkpt>
      <trkpt lat="35.110127000" lon="-106.397705000">
        <ele>2270.060000</ele>
        <time>2026-05-03T20:06:27Z</time>
      </trkpt>
      <trkpt lat="35.110010000" lon="-106.397708000">
        <ele>2271.790000</ele>
        <time>2026-05-03T20:06:42Z</time>
      </trkpt>
      <trkpt lat="35.109963000" lon="-106.397691000">
        <ele>2276.170000</ele>
        <time>2026-05-03T20:06:47Z</time>
      </trkpt>
      <trkpt lat="35.109955000" lon="-106.397690000">
        <ele>2274.170000</ele>
        <time>2026-05-03T20:06:48Z</time>
      </trkpt>
      <trkpt lat="35.109929000" lon="-106.397694000">
        <ele>2272.450000</ele>
        <time>2026-05-03T20:06:51Z</time>
      </trkpt>
      <trkpt lat="35.109854000" lon="-106.397662000">
        <ele>2269.900000</ele>
        <time>2026-05-03T20:06:57Z</time>
      </trkpt>
      <trkpt lat="35.109831000" lon="-106.397643000">
        <ele>2268.960000</ele>
        <time>2026-05-03T20:06:59Z</time>
      </trkpt>
      <trkpt lat="35.109820000" lon="-106.397635000">
        <ele>2268.660000</ele>
        <time>2026-05-03T20:07:00Z</time>
      </trkpt>
      <trkpt lat="35.109707000" lon="-106.397568000">
        <ele>2272.170000</ele>
        <time>2026-05-03T20:07:13Z</time>
      </trkpt>
      <trkpt lat="35.109664000" lon="-106.397533000">
        <ele>2275.540000</ele>
        <time>2026-05-03T20:07:19Z</time>
      </trkpt>
      <trkpt lat="35.109659000" lon="-106.397525000">
        <ele>2276.940000</ele>
        <time>2026-05-03T20:07:20Z</time>
      </trkpt>
      <trkpt lat="35.109590000" lon="-106.397497000">
        <ele>2273.800000</ele>
        <time>2026-05-03T20:07:29Z</time>
      </trkpt>
      <trkpt lat="35.109560000" lon="-106.397462000">
        <ele>2271.070000</ele>
        <time>2026-05-03T20:07:34Z</time>
      </trkpt>
      <trkpt lat="35.109508000" lon="-106.397451000">
        <ele>2274.440000</ele>
        <time>2026-05-03T20:07:39Z</time>
      </trkpt>
      <trkpt lat="35.109500000" lon="-106.397452000">
        <ele>2274.290000</ele>
        <time>2026-05-03T20:07:40Z</time>
      </trkpt>
      <trkpt lat="35.109318000" lon="-106.397384000">
        <ele>2273.030000</ele>
        <time>2026-05-03T20:08:05Z</time>
      </trkpt>
      <trkpt lat="35.109313000" lon="-106.397379000">
        <ele>2272.940000</ele>
        <time>2026-05-03T20:08:06Z</time>
      </trkpt>
      <trkpt lat="35.109268000" lon="-106.397357000">
        <ele>2272.180000</ele>
        <time>2026-05-03T20:08:16Z</time>
      </trkpt>
      <trkpt lat="35.109248000" lon="-106.397367000">
        <ele>2271.290000</ele>
        <time>2026-05-03T20:08:19Z</time>
      </trkpt>
      <trkpt lat="35.109145000" lon="-106.397351000">
        <ele>2270.120000</ele>
        <time>2026-05-03T20:08:42Z</time>
      </trkpt>
      <trkpt lat="35.109140000" lon="-106.397350000">
        <ele>2270.770000</ele>
        <time>2026-05-03T20:08:43Z</time>
      </trkpt>
      <trkpt lat="35.109059000" lon="-106.397373000">
        <ele>2276.030000</ele>
        <time>2026-05-03T20:08:59Z</time>
      </trkpt>
      <trkpt lat="35.109036000" lon="-106.397388000">
        <ele>2276.330000</ele>
        <time>2026-05-03T20:09:03Z</time>
      </trkpt>
      <trkpt lat="35.109029000" lon="-106.397419000">
        <ele>2275.870000</ele>
        <time>2026-05-03T20:10:01Z</time>
      </trkpt>
      <trkpt lat="35.109008000" lon="-106.397422000">
        <ele>2271.220000</ele>
        <time>2026-05-03T20:10:36Z</time>
      </trkpt>
      <trkpt lat="35.108981000" lon="-106.397444000">
        <ele>2268.920000</ele>
        <time>2026-05-03T20:10:41Z</time>
      </trkpt>
      <trkpt lat="35.108977000" lon="-106.397447000">
        <ele>2268.690000</ele>
        <time>2026-05-03T20:10:42Z</time>
      </trkpt>
      <trkpt lat="35.108923000" lon="-106.397503000">
        <ele>2269.490000</ele>
        <time>2026-05-03T20:10:56Z</time>
      </trkpt>
      <trkpt lat="35.108865000" lon="-106.397595000">
        <ele>2261.760000</ele>
        <time>2026-05-03T20:11:07Z</time>
      </trkpt>
      <trkpt lat="35.108862000" lon="-106.397606000">
        <ele>2261.010000</ele>
        <time>2026-05-03T20:11:08Z</time>
      </trkpt>
      <trkpt lat="35.108870000" lon="-106.397581000">
        <ele>2261.700000</ele>
        <time>2026-05-03T20:16:36Z</time>
      </trkpt>
      <trkpt lat="35.108863000" lon="-106.397549000">
        <ele>2263.990000</ele>
        <time>2026-05-03T20:28:59Z</time>
      </trkpt>
      <trkpt lat="35.108888000" lon="-106.397556000">
        <ele>2269.050000</ele>
        <time>2026-05-03T20:46:45Z</time>
      </trkpt>
      <trkpt lat="35.108879000" lon="-106.397526000">
        <ele>2269.030000</ele>
        <time>2026-05-03T20:47:12Z</time>
      </trkpt>
      <trkpt lat="35.108865000" lon="-106.397510000">
        <ele>2269.420000</ele>
        <time>2026-05-03T20:47:15Z</time>
      </trkpt>
      <trkpt lat="35.108842000" lon="-106.397520000">
        <ele>2270.710000</ele>
        <time>2026-05-03T20:47:17Z</time>
      </trkpt>
      <trkpt lat="35.108821000" lon="-106.397494000">
        <ele>2272.130000</ele>
        <time>2026-05-03T20:47:20Z</time>
      </trkpt>
      <trkpt lat="35.108812000" lon="-106.397487000">
        <ele>2274.530000</ele>
        <time>2026-05-03T20:47:21Z</time>
      </trkpt>
      <trkpt lat="35.108784000" lon="-106.397465000">
        <ele>2276.060000</ele>
        <time>2026-05-03T20:47:25Z</time>
      </trkpt>
      <trkpt lat="35.108786000" lon="-106.397433000">
        <ele>2277.820000</ele>
        <time>2026-05-03T20:47:28Z</time>
      </trkpt>
      <trkpt lat="35.108761000" lon="-106.397389000">
        <ele>2279.110000</ele>
        <time>2026-05-03T20:47:34Z</time>
      </trkpt>
      <trkpt lat="35.108758000" lon="-106.397301000">
        <ele>2279.910000</ele>
        <time>2026-05-03T20:47:42Z</time>
      </trkpt>
      <trkpt lat="35.108770000" lon="-106.397285000">
        <ele>2277.880000</ele>
        <time>2026-05-03T20:47:44Z</time>
      </trkpt>
      <trkpt lat="35.108750000" lon="-106.397271000">
        <ele>2277.920000</ele>
        <time>2026-05-03T20:47:46Z</time>
      </trkpt>
      <trkpt lat="35.108724000" lon="-106.397265000">
        <ele>2277.760000</ele>
        <time>2026-05-03T20:47:49Z</time>
      </trkpt>
      <trkpt lat="35.108633000" lon="-106.397269000">
        <ele>2269.220000</ele>
        <time>2026-05-03T20:48:08Z</time>
      </trkpt>
      <trkpt lat="35.108610000" lon="-106.397288000">
        <ele>2270.890000</ele>
        <time>2026-05-03T20:48:11Z</time>
      </trkpt>
      <trkpt lat="35.108605000" lon="-106.397288000">
        <ele>2271.080000</ele>
        <time>2026-05-03T20:48:12Z</time>
      </trkpt>
      <trkpt lat="35.108561000" lon="-106.397302000">
        <ele>2272.610000</ele>
        <time>2026-05-03T20:48:20Z</time>
      </trkpt>
      <trkpt lat="35.108558000" lon="-106.397332000">
        <ele>2272.440000</ele>
        <time>2026-05-03T20:48:24Z</time>
      </trkpt>
      <trkpt lat="35.108462000" lon="-106.397329000">
        <ele>2272.060000</ele>
        <time>2026-05-03T20:48:36Z</time>
      </trkpt>
      <trkpt lat="35.108453000" lon="-106.397333000">
        <ele>2272.530000</ele>
        <time>2026-05-03T20:48:37Z</time>
      </trkpt>
      <trkpt lat="35.108358000" lon="-106.397354000">
        <ele>2275.810000</ele>
        <time>2026-05-03T20:48:46Z</time>
      </trkpt>
      <trkpt lat="35.108288000" lon="-106.397337000">
        <ele>2274.960000</ele>
        <time>2026-05-03T20:48:55Z</time>
      </trkpt>
      <trkpt lat="35.108280000" lon="-106.397338000">
        <ele>2274.800000</ele>
        <time>2026-05-03T20:48:56Z</time>
      </trkpt>
      <trkpt lat="35.108212000" lon="-106.397371000">
        <ele>2273.900000</ele>
        <time>2026-05-03T20:49:04Z</time>
      </trkpt>
      <trkpt lat="35.108172000" lon="-106.397362000">
        <ele>2273.090000</ele>
        <time>2026-05-03T20:49:07Z</time>
      </trkpt>
      <trkpt lat="35.108150000" lon="-106.397368000">
        <ele>2272.960000</ele>
        <time>2026-05-03T20:49:09Z</time>
      </trkpt>
      <trkpt lat="35.108124000" lon="-106.397400000">
        <ele>2273.230000</ele>
        <time>2026-05-03T20:49:12Z</time>
      </trkpt>
      <trkpt lat="35.108117000" lon="-106.397413000">
        <ele>2272.580000</ele>
        <time>2026-05-03T20:49:13Z</time>
      </trkpt>
      <trkpt lat="35.108050000" lon="-106.397407000">
        <ele>2268.380000</ele>
        <time>2026-05-03T20:49:18Z</time>
      </trkpt>
      <trkpt lat="35.107993000" lon="-106.397421000">
        <ele>2268.100000</ele>
        <time>2026-05-03T20:49:24Z</time>
      </trkpt>
      <trkpt lat="35.107965000" lon="-106.397407000">
        <ele>2268.250000</ele>
        <time>2026-05-03T20:49:27Z</time>
      </trkpt>
      <trkpt lat="35.107957000" lon="-106.397404000">
        <ele>2267.470000</ele>
        <time>2026-05-03T20:49:28Z</time>
      </trkpt>
      <trkpt lat="35.107899000" lon="-106.397392000">
        <ele>2266.330000</ele>
        <time>2026-05-03T20:49:34Z</time>
      </trkpt>
      <trkpt lat="35.107890000" lon="-106.397418000">
        <ele>2266.660000</ele>
        <time>2026-05-03T20:49:36Z</time>
      </trkpt>
      <trkpt lat="35.107840000" lon="-106.397397000">
        <ele>2271.250000</ele>
        <time>2026-05-03T20:49:43Z</time>
      </trkpt>
      <trkpt lat="35.107784000" lon="-106.397406000">
        <ele>2271.070000</ele>
        <time>2026-05-03T20:49:48Z</time>
      </trkpt>
      <trkpt lat="35.107770000" lon="-106.397408000">
        <ele>2272.530000</ele>
        <time>2026-05-03T20:49:49Z</time>
      </trkpt>
      <trkpt lat="35.107737000" lon="-106.397415000">
        <ele>2272.890000</ele>
        <time>2026-05-03T20:49:52Z</time>
      </trkpt>
      <trkpt lat="35.107720000" lon="-106.397429000">
        <ele>2271.520000</ele>
        <time>2026-05-03T20:49:57Z</time>
      </trkpt>
      <trkpt lat="35.107695000" lon="-106.397430000">
        <ele>2266.030000</ele>
        <time>2026-05-03T20:49:59Z</time>
      </trkpt>
      <trkpt lat="35.107601000" lon="-106.397472000">
        <ele>2266.110000</ele>
        <time>2026-05-03T20:52:43Z</time>
      </trkpt>
      <trkpt lat="35.107594000" lon="-106.397472000">
        <ele>2268.060000</ele>
        <time>2026-05-03T20:52:44Z</time>
      </trkpt>
      <trkpt lat="35.107504000" lon="-106.397462000">
        <ele>2268.090000</ele>
        <time>2026-05-03T20:52:53Z</time>
      </trkpt>
      <trkpt lat="35.107449000" lon="-106.397487000">
        <ele>2267.780000</ele>
        <time>2026-05-03T20:52:59Z</time>
      </trkpt>
      <trkpt lat="35.107438000" lon="-106.397481000">
        <ele>2268.180000</ele>
        <time>2026-05-03T20:53:00Z</time>
      </trkpt>
      <trkpt lat="35.107427000" lon="-106.397476000">
        <ele>2268.120000</ele>
        <time>2026-05-03T20:53:01Z</time>
      </trkpt>
      <trkpt lat="35.107361000" lon="-106.397447000">
        <ele>2268.080000</ele>
        <time>2026-05-03T20:53:08Z</time>
      </trkpt>
      <trkpt lat="35.107274000" lon="-106.397448000">
        <ele>2269.300000</ele>
        <time>2026-05-03T20:53:17Z</time>
      </trkpt>
      <trkpt lat="35.107264000" lon="-106.397448000">
        <ele>2268.920000</ele>
        <time>2026-05-03T20:53:18Z</time>
      </trkpt>
      <trkpt lat="35.107222000" lon="-106.397410000">
        <ele>2265.360000</ele>
        <time>2026-05-03T20:53:38Z</time>
      </trkpt>
      <trkpt lat="35.107195000" lon="-106.397415000">
        <ele>2262.710000</ele>
        <time>2026-05-03T20:53:56Z</time>
      </trkpt>
      <trkpt lat="35.107206000" lon="-106.397386000">
        <ele>2261.830000</ele>
        <time>2026-05-03T20:54:17Z</time>
      </trkpt>
      <trkpt lat="35.107230000" lon="-106.397376000">
        <ele>2262.160000</ele>
        <time>2026-05-03T20:54:23Z</time>
      </trkpt>
      <trkpt lat="35.107190000" lon="-106.397415000">
        <ele>2260.990000</ele>
        <time>2026-05-03T20:54:39Z</time>
      </trkpt>
      <trkpt lat="35.107183000" lon="-106.397414000">
        <ele>2260.920000</ele>
        <time>2026-05-03T20:54:40Z</time>
      </trkpt>
      <trkpt lat="35.107158000" lon="-106.397430000">
        <ele>2261.020000</ele>
        <time>2026-05-03T20:55:34Z</time>
      </trkpt>
      <trkpt lat="35.107135000" lon="-106.397423000">
        <ele>2260.210000</ele>
        <time>2026-05-03T20:55:37Z</time>
      </trkpt>
      <trkpt lat="35.107091000" lon="-106.397427000">
        <ele>2262.280000</ele>
        <time>2026-05-03T20:55:42Z</time>
      </trkpt>
      <trkpt lat="35.107023000" lon="-106.397406000">
        <ele>2265.340000</ele>
        <time>2026-05-03T20:55:49Z</time>
      </trkpt>
      <trkpt lat="35.107008000" lon="-106.397405000">
        <ele>2265.540000</ele>
        <time>2026-05-03T20:55:50Z</time>
      </trkpt>
      <trkpt lat="35.106955000" lon="-106.397411000">
        <ele>2265.470000</ele>
        <time>2026-05-03T20:55:55Z</time>
      </trkpt>
      <trkpt lat="35.106827000" lon="-106.397398000">
        <ele>2268.040000</ele>
        <time>2026-05-03T20:56:07Z</time>
      </trkpt>
      <trkpt lat="35.106817000" lon="-106.397397000">
        <ele>2268.050000</ele>
        <time>2026-05-03T20:56:08Z</time>
      </trkpt>
      <trkpt lat="35.106642000" lon="-106.397347000">
        <ele>2264.880000</ele>
        <time>2026-05-03T20:56:24Z</time>
      </trkpt>
      <trkpt lat="35.106631000" lon="-106.397346000">
        <ele>2264.540000</ele>
        <time>2026-05-03T20:56:25Z</time>
      </trkpt>
      <trkpt lat="35.106518000" lon="-106.397302000">
        <ele>2264.840000</ele>
        <time>2026-05-03T20:56:37Z</time>
      </trkpt>
      <trkpt lat="35.106464000" lon="-106.397308000">
        <ele>2261.390000</ele>
        <time>2026-05-03T20:56:44Z</time>
      </trkpt>
      <trkpt lat="35.106456000" lon="-106.397310000">
        <ele>2260.910000</ele>
        <time>2026-05-03T20:56:45Z</time>
      </trkpt>
      <trkpt lat="35.106424000" lon="-106.397306000">
        <ele>2260.200000</ele>
        <time>2026-05-03T20:56:49Z</time>
      </trkpt>
      <trkpt lat="35.106362000" lon="-106.397318000">
        <ele>2258.760000</ele>
        <time>2026-05-03T20:56:56Z</time>
      </trkpt>
      <trkpt lat="35.106288000" lon="-106.397342000">
        <ele>2255.220000</ele>
        <time>2026-05-03T20:57:05Z</time>
      </trkpt>
      <trkpt lat="35.106280000" lon="-106.397346000">
        <ele>2254.990000</ele>
        <time>2026-05-03T20:57:06Z</time>
      </trkpt>
      <trkpt lat="35.106239000" lon="-106.397390000">
        <ele>2252.440000</ele>
        <time>2026-05-03T20:57:14Z</time>
      </trkpt>
      <trkpt lat="35.106197000" lon="-106.397407000">
        <ele>2251.450000</ele>
        <time>2026-05-03T20:57:21Z</time>
      </trkpt>
      <trkpt lat="35.106123000" lon="-106.397458000">
        <ele>2249.800000</ele>
        <time>2026-05-03T20:57:34Z</time>
      </trkpt>
      <trkpt lat="35.106118000" lon="-106.397467000">
        <ele>2250.470000</ele>
        <time>2026-05-03T20:57:35Z</time>
      </trkpt>
      <trkpt lat="35.106108000" lon="-106.397524000">
        <ele>2250.320000</ele>
        <time>2026-05-03T20:57:40Z</time>
      </trkpt>
      <trkpt lat="35.106120000" lon="-106.397610000">
        <ele>2251.840000</ele>
        <time>2026-05-03T20:57:49Z</time>
      </trkpt>
      <trkpt lat="35.106103000" lon="-106.397635000">
        <ele>2251.530000</ele>
        <time>2026-05-03T20:58:07Z</time>
      </trkpt>
      <trkpt lat="35.106111000" lon="-106.397672000">
        <ele>2251.540000</ele>
        <time>2026-05-03T20:58:29Z</time>
      </trkpt>
      <trkpt lat="35.106113000" lon="-106.397678000">
        <ele>2251.690000</ele>
        <time>2026-05-03T20:58:30Z</time>
      </trkpt>
      <trkpt lat="35.106129000" lon="-106.397711000">
        <ele>2250.440000</ele>
        <time>2026-05-03T20:59:19Z</time>
      </trkpt>
      <trkpt lat="35.106115000" lon="-106.397694000">
        <ele>2250.340000</ele>
        <time>2026-05-03T20:59:23Z</time>
      </trkpt>
      <trkpt lat="35.106136000" lon="-106.397684000">
        <ele>2252.270000</ele>
        <time>2026-05-03T20:59:31Z</time>
      </trkpt>
      <trkpt lat="35.106149000" lon="-106.397756000">
        <ele>2253.600000</ele>
        <time>2026-05-03T20:59:40Z</time>
      </trkpt>
      <trkpt lat="35.106171000" lon="-106.397779000">
        <ele>2253.390000</ele>
        <time>2026-05-03T20:59:44Z</time>
      </trkpt>
      <trkpt lat="35.106174000" lon="-106.397788000">
        <ele>2253.650000</ele>
        <time>2026-05-03T20:59:45Z</time>
      </trkpt>
      <trkpt lat="35.106194000" lon="-106.397845000">
        <ele>2252.930000</ele>
        <time>2026-05-03T20:59:50Z</time>
      </trkpt>
      <trkpt lat="35.106193000" lon="-106.397914000">
        <ele>2254.630000</ele>
        <time>2026-05-03T21:00:53Z</time>
      </trkpt>
      <trkpt lat="35.106261000" lon="-106.397923000">
        <ele>2253.580000</ele>
        <time>2026-05-03T21:00:55Z</time>
      </trkpt>
      <trkpt lat="35.106260000" lon="-106.397873000">
        <ele>2254.130000</ele>
        <time>2026-05-03T21:00:56Z</time>
      </trkpt>
      <trkpt lat="35.106238000" lon="-106.397865000">
        <ele>2253.920000</ele>
        <time>2026-05-03T21:00:57Z</time>
      </trkpt>
      <trkpt lat="35.106232000" lon="-106.397854000">
        <ele>2253.870000</ele>
        <time>2026-05-03T21:00:58Z</time>
      </trkpt>
      <trkpt lat="35.106228000" lon="-106.397887000">
        <ele>2253.850000</ele>
        <time>2026-05-03T21:01:06Z</time>
      </trkpt>
      <trkpt lat="35.106207000" lon="-106.397871000">
        <ele>2254.090000</ele>
        <time>2026-05-03T21:01:07Z</time>
      </trkpt>
      <trkpt lat="35.106227000" lon="-106.397870000">
        <ele>2252.130000</ele>
        <time>2026-05-03T21:01:14Z</time>
      </trkpt>
      <trkpt lat="35.106240000" lon="-106.397892000">
        <ele>2258.300000</ele>
        <time>2026-05-03T21:01:19Z</time>
      </trkpt>
      <trkpt lat="35.106214000" lon="-106.397921000">
        <ele>2257.410000</ele>
        <time>2026-05-03T21:01:23Z</time>
      </trkpt>
      <trkpt lat="35.106202000" lon="-106.397962000">
        <ele>2258.520000</ele>
        <time>2026-05-03T21:01:31Z</time>
      </trkpt>
      <trkpt lat="35.106186000" lon="-106.397984000">
        <ele>2258.820000</ele>
        <time>2026-05-03T21:01:32Z</time>
      </trkpt>
      <trkpt lat="35.106182000" lon="-106.398013000">
        <ele>2261.600000</ele>
        <time>2026-05-03T21:01:37Z</time>
      </trkpt>
      <trkpt lat="35.106168000" lon="-106.398034000">
        <ele>2262.170000</ele>
        <time>2026-05-03T21:01:38Z</time>
      </trkpt>
      <trkpt lat="35.106084000" lon="-106.398108000">
        <ele>2254.100000</ele>
        <time>2026-05-03T21:01:57Z</time>
      </trkpt>
      <trkpt lat="35.106079000" lon="-106.398119000">
        <ele>2253.920000</ele>
        <time>2026-05-03T21:01:58Z</time>
      </trkpt>
      <trkpt lat="35.106007000" lon="-106.398093000">
        <ele>2253.450000</ele>
        <time>2026-05-03T21:02:00Z</time>
      </trkpt>
      <trkpt lat="35.106024000" lon="-106.398109000">
        <ele>2262.290000</ele>
        <time>2026-05-03T21:02:07Z</time>
      </trkpt>
      <trkpt lat="35.106014000" lon="-106.398161000">
        <ele>2256.670000</ele>
        <time>2026-05-03T21:02:09Z</time>
      </trkpt>
      <trkpt lat="35.105985000" lon="-106.398199000">
        <ele>2253.290000</ele>
        <time>2026-05-03T21:02:15Z</time>
      </trkpt>
      <trkpt lat="35.105962000" lon="-106.398253000">
        <ele>2246.810000</ele>
        <time>2026-05-03T21:02:28Z</time>
      </trkpt>
      <trkpt lat="35.105956000" lon="-106.398266000">
        <ele>2246.970000</ele>
        <time>2026-05-03T21:02:29Z</time>
      </trkpt>
      <trkpt lat="35.105894000" lon="-106.398308000">
        <ele>2249.320000</ele>
        <time>2026-05-03T21:03:58Z</time>
      </trkpt>
      <trkpt lat="35.105874000" lon="-106.398288000">
        <ele>2248.770000</ele>
        <time>2026-05-03T21:04:14Z</time>
      </trkpt>
      <trkpt lat="35.105863000" lon="-106.398312000">
        <ele>2247.910000</ele>
        <time>2026-05-03T21:04:16Z</time>
      </trkpt>
      <trkpt lat="35.105804000" lon="-106.398342000">
        <ele>2249.730000</ele>
        <time>2026-05-03T21:05:48Z</time>
      </trkpt>
      <trkpt lat="35.105795000" lon="-106.398352000">
        <ele>2249.330000</ele>
        <time>2026-05-03T21:05:49Z</time>
      </trkpt>
      <trkpt lat="35.105766000" lon="-106.398369000">
        <ele>2247.800000</ele>
        <time>2026-05-03T21:05:53Z</time>
      </trkpt>
      <trkpt lat="35.105670000" lon="-106.398488000">
        <ele>2246.360000</ele>
        <time>2026-05-03T21:06:07Z</time>
      </trkpt>
      <trkpt lat="35.105667000" lon="-106.398491000">
        <ele>2248.330000</ele>
        <time>2026-05-03T21:06:08Z</time>
      </trkpt>
      <trkpt lat="35.105598000" lon="-106.398604000">
        <ele>2245.130000</ele>
        <time>2026-05-03T21:06:23Z</time>
      </trkpt>
      <trkpt lat="35.105569000" lon="-106.398627000">
        <ele>2244.640000</ele>
        <time>2026-05-03T21:06:27Z</time>
      </trkpt>
      <trkpt lat="35.105593000" lon="-106.398599000">
        <ele>2248.700000</ele>
        <time>2026-05-03T21:06:28Z</time>
      </trkpt>
      <trkpt lat="35.105599000" lon="-106.398592000">
        <ele>2248.700000</ele>
        <time>2026-05-03T21:06:29Z</time>
      </trkpt>
      <trkpt lat="35.105567000" lon="-106.398644000">
        <ele>2246.340000</ele>
        <time>2026-05-03T21:07:53Z</time>
      </trkpt>
      <trkpt lat="35.105551000" lon="-106.398639000">
        <ele>2247.920000</ele>
        <time>2026-05-03T21:09:37Z</time>
      </trkpt>
      <trkpt lat="35.105489000" lon="-106.398674000">
        <ele>2247.730000</ele>
        <time>2026-05-03T21:09:42Z</time>
      </trkpt>
      <trkpt lat="35.105459000" lon="-106.398661000">
        <ele>2250.320000</ele>
        <time>2026-05-03T21:09:46Z</time>
      </trkpt>
      <trkpt lat="35.105459000" lon="-106.398656000">
        <ele>2250.150000</ele>
        <time>2026-05-03T21:09:47Z</time>
      </trkpt>
      <trkpt lat="35.105431000" lon="-106.398649000">
        <ele>2252.590000</ele>
        <time>2026-05-03T21:09:52Z</time>
      </trkpt>
      <trkpt lat="35.105361000" lon="-106.398665000">
        <ele>2251.530000</ele>
        <time>2026-05-03T21:10:07Z</time>
      </trkpt>
      <trkpt lat="35.105282000" lon="-106.398665000">
        <ele>2249.080000</ele>
        <time>2026-05-03T21:10:19Z</time>
      </trkpt>
      <trkpt lat="35.105273000" lon="-106.398669000">
        <ele>2247.880000</ele>
        <time>2026-05-03T21:10:20Z</time>
      </trkpt>
      <trkpt lat="35.105177000" lon="-106.398679000">
        <ele>2250.170000</ele>
        <time>2026-05-03T21:10:30Z</time>
      </trkpt>
      <trkpt lat="35.105124000" lon="-106.398741000">
        <ele>2250.640000</ele>
        <time>2026-05-03T21:10:42Z</time>
      </trkpt>
      <trkpt lat="35.105118000" lon="-106.398750000">
        <ele>2251.090000</ele>
        <time>2026-05-03T21:10:43Z</time>
      </trkpt>
      <trkpt lat="35.105003000" lon="-106.398901000">
        <ele>2251.520000</ele>
        <time>2026-05-03T21:11:00Z</time>
      </trkpt>
      <trkpt lat="35.104998000" lon="-106.398915000">
        <ele>2251.580000</ele>
        <time>2026-05-03T21:11:01Z</time>
      </trkpt>
      <trkpt lat="35.104994000" lon="-106.398953000">
        <ele>2251.760000</ele>
        <time>2026-05-03T21:11:05Z</time>
      </trkpt>
      <trkpt lat="35.105005000" lon="-106.399011000">
        <ele>2251.950000</ele>
        <time>2026-05-03T21:11:11Z</time>
      </trkpt>
      <trkpt lat="35.104979000" lon="-106.399117000">
        <ele>2244.230000</ele>
        <time>2026-05-03T21:11:18Z</time>
      </trkpt>
      <trkpt lat="35.104975000" lon="-106.399129000">
        <ele>2244.440000</ele>
        <time>2026-05-03T21:11:19Z</time>
      </trkpt>
      <trkpt lat="35.104959000" lon="-106.399191000">
        <ele>2244.760000</ele>
        <time>2026-05-03T21:11:24Z</time>
      </trkpt>
      <trkpt lat="35.104966000" lon="-106.399252000">
        <ele>2241.230000</ele>
        <time>2026-05-03T21:11:30Z</time>
      </trkpt>
      <trkpt lat="35.104937000" lon="-106.399337000">
        <ele>2239.670000</ele>
        <time>2026-05-03T21:11:39Z</time>
      </trkpt>
      <trkpt lat="35.104929000" lon="-106.399347000">
        <ele>2239.950000</ele>
        <time>2026-05-03T21:11:40Z</time>
      </trkpt>
      <trkpt lat="35.104912000" lon="-106.399374000">
        <ele>2240.660000</ele>
        <time>2026-05-03T21:11:43Z</time>
      </trkpt>
      <trkpt lat="35.104888000" lon="-106.399372000">
        <ele>2239.340000</ele>
        <time>2026-05-03T21:11:50Z</time>
      </trkpt>
      <trkpt lat="35.104866000" lon="-106.399386000">
        <ele>2239.960000</ele>
        <time>2026-05-03T21:11:56Z</time>
      </trkpt>
      <trkpt lat="35.104846000" lon="-106.399427000">
        <ele>2237.840000</ele>
        <time>2026-05-03T21:13:03Z</time>
      </trkpt>
      <trkpt lat="35.104858000" lon="-106.399449000">
        <ele>2237.760000</ele>
        <time>2026-05-03T21:13:04Z</time>
      </trkpt>
      <trkpt lat="35.104886000" lon="-106.399424000">
        <ele>2240.910000</ele>
        <time>2026-05-03T21:13:34Z</time>
      </trkpt>
      <trkpt lat="35.104888000" lon="-106.399420000">
        <ele>2240.090000</ele>
        <time>2026-05-03T21:13:35Z</time>
      </trkpt>
      <trkpt lat="35.104827000" lon="-106.399417000">
        <ele>2242.110000</ele>
        <time>2026-05-03T21:13:56Z</time>
      </trkpt>
      <trkpt lat="35.104810000" lon="-106.399390000">
        <ele>2243.760000</ele>
        <time>2026-05-03T21:13:58Z</time>
      </trkpt>
      <trkpt lat="35.104766000" lon="-106.399361000">
        <ele>2243.940000</ele>
        <time>2026-05-03T21:14:05Z</time>
      </trkpt>
      <trkpt lat="35.104758000" lon="-106.399357000">
        <ele>2245.100000</ele>
        <time>2026-05-03T21:14:06Z</time>
      </trkpt>
      <trkpt lat="35.104618000" lon="-106.399237000">
        <ele>2245.930000</ele>
        <time>2026-05-03T21:14:26Z</time>
      </trkpt>
      <trkpt lat="35.104613000" lon="-106.399232000">
        <ele>2246.250000</ele>
        <time>2026-05-03T21:14:27Z</time>
      </trkpt>
      <trkpt lat="35.104587000" lon="-106.399217000">
        <ele>2246.940000</ele>
        <time>2026-05-03T21:14:30Z</time>
      </trkpt>
      <trkpt lat="35.104517000" lon="-106.399201000">
        <ele>2244.250000</ele>
        <time>2026-05-03T21:14:40Z</time>
      </trkpt>
      <trkpt lat="35.104457000" lon="-106.399149000">
        <ele>2245.010000</ele>
        <time>2026-05-03T21:14:51Z</time>
      </trkpt>
      <trkpt lat="35.104445000" lon="-106.399143000">
        <ele>2245.190000</ele>
        <time>2026-05-03T21:14:52Z</time>
      </trkpt>
      <trkpt lat="35.104432000" lon="-106.399108000">
        <ele>2242.730000</ele>
        <time>2026-05-03T21:14:58Z</time>
      </trkpt>
      <trkpt lat="35.104390000" lon="-106.399050000">
        <ele>2241.390000</ele>
        <time>2026-05-03T21:15:06Z</time>
      </trkpt>
      <trkpt lat="35.104349000" lon="-106.399019000">
        <ele>2242.590000</ele>
        <time>2026-05-03T21:15:14Z</time>
      </trkpt>
      <trkpt lat="35.104342000" lon="-106.398987000">
        <ele>2240.890000</ele>
        <time>2026-05-03T21:15:17Z</time>
      </trkpt>
      <trkpt lat="35.104339000" lon="-106.398980000">
        <ele>2240.180000</ele>
        <time>2026-05-03T21:15:18Z</time>
      </trkpt>
      <trkpt lat="35.104210000" lon="-106.398822000">
        <ele>2240.280000</ele>
        <time>2026-05-03T21:15:39Z</time>
      </trkpt>
      <trkpt lat="35.104203000" lon="-106.398810000">
        <ele>2240.110000</ele>
        <time>2026-05-03T21:15:40Z</time>
      </trkpt>
      <trkpt lat="35.104142000" lon="-106.398749000">
        <ele>2240.140000</ele>
        <time>2026-05-03T21:15:50Z</time>
      </trkpt>
      <trkpt lat="35.104086000" lon="-106.398665000">
        <ele>2239.150000</ele>
        <time>2026-05-03T21:15:59Z</time>
      </trkpt>
      <trkpt lat="35.104081000" lon="-106.398653000">
        <ele>2238.740000</ele>
        <time>2026-05-03T21:16:00Z</time>
      </trkpt>
      <trkpt lat="35.103984000" lon="-106.398504000">
        <ele>2232.880000</ele>
        <time>2026-05-03T21:16:19Z</time>
      </trkpt>
      <trkpt lat="35.103986000" lon="-106.398468000">
        <ele>2230.570000</ele>
        <time>2026-05-03T21:16:24Z</time>
      </trkpt>
      <trkpt lat="35.103986000" lon="-106.398461000">
        <ele>2230.490000</ele>
        <time>2026-05-03T21:16:25Z</time>
      </trkpt>
      <trkpt lat="35.103934000" lon="-106.398305000">
        <ele>2227.980000</ele>
        <time>2026-05-03T21:16:51Z</time>
      </trkpt>
      <trkpt lat="35.103920000" lon="-106.398289000">
        <ele>2228.050000</ele>
        <time>2026-05-03T21:16:55Z</time>
      </trkpt>
      <trkpt lat="35.103921000" lon="-106.398269000">
        <ele>2228.130000</ele>
        <time>2026-05-03T21:16:56Z</time>
      </trkpt>
      <trkpt lat="35.103926000" lon="-106.398261000">
        <ele>2228.610000</ele>
        <time>2026-05-03T21:16:57Z</time>
      </trkpt>
      <trkpt lat="35.103932000" lon="-106.398250000">
        <ele>2227.960000</ele>
        <time>2026-05-03T21:16:58Z</time>
      </trkpt>
      <trkpt lat="35.103918000" lon="-106.398195000">
        <ele>2225.890000</ele>
        <time>2026-05-03T21:17:05Z</time>
      </trkpt>
      <trkpt lat="35.103923000" lon="-106.398145000">
        <ele>2225.190000</ele>
        <time>2026-05-03T21:17:11Z</time>
      </trkpt>
      <trkpt lat="35.103904000" lon="-106.398092000">
        <ele>2223.660000</ele>
        <time>2026-05-03T21:17:21Z</time>
      </trkpt>
      <trkpt lat="35.103912000" lon="-106.398056000">
        <ele>2224.210000</ele>
        <time>2026-05-03T21:17:25Z</time>
      </trkpt>
      <trkpt lat="35.103914000" lon="-106.398046000">
        <ele>2224.850000</ele>
        <time>2026-05-03T21:17:26Z</time>
      </trkpt>
      <trkpt lat="35.103921000" lon="-106.397972000">
        <ele>2224.070000</ele>
        <time>2026-05-03T21:17:33Z</time>
      </trkpt>
      <trkpt lat="35.103866000" lon="-106.397843000">
        <ele>2217.490000</ele>
        <time>2026-05-03T21:17:52Z</time>
      </trkpt>
      <trkpt lat="35.103865000" lon="-106.397835000">
        <ele>2217.510000</ele>
        <time>2026-05-03T21:17:53Z</time>
      </trkpt>
      <trkpt lat="35.103876000" lon="-106.397776000">
        <ele>2214.030000</ele>
        <time>2026-05-03T21:18:01Z</time>
      </trkpt>
      <trkpt lat="35.103864000" lon="-106.397750000">
        <ele>2213.280000</ele>
        <time>2026-05-03T21:18:05Z</time>
      </trkpt>
      <trkpt lat="35.103836000" lon="-106.397713000">
        <ele>2215.270000</ele>
        <time>2026-05-03T21:18:11Z</time>
      </trkpt>
      <trkpt lat="35.103789000" lon="-106.397691000">
        <ele>2215.610000</ele>
        <time>2026-05-03T21:18:18Z</time>
      </trkpt>
      <trkpt lat="35.103783000" lon="-106.397687000">
        <ele>2215.930000</ele>
        <time>2026-05-03T21:18:19Z</time>
      </trkpt>
      <trkpt lat="35.103739000" lon="-106.397672000">
        <ele>2217.150000</ele>
        <time>2026-05-03T21:18:25Z</time>
      </trkpt>
      <trkpt lat="35.103704000" lon="-106.397636000">
        <ele>2218.150000</ele>
        <time>2026-05-03T21:18:33Z</time>
      </trkpt>
      <trkpt lat="35.103632000" lon="-106.397601000">
        <ele>2216.190000</ele>
        <time>2026-05-03T21:18:39Z</time>
      </trkpt>
      <trkpt lat="35.103619000" lon="-106.397590000">
        <ele>2216.000000</ele>
        <time>2026-05-03T21:18:40Z</time>
      </trkpt>
      <trkpt lat="35.103548000" lon="-106.397557000">
        <ele>2220.540000</ele>
        <time>2026-05-03T21:18:47Z</time>
      </trkpt>
      <trkpt lat="35.103483000" lon="-106.397491000">
        <ele>2220.500000</ele>
        <time>2026-05-03T21:18:54Z</time>
      </trkpt>
      <trkpt lat="35.103476000" lon="-106.397480000">
        <ele>2221.190000</ele>
        <time>2026-05-03T21:18:55Z</time>
      </trkpt>
      <trkpt lat="35.103359000" lon="-106.397355000">
        <ele>2219.660000</ele>
        <time>2026-05-03T21:19:09Z</time>
      </trkpt>
      <trkpt lat="35.103351000" lon="-106.397350000">
        <ele>2219.320000</ele>
        <time>2026-05-03T21:19:10Z</time>
      </trkpt>
      <trkpt lat="35.103318000" lon="-106.397330000">
        <ele>2219.380000</ele>
        <time>2026-05-03T21:19:14Z</time>
      </trkpt>
      <trkpt lat="35.103193000" lon="-106.397294000">
        <ele>2215.450000</ele>
        <time>2026-05-03T21:19:27Z</time>
      </trkpt>
      <trkpt lat="35.103174000" lon="-106.397290000">
        <ele>2214.960000</ele>
        <time>2026-05-03T21:19:28Z</time>
      </trkpt>
      <trkpt lat="35.102989000" lon="-106.397285000">
        <ele>2215.610000</ele>
        <time>2026-05-03T21:19:58Z</time>
      </trkpt>
      <trkpt lat="35.102982000" lon="-106.397283000">
        <ele>2215.100000</ele>
        <time>2026-05-03T21:19:59Z</time>
      </trkpt>
      <trkpt lat="35.102886000" lon="-106.397323000">
        <ele>2212.900000</ele>
        <time>2026-05-03T21:20:13Z</time>
      </trkpt>
      <trkpt lat="35.102848000" lon="-106.397356000">
        <ele>2213.600000</ele>
        <time>2026-05-03T21:20:19Z</time>
      </trkpt>
      <trkpt lat="35.102818000" lon="-106.397360000">
        <ele>2213.350000</ele>
        <time>2026-05-03T21:20:22Z</time>
      </trkpt>
      <trkpt lat="35.102810000" lon="-106.397365000">
        <ele>2213.510000</ele>
        <time>2026-05-03T21:20:23Z</time>
      </trkpt>
      <trkpt lat="35.102699000" lon="-106.397432000">
        <ele>2212.240000</ele>
        <time>2026-05-03T21:20:36Z</time>
      </trkpt>
      <trkpt lat="35.102657000" lon="-106.397477000">
        <ele>2215.210000</ele>
        <time>2026-05-03T21:20:42Z</time>
      </trkpt>
      <trkpt lat="35.102642000" lon="-106.397483000">
        <ele>2215.040000</ele>
        <time>2026-05-03T21:20:43Z</time>
      </trkpt>
      <trkpt lat="35.102587000" lon="-106.397473000">
        <ele>2212.650000</ele>
        <time>2026-05-03T21:20:47Z</time>
      </trkpt>
      <trkpt lat="35.102515000" lon="-106.397430000">
        <ele>2210.670000</ele>
        <time>2026-05-03T21:20:54Z</time>
      </trkpt>
      <trkpt lat="35.102488000" lon="-106.397425000">
        <ele>2211.400000</ele>
        <time>2026-05-03T21:20:57Z</time>
      </trkpt>
      <trkpt lat="35.102480000" lon="-106.397420000">
        <ele>2210.200000</ele>
        <time>2026-05-03T21:20:58Z</time>
      </trkpt>
      <trkpt lat="35.102407000" lon="-106.397388000">
        <ele>2215.420000</ele>
        <time>2026-05-03T21:22:15Z</time>
      </trkpt>
      <trkpt lat="35.102366000" lon="-106.397389000">
        <ele>2218.300000</ele>
        <time>2026-05-03T21:22:20Z</time>
      </trkpt>
      <trkpt lat="35.102343000" lon="-106.397378000">
        <ele>2217.980000</ele>
        <time>2026-05-03T21:22:23Z</time>
      </trkpt>
      <trkpt lat="35.102306000" lon="-106.397387000">
        <ele>2217.990000</ele>
        <time>2026-05-03T21:22:27Z</time>
      </trkpt>
      <trkpt lat="35.102293000" lon="-106.397393000">
        <ele>2217.680000</ele>
        <time>2026-05-03T21:22:28Z</time>
      </trkpt>
      <trkpt lat="35.102234000" lon="-106.397399000">
        <ele>2217.080000</ele>
        <time>2026-05-03T21:22:34Z</time>
      </trkpt>
      <trkpt lat="35.102215000" lon="-106.397419000">
        <ele>2214.930000</ele>
        <time>2026-05-03T21:22:51Z</time>
      </trkpt>
      <trkpt lat="35.102106000" lon="-106.397400000">
        <ele>2213.380000</ele>
        <time>2026-05-03T21:23:06Z</time>
      </trkpt>
      <trkpt lat="35.102098000" lon="-106.397399000">
        <ele>2214.260000</ele>
        <time>2026-05-03T21:23:07Z</time>
      </trkpt>
      <trkpt lat="35.102045000" lon="-106.397409000">
        <ele>2218.050000</ele>
        <time>2026-05-03T21:23:15Z</time>
      </trkpt>
      <trkpt lat="35.101960000" lon="-106.397445000">
        <ele>2212.810000</ele>
        <time>2026-05-03T21:23:33Z</time>
      </trkpt>
      <trkpt lat="35.101942000" lon="-106.397473000">
        <ele>2212.220000</ele>
        <time>2026-05-03T21:23:37Z</time>
      </trkpt>
      <trkpt lat="35.101938000" lon="-106.397471000">
        <ele>2212.560000</ele>
        <time>2026-05-03T21:23:38Z</time>
      </trkpt>
      <trkpt lat="35.101927000" lon="-106.397464000">
        <ele>2213.280000</ele>
        <time>2026-05-03T21:23:49Z</time>
      </trkpt>
      <trkpt lat="35.101906000" lon="-106.397477000">
        <ele>2213.350000</ele>
        <time>2026-05-03T21:23:51Z</time>
      </trkpt>
      <trkpt lat="35.101884000" lon="-106.397476000">
        <ele>2212.320000</ele>
        <time>2026-05-03T21:23:54Z</time>
      </trkpt>
      <trkpt lat="35.101842000" lon="-106.397446000">
        <ele>2217.480000</ele>
        <time>2026-05-03T21:23:59Z</time>
      </trkpt>
      <trkpt lat="35.101828000" lon="-106.397420000">
        <ele>2219.040000</ele>
        <time>2026-05-03T21:24:01Z</time>
      </trkpt>
      <trkpt lat="35.101793000" lon="-106.397401000">
        <ele>2220.720000</ele>
        <time>2026-05-03T21:24:04Z</time>
      </trkpt>
      <trkpt lat="35.101783000" lon="-106.397399000">
        <ele>2221.130000</ele>
        <time>2026-05-03T21:24:05Z</time>
      </trkpt>
      <trkpt lat="35.101737000" lon="-106.397360000">
        <ele>2218.360000</ele>
        <time>2026-05-03T21:24:15Z</time>
      </trkpt>
      <trkpt lat="35.101662000" lon="-106.397341000">
        <ele>2218.470000</ele>
        <time>2026-05-03T21:26:38Z</time>
      </trkpt>
      <trkpt lat="35.101644000" lon="-106.397324000">
        <ele>2218.240000</ele>
        <time>2026-05-03T21:26:41Z</time>
      </trkpt>
      <trkpt lat="35.101614000" lon="-106.397314000">
        <ele>2218.600000</ele>
        <time>2026-05-03T21:26:44Z</time>
      </trkpt>
      <trkpt lat="35.101602000" lon="-106.397306000">
        <ele>2218.680000</ele>
        <time>2026-05-03T21:26:45Z</time>
      </trkpt>
      <trkpt lat="35.101590000" lon="-106.397292000">
        <ele>2217.930000</ele>
        <time>2026-05-03T21:26:46Z</time>
      </trkpt>
      <trkpt lat="35.101493000" lon="-106.397254000">
        <ele>2219.260000</ele>
        <time>2026-05-03T21:26:58Z</time>
      </trkpt>
      <trkpt lat="35.101449000" lon="-106.397213000">
        <ele>2216.350000</ele>
        <time>2026-05-03T21:27:56Z</time>
      </trkpt>
      <trkpt lat="35.101439000" lon="-106.397209000">
        <ele>2216.450000</ele>
        <time>2026-05-03T21:27:57Z</time>
      </trkpt>
      <trkpt lat="35.101406000" lon="-106.397197000">
        <ele>2215.420000</ele>
        <time>2026-05-03T21:28:01Z</time>
      </trkpt>
      <trkpt lat="35.101382000" lon="-106.397202000">
        <ele>2214.810000</ele>
        <time>2026-05-03T21:28:04Z</time>
      </trkpt>
      <trkpt lat="35.101319000" lon="-106.397243000">
        <ele>2212.470000</ele>
        <time>2026-05-03T21:28:15Z</time>
      </trkpt>
      <trkpt lat="35.101268000" lon="-106.397248000">
        <ele>2212.740000</ele>
        <time>2026-05-03T21:28:22Z</time>
      </trkpt>
      <trkpt lat="35.101258000" lon="-106.397247000">
        <ele>2212.350000</ele>
        <time>2026-05-03T21:28:23Z</time>
      </trkpt>
      <trkpt lat="35.101232000" lon="-106.397244000">
        <ele>2212.410000</ele>
        <time>2026-05-03T21:28:25Z</time>
      </trkpt>
      <trkpt lat="35.101198000" lon="-106.397211000">
        <ele>2212.440000</ele>
        <time>2026-05-03T21:28:30Z</time>
      </trkpt>
      <trkpt lat="35.101179000" lon="-106.397190000">
        <ele>2212.520000</ele>
        <time>2026-05-03T21:28:33Z</time>
      </trkpt>
      <trkpt lat="35.101179000" lon="-106.397157000">
        <ele>2214.400000</ele>
        <time>2026-05-03T21:28:38Z</time>
      </trkpt>
      <trkpt lat="35.101130000" lon="-106.397122000">
        <ele>2215.100000</ele>
        <time>2026-05-03T21:29:03Z</time>
      </trkpt>
      <trkpt lat="35.101121000" lon="-106.397114000">
        <ele>2214.270000</ele>
        <time>2026-05-03T21:29:04Z</time>
      </trkpt>
      <trkpt lat="35.101092000" lon="-106.397055000">
        <ele>2210.960000</ele>
        <time>2026-05-03T21:29:10Z</time>
      </trkpt>
      <trkpt lat="35.101057000" lon="-106.397016000">
        <ele>2208.650000</ele>
        <time>2026-05-03T21:29:16Z</time>
      </trkpt>
      <trkpt lat="35.101018000" lon="-106.396938000">
        <ele>2208.360000</ele>
        <time>2026-05-03T21:29:26Z</time>
      </trkpt>
      <trkpt lat="35.101017000" lon="-106.396930000">
        <ele>2208.300000</ele>
        <time>2026-05-03T21:29:27Z</time>
      </trkpt>
      <trkpt lat="35.101007000" lon="-106.396888000">
        <ele>2207.500000</ele>
        <time>2026-05-03T21:29:31Z</time>
      </trkpt>
      <trkpt lat="35.100955000" lon="-106.396796000">
        <ele>2207.580000</ele>
        <time>2026-05-03T21:29:43Z</time>
      </trkpt>
      <trkpt lat="35.100949000" lon="-106.396768000">
        <ele>2207.690000</ele>
        <time>2026-05-03T21:29:47Z</time>
      </trkpt>
      <trkpt lat="35.100921000" lon="-106.396764000">
        <ele>2207.870000</ele>
        <time>2026-05-03T21:29:52Z</time>
      </trkpt>
      <trkpt lat="35.100915000" lon="-106.396763000">
        <ele>2207.720000</ele>
        <time>2026-05-03T21:29:53Z</time>
      </trkpt>
      <trkpt lat="35.100898000" lon="-106.396740000">
        <ele>2208.480000</ele>
        <time>2026-05-03T21:29:59Z</time>
      </trkpt>
      <trkpt lat="35.100810000" lon="-106.396697000">
        <ele>2208.550000</ele>
        <time>2026-05-03T21:30:17Z</time>
      </trkpt>
      <trkpt lat="35.100755000" lon="-106.396693000">
        <ele>2205.600000</ele>
        <time>2026-05-03T21:30:25Z</time>
      </trkpt>
      <trkpt lat="35.100746000" lon="-106.396696000">
        <ele>2205.140000</ele>
        <time>2026-05-03T21:30:26Z</time>
      </trkpt>
      <trkpt lat="35.100707000" lon="-106.396671000">
        <ele>2204.900000</ele>
        <time>2026-05-03T21:30:31Z</time>
      </trkpt>
      <trkpt lat="35.100595000" lon="-106.396640000">
        <ele>2203.350000</ele>
        <time>2026-05-03T21:30:45Z</time>
      </trkpt>
      <trkpt lat="35.100587000" lon="-106.396641000">
        <ele>2203.040000</ele>
        <time>2026-05-03T21:30:46Z</time>
      </trkpt>
      <trkpt lat="35.100580000" lon="-106.396631000">
        <ele>2201.930000</ele>
        <time>2026-05-03T21:30:47Z</time>
      </trkpt>
      <trkpt lat="35.100512000" lon="-106.396610000">
        <ele>2199.660000</ele>
        <time>2026-05-03T21:30:59Z</time>
      </trkpt>
      <trkpt lat="35.100475000" lon="-106.396582000">
        <ele>2199.920000</ele>
        <time>2026-05-03T21:31:04Z</time>
      </trkpt>
      <trkpt lat="35.100427000" lon="-106.396564000">
        <ele>2199.700000</ele>
        <time>2026-05-03T21:31:09Z</time>
      </trkpt>
      <trkpt lat="35.100418000" lon="-106.396566000">
        <ele>2199.250000</ele>
        <time>2026-05-03T21:31:10Z</time>
      </trkpt>
      <trkpt lat="35.100334000" lon="-106.396570000">
        <ele>2198.010000</ele>
        <time>2026-05-03T21:31:19Z</time>
      </trkpt>
      <trkpt lat="35.100299000" lon="-106.396547000">
        <ele>2197.690000</ele>
        <time>2026-05-03T21:31:23Z</time>
      </trkpt>
      <trkpt lat="35.100244000" lon="-106.396529000">
        <ele>2197.830000</ele>
        <time>2026-05-03T21:31:29Z</time>
      </trkpt>
      <trkpt lat="35.100232000" lon="-106.396525000">
        <ele>2196.700000</ele>
        <time>2026-05-03T21:31:30Z</time>
      </trkpt>
      <trkpt lat="35.100066000" lon="-106.396476000">
        <ele>2195.210000</ele>
        <time>2026-05-03T21:31:47Z</time>
      </trkpt>
      <trkpt lat="35.100058000" lon="-106.396471000">
        <ele>2195.610000</ele>
        <time>2026-05-03T21:31:48Z</time>
      </trkpt>
      <trkpt lat="35.099975000" lon="-106.396419000">
        <ele>2195.160000</ele>
        <time>2026-05-03T21:31:57Z</time>
      </trkpt>
      <trkpt lat="35.099953000" lon="-106.396435000">
        <ele>2194.720000</ele>
        <time>2026-05-03T21:36:01Z</time>
      </trkpt>
      <trkpt lat="35.099936000" lon="-106.396412000">
        <ele>2190.080000</ele>
        <time>2026-05-03T21:38:28Z</time>
      </trkpt>
      <trkpt lat="35.099908000" lon="-106.396412000">
        <ele>2189.880000</ele>
        <time>2026-05-03T21:38:32Z</time>
      </trkpt>
      <trkpt lat="35.099900000" lon="-106.396411000">
        <ele>2189.080000</ele>
        <time>2026-05-03T21:38:33Z</time>
      </trkpt>
      <trkpt lat="35.099799000" lon="-106.396334000">
        <ele>2186.020000</ele>
        <time>2026-05-03T21:39:42Z</time>
      </trkpt>
      <trkpt lat="35.099773000" lon="-106.396329000">
        <ele>2186.510000</ele>
        <time>2026-05-03T21:39:46Z</time>
      </trkpt>
      <trkpt lat="35.099738000" lon="-106.396338000">
        <ele>2185.840000</ele>
        <time>2026-05-03T21:39:51Z</time>
      </trkpt>
      <trkpt lat="35.099730000" lon="-106.396334000">
        <ele>2186.340000</ele>
        <time>2026-05-03T21:39:52Z</time>
      </trkpt>
      <trkpt lat="35.099699000" lon="-106.396322000">
        <ele>2181.590000</ele>
        <time>2026-05-03T21:41:20Z</time>
      </trkpt>
      <trkpt lat="35.099660000" lon="-106.396342000">
        <ele>2182.730000</ele>
        <time>2026-05-03T21:41:26Z</time>
      </trkpt>
      <trkpt lat="35.099646000" lon="-106.396350000">
        <ele>2177.850000</ele>
        <time>2026-05-03T21:43:30Z</time>
      </trkpt>
      <trkpt lat="35.099612000" lon="-106.396346000">
        <ele>2177.750000</ele>
        <time>2026-05-03T21:43:34Z</time>
      </trkpt>
      <trkpt lat="35.099601000" lon="-106.396352000">
        <ele>2178.090000</ele>
        <time>2026-05-03T21:43:35Z</time>
      </trkpt>
      <trkpt lat="35.099571000" lon="-106.396369000">
        <ele>2176.100000</ele>
        <time>2026-05-03T21:43:42Z</time>
      </trkpt>
      <trkpt lat="35.099553000" lon="-106.396366000">
        <ele>2178.160000</ele>
        <time>2026-05-03T21:43:45Z</time>
      </trkpt>
      <trkpt lat="35.099530000" lon="-106.396377000">
        <ele>2179.200000</ele>
        <time>2026-05-03T21:43:47Z</time>
      </trkpt>
      <trkpt lat="35.099507000" lon="-106.396448000">
        <ele>2179.050000</ele>
        <time>2026-05-03T21:43:55Z</time>
      </trkpt>
      <trkpt lat="35.099475000" lon="-106.396459000">
        <ele>2178.540000</ele>
        <time>2026-05-03T21:43:58Z</time>
      </trkpt>
      <trkpt lat="35.099469000" lon="-106.396465000">
        <ele>2178.850000</ele>
        <time>2026-05-03T21:43:59Z</time>
      </trkpt>
      <trkpt lat="35.099444000" lon="-106.396483000">
        <ele>2179.820000</ele>
        <time>2026-05-03T21:44:03Z</time>
      </trkpt>
      <trkpt lat="35.099304000" lon="-106.396539000">
        <ele>2181.140000</ele>
        <time>2026-05-03T21:44:18Z</time>
      </trkpt>
      <trkpt lat="35.099296000" lon="-106.396543000">
        <ele>2181.170000</ele>
        <time>2026-05-03T21:44:19Z</time>
      </trkpt>
      <trkpt lat="35.099199000" lon="-106.396588000">
        <ele>2180.850000</ele>
        <time>2026-05-03T21:44:28Z</time>
      </trkpt>
      <trkpt lat="35.099124000" lon="-106.396604000">
        <ele>2181.300000</ele>
        <time>2026-05-03T21:44:35Z</time>
      </trkpt>
      <trkpt lat="35.099113000" lon="-106.396603000">
        <ele>2180.090000</ele>
        <time>2026-05-03T21:44:36Z</time>
      </trkpt>
      <trkpt lat="35.099059000" lon="-106.396594000">
        <ele>2177.730000</ele>
        <time>2026-05-03T21:44:41Z</time>
      </trkpt>
      <trkpt lat="35.099016000" lon="-106.396609000">
        <ele>2177.380000</ele>
        <time>2026-05-03T21:44:48Z</time>
      </trkpt>
      <trkpt lat="35.098991000" lon="-106.396598000">
        <ele>2175.350000</ele>
        <time>2026-05-03T21:44:51Z</time>
      </trkpt>
      <trkpt lat="35.098944000" lon="-106.396620000">
        <ele>2175.670000</ele>
        <time>2026-05-03T21:44:57Z</time>
      </trkpt>
      <trkpt lat="35.098938000" lon="-106.396625000">
        <ele>2175.840000</ele>
        <time>2026-05-03T21:44:58Z</time>
      </trkpt>
      <trkpt lat="35.098914000" lon="-106.396643000">
        <ele>2176.740000</ele>
        <time>2026-05-03T21:45:02Z</time>
      </trkpt>
      <trkpt lat="35.098820000" lon="-106.396642000">
        <ele>2176.600000</ele>
        <time>2026-05-03T21:45:13Z</time>
      </trkpt>
      <trkpt lat="35.098765000" lon="-106.396661000">
        <ele>2176.490000</ele>
        <time>2026-05-03T21:45:20Z</time>
      </trkpt>
      <trkpt lat="35.098760000" lon="-106.396665000">
        <ele>2176.540000</ele>
        <time>2026-05-03T21:45:21Z</time>
      </trkpt>
      <trkpt lat="35.098687000" lon="-106.396673000">
        <ele>2173.060000</ele>
        <time>2026-05-03T21:45:30Z</time>
      </trkpt>
      <trkpt lat="35.098599000" lon="-106.396635000">
        <ele>2171.680000</ele>
        <time>2026-05-03T21:45:39Z</time>
      </trkpt>
      <trkpt lat="35.098589000" lon="-106.396632000">
        <ele>2171.260000</ele>
        <time>2026-05-03T21:45:40Z</time>
      </trkpt>
      <trkpt lat="35.098492000" lon="-106.396607000">
        <ele>2169.970000</ele>
        <time>2026-05-03T21:45:51Z</time>
      </trkpt>
      <trkpt lat="35.098450000" lon="-106.396583000">
        <ele>2166.760000</ele>
        <time>2026-05-03T21:45:56Z</time>
      </trkpt>
      <trkpt lat="35.098420000" lon="-106.396580000">
        <ele>2169.230000</ele>
        <time>2026-05-03T21:46:07Z</time>
      </trkpt>
      <trkpt lat="35.098419000" lon="-106.396580000">
        <ele>2169.200000</ele>
        <time>2026-05-03T21:46:08Z</time>
      </trkpt>
      <trkpt lat="35.098296000" lon="-106.396526000">
        <ele>2166.360000</ele>
        <time>2026-05-03T21:46:23Z</time>
      </trkpt>
      <trkpt lat="35.098257000" lon="-106.396488000">
        <ele>2165.220000</ele>
        <time>2026-05-03T21:46:30Z</time>
      </trkpt>
      <trkpt lat="35.098251000" lon="-106.396486000">
        <ele>2164.700000</ele>
        <time>2026-05-03T21:46:31Z</time>
      </trkpt>
      <trkpt lat="35.098094000" lon="-106.396421000">
        <ele>2161.330000</ele>
        <time>2026-05-03T21:46:57Z</time>
      </trkpt>
      <trkpt lat="35.098084000" lon="-106.396419000">
        <ele>2161.680000</ele>
        <time>2026-05-03T21:46:58Z</time>
      </trkpt>
      <trkpt lat="35.098051000" lon="-106.396425000">
        <ele>2162.840000</ele>
        <time>2026-05-03T21:47:02Z</time>
      </trkpt>
      <trkpt lat="35.097996000" lon="-106.396405000">
        <ele>2159.890000</ele>
        <time>2026-05-03T21:47:08Z</time>
      </trkpt>
      <trkpt lat="35.097918000" lon="-106.396400000">
        <ele>2157.400000</ele>
        <time>2026-05-03T21:47:17Z</time>
      </trkpt>
      <trkpt lat="35.097910000" lon="-106.396399000">
        <ele>2157.100000</ele>
        <time>2026-05-03T21:47:18Z</time>
      </trkpt>
      <trkpt lat="35.097886000" lon="-106.396418000">
        <ele>2154.160000</ele>
        <time>2026-05-03T21:47:23Z</time>
      </trkpt>
      <trkpt lat="35.097835000" lon="-106.396486000">
        <ele>2149.540000</ele>
        <time>2026-05-03T21:47:47Z</time>
      </trkpt>
      <trkpt lat="35.097842000" lon="-106.396518000">
        <ele>2148.580000</ele>
        <time>2026-05-03T21:47:49Z</time>
      </trkpt>
      <trkpt lat="35.097804000" lon="-106.396556000">
        <ele>2148.770000</ele>
        <time>2026-05-03T21:48:02Z</time>
      </trkpt>
      <trkpt lat="35.097806000" lon="-106.396572000">
        <ele>2149.140000</ele>
        <time>2026-05-03T21:48:03Z</time>
      </trkpt>
      <trkpt lat="35.097809000" lon="-106.396584000">
        <ele>2149.260000</ele>
        <time>2026-05-03T21:48:04Z</time>
      </trkpt>
      <trkpt lat="35.097803000" lon="-106.396647000">
        <ele>2147.410000</ele>
        <time>2026-05-03T21:48:14Z</time>
      </trkpt>
      <trkpt lat="35.097777000" lon="-106.396654000">
        <ele>2148.350000</ele>
        <time>2026-05-03T21:48:18Z</time>
      </trkpt>
      <trkpt lat="35.097762000" lon="-106.396707000">
        <ele>2146.400000</ele>
        <time>2026-05-03T21:48:24Z</time>
      </trkpt>
      <trkpt lat="35.097766000" lon="-106.396768000">
        <ele>2143.430000</ele>
        <time>2026-05-03T21:48:30Z</time>
      </trkpt>
      <trkpt lat="35.097766000" lon="-106.396767000">
        <ele>2144.370000</ele>
        <time>2026-05-03T21:48:31Z</time>
      </trkpt>
      <trkpt lat="35.097754000" lon="-106.396854000">
        <ele>2142.950000</ele>
        <time>2026-05-03T21:48:48Z</time>
      </trkpt>
      <trkpt lat="35.097730000" lon="-106.396866000">
        <ele>2143.710000</ele>
        <time>2026-05-03T21:48:53Z</time>
      </trkpt>
      <trkpt lat="35.097717000" lon="-106.396915000">
        <ele>2140.060000</ele>
        <time>2026-05-03T21:48:57Z</time>
      </trkpt>
      <trkpt lat="35.097695000" lon="-106.396939000">
        <ele>2137.960000</ele>
        <time>2026-05-03T21:49:05Z</time>
      </trkpt>
      <trkpt lat="35.097693000" lon="-106.396945000">
        <ele>2138.010000</ele>
        <time>2026-05-03T21:49:06Z</time>
      </trkpt>
      <trkpt lat="35.097647000" lon="-106.396957000">
        <ele>2143.170000</ele>
        <time>2026-05-03T21:49:20Z</time>
      </trkpt>
      <trkpt lat="35.097610000" lon="-106.397101000">
        <ele>2136.480000</ele>
        <time>2026-05-03T21:49:37Z</time>
      </trkpt>
      <trkpt lat="35.097605000" lon="-106.397106000">
        <ele>2137.120000</ele>
        <time>2026-05-03T21:49:38Z</time>
      </trkpt>
      <trkpt lat="35.097587000" lon="-106.397134000">
        <ele>2138.040000</ele>
        <time>2026-05-03T21:49:44Z</time>
      </trkpt>
      <trkpt lat="35.097570000" lon="-106.397265000">
        <ele>2135.070000</ele>
        <time>2026-05-03T21:50:00Z</time>
      </trkpt>
      <trkpt lat="35.097549000" lon="-106.397279000">
        <ele>2136.380000</ele>
        <time>2026-05-03T21:50:50Z</time>
      </trkpt>
      <trkpt lat="35.097538000" lon="-106.397265000">
        <ele>2136.200000</ele>
        <time>2026-05-03T21:50:52Z</time>
      </trkpt>
      <trkpt lat="35.097433000" lon="-106.397142000">
        <ele>2143.980000</ele>
        <time>2026-05-03T21:51:12Z</time>
      </trkpt>
      <trkpt lat="35.097420000" lon="-106.397105000">
        <ele>2142.670000</ele>
        <time>2026-05-03T21:51:15Z</time>
      </trkpt>
      <trkpt lat="35.097416000" lon="-106.397096000">
        <ele>2142.080000</ele>
        <time>2026-05-03T21:51:16Z</time>
      </trkpt>
      <trkpt lat="35.097387000" lon="-106.397038000">
        <ele>2141.860000</ele>
        <time>2026-05-03T21:51:22Z</time>
      </trkpt>
      <trkpt lat="35.097360000" lon="-106.396897000">
        <ele>2139.910000</ele>
        <time>2026-05-03T21:51:35Z</time>
      </trkpt>
      <trkpt lat="35.097357000" lon="-106.396889000">
        <ele>2139.120000</ele>
        <time>2026-05-03T21:51:36Z</time>
      </trkpt>
      <trkpt lat="35.097323000" lon="-106.396791000">
        <ele>2137.310000</ele>
        <time>2026-05-03T21:51:47Z</time>
      </trkpt>
      <trkpt lat="35.097330000" lon="-106.396707000">
        <ele>2136.590000</ele>
        <time>2026-05-03T21:51:54Z</time>
      </trkpt>
      <trkpt lat="35.097330000" lon="-106.396695000">
        <ele>2136.490000</ele>
        <time>2026-05-03T21:51:55Z</time>
      </trkpt>
      <trkpt lat="35.097297000" lon="-106.396488000">
        <ele>2136.190000</ele>
        <time>2026-05-03T21:52:11Z</time>
      </trkpt>
      <trkpt lat="35.097298000" lon="-106.396476000">
        <ele>2136.230000</ele>
        <time>2026-05-03T21:52:12Z</time>
      </trkpt>
      <trkpt lat="35.097290000" lon="-106.396441000">
        <ele>2134.040000</ele>
        <time>2026-05-03T21:52:15Z</time>
      </trkpt>
      <trkpt lat="35.097270000" lon="-106.396461000">
        <ele>2129.890000</ele>
        <time>2026-05-03T21:52:20Z</time>
      </trkpt>
      <trkpt lat="35.097273000" lon="-106.396515000">
        <ele>2126.250000</ele>
        <time>2026-05-03T21:52:26Z</time>
      </trkpt>
      <trkpt lat="35.097239000" lon="-106.396598000">
        <ele>2124.190000</ele>
        <time>2026-05-03T21:52:37Z</time>
      </trkpt>
      <trkpt lat="35.097236000" lon="-106.396601000">
        <ele>2125.230000</ele>
        <time>2026-05-03T21:52:38Z</time>
      </trkpt>
      <trkpt lat="35.097182000" lon="-106.396608000">
        <ele>2131.330000</ele>
        <time>2026-05-03T21:52:46Z</time>
      </trkpt>
      <trkpt lat="35.097080000" lon="-106.396515000">
        <ele>2138.830000</ele>
        <time>2026-05-03T21:53:01Z</time>
      </trkpt>
      <trkpt lat="35.097072000" lon="-106.396513000">
        <ele>2139.530000</ele>
        <time>2026-05-03T21:53:02Z</time>
      </trkpt>
      <trkpt lat="35.097019000" lon="-106.396488000">
        <ele>2135.540000</ele>
        <time>2026-05-03T21:53:25Z</time>
      </trkpt>
      <trkpt lat="35.096986000" lon="-106.396459000">
        <ele>2133.970000</ele>
        <time>2026-05-03T21:53:29Z</time>
      </trkpt>
      <trkpt lat="35.096911000" lon="-106.396447000">
        <ele>2129.100000</ele>
        <time>2026-05-03T21:53:38Z</time>
      </trkpt>
      <trkpt lat="35.096903000" lon="-106.396448000">
        <ele>2129.620000</ele>
        <time>2026-05-03T21:53:39Z</time>
      </trkpt>
      <trkpt lat="35.096827000" lon="-106.396471000">
        <ele>2127.860000</ele>
        <time>2026-05-03T21:53:49Z</time>
      </trkpt>
      <trkpt lat="35.096760000" lon="-106.396472000">
        <ele>2125.710000</ele>
        <time>2026-05-03T21:53:56Z</time>
      </trkpt>
      <trkpt lat="35.096732000" lon="-106.396462000">
        <ele>2127.390000</ele>
        <time>2026-05-03T21:53:59Z</time>
      </trkpt>
      <trkpt lat="35.096722000" lon="-106.396458000">
        <ele>2126.530000</ele>
        <time>2026-05-03T21:54:00Z</time>
      </trkpt>
      <trkpt lat="35.096699000" lon="-106.396440000">
        <ele>2126.360000</ele>
        <time>2026-05-03T21:54:03Z</time>
      </trkpt>
      <trkpt lat="35.096634000" lon="-106.396352000">
        <ele>2123.470000</ele>
        <time>2026-05-03T21:54:13Z</time>
      </trkpt>
      <trkpt lat="35.096621000" lon="-106.396318000">
        <ele>2122.010000</ele>
        <time>2026-05-03T21:54:16Z</time>
      </trkpt>
      <trkpt lat="35.096619000" lon="-106.396310000">
        <ele>2122.590000</ele>
        <time>2026-05-03T21:54:17Z</time>
      </trkpt>
      <trkpt lat="35.096546000" lon="-106.396244000">
        <ele>2121.590000</ele>
        <time>2026-05-03T21:54:28Z</time>
      </trkpt>
      <trkpt lat="35.096472000" lon="-106.396222000">
        <ele>2123.470000</ele>
        <time>2026-05-03T21:54:36Z</time>
      </trkpt>
      <trkpt lat="35.096463000" lon="-106.396217000">
        <ele>2124.230000</ele>
        <time>2026-05-03T21:54:37Z</time>
      </trkpt>
      <trkpt lat="35.096330000" lon="-106.396053000">
        <ele>2118.210000</ele>
        <time>2026-05-03T21:54:56Z</time>
      </trkpt>
      <trkpt lat="35.096319000" lon="-106.396044000">
        <ele>2117.050000</ele>
        <time>2026-05-03T21:54:57Z</time>
      </trkpt>
      <trkpt lat="35.096297000" lon="-106.396017000">
        <ele>2116.450000</ele>
        <time>2026-05-03T21:55:00Z</time>
      </trkpt>
      <trkpt lat="35.096224000" lon="-106.395868000">
        <ele>2115.300000</ele>
        <time>2026-05-03T21:55:13Z</time>
      </trkpt>
      <trkpt lat="35.096219000" lon="-106.395859000">
        <ele>2114.620000</ele>
        <time>2026-05-03T21:55:14Z</time>
      </trkpt>
      <trkpt lat="35.096175000" lon="-106.395815000">
        <ele>2112.720000</ele>
        <time>2026-05-03T21:55:21Z</time>
      </trkpt>
      <trkpt lat="35.096105000" lon="-106.395699000">
        <ele>2110.870000</ele>
        <time>2026-05-03T21:55:32Z</time>
      </trkpt>
      <trkpt lat="35.096098000" lon="-106.395688000">
        <ele>2111.640000</ele>
        <time>2026-05-03T21:55:33Z</time>
      </trkpt>
      <trkpt lat="35.096042000" lon="-106.395623000">
        <ele>2111.230000</ele>
        <time>2026-05-03T21:55:40Z</time>
      </trkpt>
      <trkpt lat="35.096001000" lon="-106.395519000">
        <ele>2106.980000</ele>
        <time>2026-05-03T21:55:53Z</time>
      </trkpt>
      <trkpt lat="35.095996000" lon="-106.395507000">
        <ele>2106.210000</ele>
        <time>2026-05-03T21:55:54Z</time>
      </trkpt>
      <trkpt lat="35.095961000" lon="-106.395433000">
        <ele>2106.270000</ele>
        <time>2026-05-03T21:56:01Z</time>
      </trkpt>
      <trkpt lat="35.095938000" lon="-106.395321000">
        <ele>2104.280000</ele>
        <time>2026-05-03T21:56:10Z</time>
      </trkpt>
      <trkpt lat="35.095935000" lon="-106.395308000">
        <ele>2103.180000</ele>
        <time>2026-05-03T21:56:11Z</time>
      </trkpt>
      <trkpt lat="35.095925000" lon="-106.395235000">
        <ele>2097.390000</ele>
        <time>2026-05-03T21:56:17Z</time>
      </trkpt>
      <trkpt lat="35.095903000" lon="-106.395186000">
        <ele>2095.190000</ele>
        <time>2026-05-03T21:56:21Z</time>
      </trkpt>
      <trkpt lat="35.095900000" lon="-106.395116000">
        <ele>2092.630000</ele>
        <time>2026-05-03T21:56:28Z</time>
      </trkpt>
      <trkpt lat="35.095900000" lon="-106.395107000">
        <ele>2092.870000</ele>
        <time>2026-05-03T21:56:29Z</time>
      </trkpt>
      <trkpt lat="35.095880000" lon="-106.395078000">
        <ele>2093.850000</ele>
        <time>2026-05-03T21:56:34Z</time>
      </trkpt>
      <trkpt lat="35.095853000" lon="-106.395078000">
        <ele>2093.280000</ele>
        <time>2026-05-03T21:56:37Z</time>
      </trkpt>
      <trkpt lat="35.095814000" lon="-106.395052000">
        <ele>2095.390000</ele>
        <time>2026-05-03T21:56:43Z</time>
      </trkpt>
      <trkpt lat="35.095765000" lon="-106.394968000">
        <ele>2099.390000</ele>
        <time>2026-05-03T21:56:53Z</time>
      </trkpt>
      <trkpt lat="35.095760000" lon="-106.394961000">
        <ele>2099.570000</ele>
        <time>2026-05-03T21:56:54Z</time>
      </trkpt>
      <trkpt lat="35.095745000" lon="-106.394919000">
        <ele>2098.620000</ele>
        <time>2026-05-03T21:56:58Z</time>
      </trkpt>
      <trkpt lat="35.095714000" lon="-106.394885000">
        <ele>2098.970000</ele>
        <time>2026-05-03T21:57:03Z</time>
      </trkpt>
      <trkpt lat="35.095655000" lon="-106.394791000">
        <ele>2096.150000</ele>
        <time>2026-05-03T21:57:14Z</time>
      </trkpt>
      <trkpt lat="35.095652000" lon="-106.394782000">
        <ele>2096.710000</ele>
        <time>2026-05-03T21:57:15Z</time>
      </trkpt>
      <trkpt lat="35.095628000" lon="-106.394696000">
        <ele>2096.560000</ele>
        <time>2026-05-03T21:57:24Z</time>
      </trkpt>
      <trkpt lat="35.095609000" lon="-106.394686000">
        <ele>2095.760000</ele>
        <time>2026-05-03T21:57:26Z</time>
      </trkpt>
      <trkpt lat="35.095605000" lon="-106.394599000">
        <ele>2093.150000</ele>
        <time>2026-05-03T21:57:33Z</time>
      </trkpt>
      <trkpt lat="35.095603000" lon="-106.394593000">
        <ele>2094.210000</ele>
        <time>2026-05-03T21:57:34Z</time>
      </trkpt>
      <trkpt lat="35.095590000" lon="-106.394565000">
        <ele>2093.700000</ele>
        <time>2026-05-03T21:57:40Z</time>
      </trkpt>
      <trkpt lat="35.095616000" lon="-106.394514000">
        <ele>2095.660000</ele>
        <time>2026-05-03T21:57:46Z</time>
      </trkpt>
      <trkpt lat="35.095591000" lon="-106.394433000">
        <ele>2099.330000</ele>
        <time>2026-05-03T21:58:01Z</time>
      </trkpt>
      <trkpt lat="35.095572000" lon="-106.394467000">
        <ele>2102.020000</ele>
        <time>2026-05-03T21:58:09Z</time>
      </trkpt>
      <trkpt lat="35.095559000" lon="-106.394471000">
        <ele>2102.080000</ele>
        <time>2026-05-03T21:58:10Z</time>
      </trkpt>
      <trkpt lat="35.095534000" lon="-106.394454000">
        <ele>2100.460000</ele>
        <time>2026-05-03T21:58:13Z</time>
      </trkpt>
      <trkpt lat="35.095534000" lon="-106.394427000">
        <ele>2100.640000</ele>
        <time>2026-05-03T21:58:15Z</time>
      </trkpt>
      <trkpt lat="35.095556000" lon="-106.394380000">
        <ele>2098.990000</ele>
        <time>2026-05-03T21:58:22Z</time>
      </trkpt>
      <trkpt lat="35.095604000" lon="-106.394370000">
        <ele>2100.910000</ele>
        <time>2026-05-03T21:58:33Z</time>
      </trkpt>
      <trkpt lat="35.095620000" lon="-106.394396000">
        <ele>2100.710000</ele>
        <time>2026-05-03T21:58:37Z</time>
      </trkpt>
      <trkpt lat="35.095612000" lon="-106.394405000">
        <ele>2101.280000</ele>
        <time>2026-05-03T21:58:39Z</time>
      </trkpt>
      <trkpt lat="35.095594000" lon="-106.394430000">
        <ele>2100.700000</ele>
        <time>2026-05-03T21:58:55Z</time>
      </trkpt>
      <trkpt lat="35.095572000" lon="-106.394441000">
        <ele>2100.560000</ele>
        <time>2026-05-03T21:58:58Z</time>
      </trkpt>
      <trkpt lat="35.095555000" lon="-106.394421000">
        <ele>2099.090000</ele>
        <time>2026-05-03T21:59:11Z</time>
      </trkpt>
      <trkpt lat="35.095556000" lon="-106.394470000">
        <ele>2099.060000</ele>
        <time>2026-05-03T21:59:23Z</time>
      </trkpt>
      <trkpt lat="35.095543000" lon="-106.394494000">
        <ele>2100.490000</ele>
        <time>2026-05-03T21:59:25Z</time>
      </trkpt>
      <trkpt lat="35.095513000" lon="-106.394497000">
        <ele>2102.380000</ele>
        <time>2026-05-03T21:59:30Z</time>
      </trkpt>
      <trkpt lat="35.095508000" lon="-106.394496000">
        <ele>2102.730000</ele>
        <time>2026-05-03T21:59:31Z</time>
      </trkpt>
      <trkpt lat="35.095465000" lon="-106.394455000">
        <ele>2104.480000</ele>
        <time>2026-05-03T21:59:38Z</time>
      </trkpt>
      <trkpt lat="35.095438000" lon="-106.394455000">
        <ele>2104.200000</ele>
        <time>2026-05-03T21:59:41Z</time>
      </trkpt>
      <trkpt lat="35.095358000" lon="-106.394389000">
        <ele>2106.500000</ele>
        <time>2026-05-03T21:59:52Z</time>
      </trkpt>
      <trkpt lat="35.095352000" lon="-106.394381000">
        <ele>2106.730000</ele>
        <time>2026-05-03T21:59:53Z</time>
      </trkpt>
      <trkpt lat="35.095228000" lon="-106.394296000">
        <ele>2102.590000</ele>
        <time>2026-05-03T22:00:10Z</time>
      </trkpt>
      <trkpt lat="35.095212000" lon="-106.394267000">
        <ele>2102.770000</ele>
        <time>2026-05-03T22:00:13Z</time>
      </trkpt>
      <trkpt lat="35.095210000" lon="-106.394257000">
        <ele>2103.310000</ele>
        <time>2026-05-03T22:00:14Z</time>
      </trkpt>
      <trkpt lat="35.095234000" lon="-106.394174000">
        <ele>2100.250000</ele>
        <time>2026-05-03T22:00:23Z</time>
      </trkpt>
      <trkpt lat="35.095196000" lon="-106.394128000">
        <ele>2100.830000</ele>
        <time>2026-05-03T22:00:30Z</time>
      </trkpt>
      <trkpt lat="35.095212000" lon="-106.394072000">
        <ele>2097.440000</ele>
        <time>2026-05-03T22:00:44Z</time>
      </trkpt>
      <trkpt lat="35.095213000" lon="-106.394059000">
        <ele>2096.350000</ele>
        <time>2026-05-03T22:00:45Z</time>
      </trkpt>
      <trkpt lat="35.095232000" lon="-106.393968000">
        <ele>2095.200000</ele>
        <time>2026-05-03T22:00:53Z</time>
      </trkpt>
      <trkpt lat="35.095292000" lon="-106.393870000">
        <ele>2090.940000</ele>
        <time>2026-05-03T22:01:12Z</time>
      </trkpt>
      <trkpt lat="35.095303000" lon="-106.393859000">
        <ele>2093.300000</ele>
        <time>2026-05-03T22:01:13Z</time>
      </trkpt>
      <trkpt lat="35.095301000" lon="-106.393841000">
        <ele>2099.290000</ele>
        <time>2026-05-03T22:01:19Z</time>
      </trkpt>
      <trkpt lat="35.095324000" lon="-106.393796000">
        <ele>2099.720000</ele>
        <time>2026-05-03T22:01:22Z</time>
      </trkpt>
      <trkpt lat="35.095312000" lon="-106.393708000">
        <ele>2094.900000</ele>
        <time>2026-05-03T22:01:27Z</time>
      </trkpt>
      <trkpt lat="35.095299000" lon="-106.393678000">
        <ele>2093.040000</ele>
        <time>2026-05-03T22:01:40Z</time>
      </trkpt>
      <trkpt lat="35.095299000" lon="-106.393680000">
        <ele>2092.500000</ele>
        <time>2026-05-03T22:01:41Z</time>
      </trkpt>
      <trkpt lat="35.095318000" lon="-106.393684000">
        <ele>2087.420000</ele>
        <time>2026-05-03T22:01:45Z</time>
      </trkpt>
      <trkpt lat="35.095306000" lon="-106.393710000">
        <ele>2078.590000</ele>
        <time>2026-05-03T22:01:58Z</time>
      </trkpt>
      <trkpt lat="35.095295000" lon="-106.393797000">
        <ele>2072.920000</ele>
        <time>2026-05-03T22:02:27Z</time>
      </trkpt>
      <trkpt lat="35.095246000" lon="-106.393823000">
        <ele>2071.720000</ele>
        <time>2026-05-03T22:02:36Z</time>
      </trkpt>
      <trkpt lat="35.095238000" lon="-106.393829000">
        <ele>2070.980000</ele>
        <time>2026-05-03T22:02:37Z</time>
      </trkpt>
      <trkpt lat="35.095191000" lon="-106.393874000">
        <ele>2069.120000</ele>
        <time>2026-05-03T22:02:44Z</time>
      </trkpt>
      <trkpt lat="35.095174000" lon="-106.393864000">
        <ele>2068.610000</ele>
        <time>2026-05-03T22:02:46Z</time>
      </trkpt>
      <trkpt lat="35.095167000" lon="-106.393841000">
        <ele>2068.110000</ele>
        <time>2026-05-03T22:02:48Z</time>
      </trkpt>
      <trkpt lat="35.095182000" lon="-106.393789000">
        <ele>2069.220000</ele>
        <time>2026-05-03T22:02:57Z</time>
      </trkpt>
      <trkpt lat="35.095168000" lon="-106.393760000">
        <ele>2072.470000</ele>
        <time>2026-05-03T22:03:02Z</time>
      </trkpt>
      <trkpt lat="35.095168000" lon="-106.393757000">
        <ele>2072.350000</ele>
        <time>2026-05-03T22:03:03Z</time>
      </trkpt>
      <trkpt lat="35.095128000" lon="-106.393714000">
        <ele>2078.940000</ele>
        <time>2026-05-03T22:03:09Z</time>
      </trkpt>
      <trkpt lat="35.095125000" lon="-106.393659000">
        <ele>2076.170000</ele>
        <time>2026-05-03T22:03:18Z</time>
      </trkpt>
      <trkpt lat="35.095113000" lon="-106.393636000">
        <ele>2074.810000</ele>
        <time>2026-05-03T22:03:23Z</time>
      </trkpt>
      <trkpt lat="35.095121000" lon="-106.393570000">
        <ele>2072.540000</ele>
        <time>2026-05-03T22:03:31Z</time>
      </trkpt>
      <trkpt lat="35.095120000" lon="-106.393560000">
        <ele>2072.980000</ele>
        <time>2026-05-03T22:03:32Z</time>
      </trkpt>
      <trkpt lat="35.095087000" lon="-106.393419000">
        <ele>2077.380000</ele>
        <time>2026-05-03T22:03:47Z</time>
      </trkpt>
      <trkpt lat="35.095093000" lon="-106.393363000">
        <ele>2078.170000</ele>
        <time>2026-05-03T22:03:52Z</time>
      </trkpt>
      <trkpt lat="35.095094000" lon="-106.393356000">
        <ele>2078.130000</ele>
        <time>2026-05-03T22:03:53Z</time>
      </trkpt>
      <trkpt lat="35.095083000" lon="-106.393216000">
        <ele>2083.040000</ele>
        <time>2026-05-03T22:04:09Z</time>
      </trkpt>
      <trkpt lat="35.095056000" lon="-106.393161000">
        <ele>2082.070000</ele>
        <time>2026-05-03T22:04:16Z</time>
      </trkpt>
      <trkpt lat="35.095054000" lon="-106.393147000">
        <ele>2080.920000</ele>
        <time>2026-05-03T22:04:17Z</time>
      </trkpt>
      <trkpt lat="35.094975000" lon="-106.392962000">
        <ele>2076.700000</ele>
        <time>2026-05-03T22:04:35Z</time>
      </trkpt>
      <trkpt lat="35.094969000" lon="-106.392954000">
        <ele>2076.660000</ele>
        <time>2026-05-03T22:04:36Z</time>
      </trkpt>
      <trkpt lat="35.094924000" lon="-106.392891000">
        <ele>2077.410000</ele>
        <time>2026-05-03T22:04:43Z</time>
      </trkpt>
      <trkpt lat="35.094858000" lon="-106.392825000">
        <ele>2074.400000</ele>
        <time>2026-05-03T22:04:52Z</time>
      </trkpt>
      <trkpt lat="35.094850000" lon="-106.392817000">
        <ele>2073.640000</ele>
        <time>2026-05-03T22:04:53Z</time>
      </trkpt>
      <trkpt lat="35.094805000" lon="-106.392751000">
        <ele>2072.200000</ele>
        <time>2026-05-03T22:05:01Z</time>
      </trkpt>
      <trkpt lat="35.094773000" lon="-106.392724000">
        <ele>2071.270000</ele>
        <time>2026-05-03T22:05:05Z</time>
      </trkpt>
      <trkpt lat="35.094744000" lon="-106.392673000">
        <ele>2068.580000</ele>
        <time>2026-05-03T22:05:10Z</time>
      </trkpt>
      <trkpt lat="35.094737000" lon="-106.392666000">
        <ele>2068.360000</ele>
        <time>2026-05-03T22:05:11Z</time>
      </trkpt>
      <trkpt lat="35.094630000" lon="-106.392513000">
        <ele>2065.190000</ele>
        <time>2026-05-03T22:05:29Z</time>
      </trkpt>
      <trkpt lat="35.094625000" lon="-106.392503000">
        <ele>2065.270000</ele>
        <time>2026-05-03T22:05:30Z</time>
      </trkpt>
      <trkpt lat="35.094577000" lon="-106.392471000">
        <ele>2062.820000</ele>
        <time>2026-05-03T22:05:36Z</time>
      </trkpt>
      <trkpt lat="35.094554000" lon="-106.392425000">
        <ele>2060.300000</ele>
        <time>2026-05-03T22:05:41Z</time>
      </trkpt>
      <trkpt lat="35.094500000" lon="-106.392358000">
        <ele>2057.550000</ele>
        <time>2026-05-03T22:05:51Z</time>
      </trkpt>
      <trkpt lat="35.094497000" lon="-106.392350000">
        <ele>2058.060000</ele>
        <time>2026-05-03T22:05:52Z</time>
      </trkpt>
      <trkpt lat="35.094342000" lon="-106.392254000">
        <ele>2056.160000</ele>
        <time>2026-05-03T22:06:16Z</time>
      </trkpt>
      <trkpt lat="35.094334000" lon="-106.392256000">
        <ele>2056.740000</ele>
        <time>2026-05-03T22:06:17Z</time>
      </trkpt>
      <trkpt lat="35.094306000" lon="-106.392243000">
        <ele>2057.760000</ele>
        <time>2026-05-03T22:06:21Z</time>
      </trkpt>
      <trkpt lat="35.094247000" lon="-106.392160000">
        <ele>2049.500000</ele>
        <time>2026-05-03T22:06:32Z</time>
      </trkpt>
      <trkpt lat="35.094195000" lon="-106.392131000">
        <ele>2048.540000</ele>
        <time>2026-05-03T22:06:39Z</time>
      </trkpt>
      <trkpt lat="35.094188000" lon="-106.392128000">
        <ele>2048.420000</ele>
        <time>2026-05-03T22:06:40Z</time>
      </trkpt>
      <trkpt lat="35.094156000" lon="-106.392115000">
        <ele>2048.650000</ele>
        <time>2026-05-03T22:06:44Z</time>
      </trkpt>
      <trkpt lat="35.094056000" lon="-106.392110000">
        <ele>2048.700000</ele>
        <time>2026-05-03T22:06:56Z</time>
      </trkpt>
      <trkpt lat="35.094005000" lon="-106.392093000">
        <ele>2050.390000</ele>
        <time>2026-05-03T22:07:01Z</time>
      </trkpt>
      <trkpt lat="35.093993000" lon="-106.392094000">
        <ele>2050.160000</ele>
        <time>2026-05-03T22:07:02Z</time>
      </trkpt>
      <trkpt lat="35.093944000" lon="-106.392127000">
        <ele>2051.270000</ele>
        <time>2026-05-03T22:07:08Z</time>
      </trkpt>
      <trkpt lat="35.093860000" lon="-106.392088000">
        <ele>2050.080000</ele>
        <time>2026-05-03T22:07:18Z</time>
      </trkpt>
      <trkpt lat="35.093828000" lon="-106.392091000">
        <ele>2050.090000</ele>
        <time>2026-05-03T22:07:22Z</time>
      </trkpt>
      <trkpt lat="35.093821000" lon="-106.392096000">
        <ele>2050.070000</ele>
        <time>2026-05-03T22:07:23Z</time>
      </trkpt>
      <trkpt lat="35.093704000" lon="-106.392146000">
        <ele>2046.700000</ele>
        <time>2026-05-03T22:07:38Z</time>
      </trkpt>
      <trkpt lat="35.093683000" lon="-106.392167000">
        <ele>2040.150000</ele>
        <time>2026-05-03T22:07:42Z</time>
      </trkpt>
      <trkpt lat="35.093647000" lon="-106.392175000">
        <ele>2038.320000</ele>
        <time>2026-05-03T22:07:48Z</time>
      </trkpt>
      <trkpt lat="35.093639000" lon="-106.392170000">
        <ele>2037.910000</ele>
        <time>2026-05-03T22:07:49Z</time>
      </trkpt>
      <trkpt lat="35.093545000" lon="-106.392200000">
        <ele>2032.170000</ele>
        <time>2026-05-03T22:08:03Z</time>
      </trkpt>
      <trkpt lat="35.093467000" lon="-106.392214000">
        <ele>2030.280000</ele>
        <time>2026-05-03T22:08:12Z</time>
      </trkpt>
      <trkpt lat="35.093459000" lon="-106.392216000">
        <ele>2030.470000</ele>
        <time>2026-05-03T22:08:13Z</time>
      </trkpt>
      <trkpt lat="35.093446000" lon="-106.392243000">
        <ele>2031.150000</ele>
        <time>2026-05-03T22:08:16Z</time>
      </trkpt>
      <trkpt lat="35.093420000" lon="-106.392250000">
        <ele>2031.940000</ele>
        <time>2026-05-03T22:08:19Z</time>
      </trkpt>
      <trkpt lat="35.093398000" lon="-106.392233000">
        <ele>2031.780000</ele>
        <time>2026-05-03T22:09:13Z</time>
      </trkpt>
      <trkpt lat="35.093373000" lon="-106.392238000">
        <ele>2029.240000</ele>
        <time>2026-05-03T22:09:37Z</time>
      </trkpt>
      <trkpt lat="35.093331000" lon="-106.392210000">
        <ele>2028.040000</ele>
        <time>2026-05-03T22:09:43Z</time>
      </trkpt>
      <trkpt lat="35.093304000" lon="-106.392219000">
        <ele>2032.520000</ele>
        <time>2026-05-03T22:09:47Z</time>
      </trkpt>
      <trkpt lat="35.093296000" lon="-106.392224000">
        <ele>2033.350000</ele>
        <time>2026-05-03T22:09:48Z</time>
      </trkpt>
      <trkpt lat="35.093246000" lon="-106.392239000">
        <ele>2038.330000</ele>
        <time>2026-05-03T22:09:55Z</time>
      </trkpt>
      <trkpt lat="35.093230000" lon="-106.392255000">
        <ele>2038.280000</ele>
        <time>2026-05-03T22:09:57Z</time>
      </trkpt>
      <trkpt lat="35.093140000" lon="-106.392210000">
        <ele>2040.680000</ele>
        <time>2026-05-03T22:10:06Z</time>
      </trkpt>
      <trkpt lat="35.093129000" lon="-106.392202000">
        <ele>2040.120000</ele>
        <time>2026-05-03T22:10:07Z</time>
      </trkpt>
      <trkpt lat="35.093063000" lon="-106.392152000">
        <ele>2042.830000</ele>
        <time>2026-05-03T22:10:14Z</time>
      </trkpt>
      <trkpt lat="35.092978000" lon="-106.392116000">
        <ele>2043.780000</ele>
        <time>2026-05-03T22:10:23Z</time>
      </trkpt>
      <trkpt lat="35.092969000" lon="-106.392115000">
        <ele>2044.070000</ele>
        <time>2026-05-03T22:10:24Z</time>
      </trkpt>
      <trkpt lat="35.092937000" lon="-106.392094000">
        <ele>2042.070000</ele>
        <time>2026-05-03T22:10:29Z</time>
      </trkpt>
      <trkpt lat="35.092925000" lon="-106.392037000">
        <ele>2033.470000</ele>
        <time>2026-05-03T22:12:42Z</time>
      </trkpt>
      <trkpt lat="35.092836000" lon="-106.392030000">
        <ele>2033.030000</ele>
        <time>2026-05-03T22:12:53Z</time>
      </trkpt>
      <trkpt lat="35.092827000" lon="-106.392031000">
        <ele>2032.830000</ele>
        <time>2026-05-03T22:12:54Z</time>
      </trkpt>
      <trkpt lat="35.092760000" lon="-106.392014000">
        <ele>2032.020000</ele>
        <time>2026-05-03T22:13:02Z</time>
      </trkpt>
      <trkpt lat="35.092770000" lon="-106.392029000">
        <ele>2028.740000</ele>
        <time>2026-05-03T22:13:55Z</time>
      </trkpt>
      <trkpt lat="35.092794000" lon="-106.392035000">
        <ele>2028.310000</ele>
        <time>2026-05-03T22:13:57Z</time>
      </trkpt>
      <trkpt lat="35.092784000" lon="-106.392011000">
        <ele>2028.810000</ele>
        <time>2026-05-03T22:14:03Z</time>
      </trkpt>
      <trkpt lat="35.092748000" lon="-106.392016000">
        <ele>2028.940000</ele>
        <time>2026-05-03T22:14:06Z</time>
      </trkpt>
      <trkpt lat="35.092734000" lon="-106.392019000">
        <ele>2029.460000</ele>
        <time>2026-05-03T22:14:07Z</time>
      </trkpt>
      <trkpt lat="35.092601000" lon="-106.392007000">
        <ele>2029.160000</ele>
        <time>2026-05-03T22:14:18Z</time>
      </trkpt>
      <trkpt lat="35.092569000" lon="-106.391994000">
        <ele>2028.770000</ele>
        <time>2026-05-03T22:14:21Z</time>
      </trkpt>
      <trkpt lat="35.092563000" lon="-106.391993000">
        <ele>2029.030000</ele>
        <time>2026-05-03T22:14:22Z</time>
      </trkpt>
      <trkpt lat="35.092480000" lon="-106.391984000">
        <ele>2030.260000</ele>
        <time>2026-05-03T22:14:31Z</time>
      </trkpt>
      <trkpt lat="35.092423000" lon="-106.392006000">
        <ele>2029.810000</ele>
        <time>2026-05-03T22:14:35Z</time>
      </trkpt>
      <trkpt lat="35.092410000" lon="-106.392005000">
        <ele>2029.980000</ele>
        <time>2026-05-03T22:14:36Z</time>
      </trkpt>
      <trkpt lat="35.092377000" lon="-106.392013000">
        <ele>2027.610000</ele>
        <time>2026-05-03T22:14:38Z</time>
      </trkpt>
      <trkpt lat="35.092331000" lon="-106.391985000">
        <ele>2024.840000</ele>
        <time>2026-05-03T22:14:58Z</time>
      </trkpt>
      <trkpt lat="35.092227000" lon="-106.392012000">
        <ele>2026.900000</ele>
        <time>2026-05-03T22:15:38Z</time>
      </trkpt>
      <trkpt lat="35.092219000" lon="-106.392014000">
        <ele>2027.050000</ele>
        <time>2026-05-03T22:15:39Z</time>
      </trkpt>
      <trkpt lat="35.092117000" lon="-106.392061000">
        <ele>2026.980000</ele>
        <time>2026-05-03T22:15:51Z</time>
      </trkpt>
      <trkpt lat="35.092071000" lon="-106.392093000">
        <ele>2025.810000</ele>
        <time>2026-05-03T22:15:57Z</time>
      </trkpt>
      <trkpt lat="35.092061000" lon="-106.392099000">
        <ele>2026.110000</ele>
        <time>2026-05-03T22:15:58Z</time>
      </trkpt>
      <trkpt lat="35.091901000" lon="-106.392188000">
        <ele>2021.820000</ele>
        <time>2026-05-03T22:16:21Z</time>
      </trkpt>
      <trkpt lat="35.091887000" lon="-106.392188000">
        <ele>2021.530000</ele>
        <time>2026-05-03T22:16:22Z</time>
      </trkpt>
      <trkpt lat="35.091813000" lon="-106.392230000">
        <ele>2020.320000</ele>
        <time>2026-05-03T22:16:32Z</time>
      </trkpt>
      <trkpt lat="35.091721000" lon="-106.392262000">
        <ele>2019.310000</ele>
        <time>2026-05-03T22:16:42Z</time>
      </trkpt>
      <trkpt lat="35.091711000" lon="-106.392265000">
        <ele>2018.980000</ele>
        <time>2026-05-03T22:16:43Z</time>
      </trkpt>
      <trkpt lat="35.091527000" lon="-106.392291000">
        <ele>2018.910000</ele>
        <time>2026-05-03T22:17:04Z</time>
      </trkpt>
      <trkpt lat="35.091519000" lon="-106.392292000">
        <ele>2018.780000</ele>
        <time>2026-05-03T22:17:05Z</time>
      </trkpt>
      <trkpt lat="35.091432000" lon="-106.392294000">
        <ele>2015.360000</ele>
        <time>2026-05-03T22:17:15Z</time>
      </trkpt>
      <trkpt lat="35.091348000" lon="-106.392322000">
        <ele>2012.390000</ele>
        <time>2026-05-03T22:17:24Z</time>
      </trkpt>
      <trkpt lat="35.091342000" lon="-106.392327000">
        <ele>2012.130000</ele>
        <time>2026-05-03T22:17:25Z</time>
      </trkpt>
      <trkpt lat="35.091164000" lon="-106.392401000">
        <ele>2013.230000</ele>
        <time>2026-05-03T22:17:46Z</time>
      </trkpt>
      <trkpt lat="35.091154000" lon="-106.392408000">
        <ele>2013.410000</ele>
        <time>2026-05-03T22:17:47Z</time>
      </trkpt>
      <trkpt lat="35.091085000" lon="-106.392459000">
        <ele>2013.130000</ele>
        <time>2026-05-03T22:17:56Z</time>
      </trkpt>
      <trkpt lat="35.090991000" lon="-106.392492000">
        <ele>2012.150000</ele>
        <time>2026-05-03T22:18:07Z</time>
      </trkpt>
      <trkpt lat="35.090984000" lon="-106.392497000">
        <ele>2012.290000</ele>
        <time>2026-05-03T22:18:08Z</time>
      </trkpt>
      <trkpt lat="35.090890000" lon="-106.392525000">
        <ele>2012.880000</ele>
        <time>2026-05-03T22:18:19Z</time>
      </trkpt>
      <trkpt lat="35.090815000" lon="-106.392519000">
        <ele>2011.140000</ele>
        <time>2026-05-03T22:18:26Z</time>
      </trkpt>
      <trkpt lat="35.090805000" lon="-106.392519000">
        <ele>2011.080000</ele>
        <time>2026-05-03T22:18:27Z</time>
      </trkpt>
      <trkpt lat="35.090629000" lon="-106.392512000">
        <ele>2007.940000</ele>
        <time>2026-05-03T22:18:47Z</time>
      </trkpt>
      <trkpt lat="35.090620000" lon="-106.392509000">
        <ele>2007.940000</ele>
        <time>2026-05-03T22:18:48Z</time>
      </trkpt>
      <trkpt lat="35.090479000" lon="-106.392490000">
        <ele>2012.370000</ele>
        <time>2026-05-03T22:19:03Z</time>
      </trkpt>
      <trkpt lat="35.090450000" lon="-106.392506000">
        <ele>2011.390000</ele>
        <time>2026-05-03T22:19:07Z</time>
      </trkpt>
      <trkpt lat="35.090443000" lon="-106.392508000">
        <ele>2010.100000</ele>
        <time>2026-05-03T22:19:08Z</time>
      </trkpt>
      <trkpt lat="35.090414000" lon="-106.392499000">
        <ele>2006.780000</ele>
        <time>2026-05-03T22:19:12Z</time>
      </trkpt>
      <trkpt lat="35.090372000" lon="-106.392508000">
        <ele>2007.420000</ele>
        <time>2026-05-03T22:19:18Z</time>
      </trkpt>
      <trkpt lat="35.090301000" lon="-106.392497000">
        <ele>2001.280000</ele>
        <time>2026-05-03T22:19:30Z</time>
      </trkpt>
      <trkpt lat="35.090270000" lon="-106.392507000">
        <ele>2000.740000</ele>
        <time>2026-05-03T22:19:35Z</time>
      </trkpt>
      <trkpt lat="35.090262000" lon="-106.392508000">
        <ele>2001.090000</ele>
        <time>2026-05-03T22:19:36Z</time>
      </trkpt>
      <trkpt lat="35.090165000" lon="-106.392511000">
        <ele>2004.570000</ele>
        <time>2026-05-03T22:19:49Z</time>
      </trkpt>
      <trkpt lat="35.090098000" lon="-106.392495000">
        <ele>2007.240000</ele>
        <time>2026-05-03T22:19:56Z</time>
      </trkpt>
      <trkpt lat="35.090090000" lon="-106.392490000">
        <ele>2007.130000</ele>
        <time>2026-05-03T22:19:57Z</time>
      </trkpt>
      <trkpt lat="35.090005000" lon="-106.392458000">
        <ele>2008.040000</ele>
        <time>2026-05-03T22:20:06Z</time>
      </trkpt>
      <trkpt lat="35.089947000" lon="-106.392407000">
        <ele>2007.910000</ele>
        <time>2026-05-03T22:20:13Z</time>
      </trkpt>
      <trkpt lat="35.089942000" lon="-106.392398000">
        <ele>2008.170000</ele>
        <time>2026-05-03T22:20:14Z</time>
      </trkpt>
      <trkpt lat="35.089844000" lon="-106.392237000">
        <ele>2006.450000</ele>
        <time>2026-05-03T22:20:29Z</time>
      </trkpt>
      <trkpt lat="35.089835000" lon="-106.392233000">
        <ele>2006.520000</ele>
        <time>2026-05-03T22:20:30Z</time>
      </trkpt>
      <trkpt lat="35.089760000" lon="-106.392122000">
        <ele>2004.610000</ele>
        <time>2026-05-03T22:20:41Z</time>
      </trkpt>
      <trkpt lat="35.089738000" lon="-106.392067000">
        <ele>2005.460000</ele>
        <time>2026-05-03T22:20:46Z</time>
      </trkpt>
      <trkpt lat="35.089733000" lon="-106.392056000">
        <ele>2005.530000</ele>
        <time>2026-05-03T22:20:47Z</time>
      </trkpt>
      <trkpt lat="35.089702000" lon="-106.391945000">
        <ele>2003.710000</ele>
        <time>2026-05-03T22:20:56Z</time>
      </trkpt>
      <trkpt lat="35.089672000" lon="-106.391904000">
        <ele>2001.820000</ele>
        <time>2026-05-03T22:21:01Z</time>
      </trkpt>
      <trkpt lat="35.089663000" lon="-106.391868000">
        <ele>1999.970000</ele>
        <time>2026-05-03T22:21:14Z</time>
      </trkpt>
      <trkpt lat="35.089661000" lon="-106.391860000">
        <ele>1998.970000</ele>
        <time>2026-05-03T22:21:15Z</time>
      </trkpt>
      <trkpt lat="35.089648000" lon="-106.391821000">
        <ele>1998.760000</ele>
        <time>2026-05-03T22:21:20Z</time>
      </trkpt>
      <trkpt lat="35.089666000" lon="-106.391810000">
        <ele>1997.200000</ele>
        <time>2026-05-03T22:21:22Z</time>
      </trkpt>
      <trkpt lat="35.089670000" lon="-106.391778000">
        <ele>1994.800000</ele>
        <time>2026-05-03T22:21:27Z</time>
      </trkpt>
      <trkpt lat="35.089648000" lon="-106.391764000">
        <ele>1991.620000</ele>
        <time>2026-05-03T22:21:35Z</time>
      </trkpt>
      <trkpt lat="35.089655000" lon="-106.391789000">
        <ele>1993.220000</ele>
        <time>2026-05-03T22:21:40Z</time>
      </trkpt>
      <trkpt lat="35.089631000" lon="-106.391787000">
        <ele>1995.760000</ele>
        <time>2026-05-03T22:23:10Z</time>
      </trkpt>
      <trkpt lat="35.089608000" lon="-106.391754000">
        <ele>1995.300000</ele>
        <time>2026-05-03T22:23:13Z</time>
      </trkpt>
      <trkpt lat="35.089608000" lon="-106.391747000">
        <ele>1995.060000</ele>
        <time>2026-05-03T22:23:14Z</time>
      </trkpt>
      <trkpt lat="35.089601000" lon="-106.391645000">
        <ele>1995.380000</ele>
        <time>2026-05-03T22:23:30Z</time>
      </trkpt>
      <trkpt lat="35.089612000" lon="-106.391626000">
        <ele>1995.260000</ele>
        <time>2026-05-03T22:23:32Z</time>
      </trkpt>
      <trkpt lat="35.089613000" lon="-106.391594000">
        <ele>1994.560000</ele>
        <time>2026-05-03T22:23:35Z</time>
      </trkpt>
      <trkpt lat="35.089655000" lon="-106.391543000">
        <ele>1992.270000</ele>
        <time>2026-05-03T22:23:42Z</time>
      </trkpt>
      <trkpt lat="35.089663000" lon="-106.391539000">
        <ele>1992.300000</ele>
        <time>2026-05-03T22:23:43Z</time>
      </trkpt>
      <trkpt lat="35.089682000" lon="-106.391564000">
        <ele>1990.730000</ele>
        <time>2026-05-03T22:23:47Z</time>
      </trkpt>
      <trkpt lat="35.089663000" lon="-106.391546000">
        <ele>1994.120000</ele>
        <time>2026-05-03T22:24:15Z</time>
      </trkpt>
      <trkpt lat="35.089643000" lon="-106.391564000">
        <ele>1993.850000</ele>
        <time>2026-05-03T22:24:16Z</time>
      </trkpt>
      <trkpt lat="35.089641000" lon="-106.391537000">
        <ele>1995.150000</ele>
        <time>2026-05-03T22:25:14Z</time>
      </trkpt>
    </trkseg>
  </trk>
</gpx>
